[[{"header":{"parameterUnit":"m.s-1","parameterCategory":1,"la1":31.0,"la2":29.5877,"lo1":-88.7671,"lo2":-86.6584,"dy":0.0162,"dx":0.0185,"nx":115,"ny":88,"refTime":"2023-10-04T12:00:00:Z","depth":0,"parameterNumber":2,"parameterNumberName":"U-component_of_WINDS"},"data":[0.0,0.0,0.0,0.0,0.0,0.0,0.0,0.0,0.0,0.0,0.0,0.0,0.0,0.0,0.0,0.0,0.0,0.0,0.0,0.0,0.0,0.0,0.0,0.0,0.0,0.0,0.0,0.0,0.0,0.0,0.0,0.0,0.0,0.0,0.0,0.0,0.0,0.0,0.0,0.0,0.0,0.0,0.0,0.0,0.0,0.0,0.0,0.0,0.0,0.0,0.0,0.0,0.0,0.0,0.0,0.0,0.0,0.0,0.0,0.0,0.0,0.0,0.0,0.0,0.0,0.0,0.0,0.0,0.0,0.0,0.0,0.0,0.0,0.0,0.0,0.0,0.0,0.0,0.0,0.0,0.0,0.0,0.0,0.0,0.0,0.0,0.0,0.0,0.0,0.0,0.0,0.0,0.0,0.0,0.0,0.0,0.0,0.0,0.0,0.0,0.0,0.0,0.0,0.0,0.0,0.0,0.0,0.0,0.0,0.0,0.0,0.0,0.0,0.0,0.0,0.0,0.0,0.0,0.0,0.0,0.0,0.0,0.0,0.0,0.0,0.0,0.0,0.0,0.0,0.0,0.0,0.0,0.0,0.0,0.0,0.0,0.0,0.0,0.0,0.0,0.0,0.0,0.0,0.0,0.0,0.0,0.0,0.0,0.0,0.0,0.0,0.0,0.0,0.0,0.0,0.0,0.0,0.0,0.0,0.0,0.0,0.0,0.0,0.0,0.0,0.0,0.0,0.0,0.0,0.0,0.0,0.0,0.0,0.0,0.0,0.0,0.0,0.0,0.0,0.0,0.0,0.0,0.0,0.0,0.0,0.0,0.0,0.0,0.0,0.0,0.0,0.0,0.0,0.0,0.0,0.0,0.0,0.0,0.0,0.0,0.0,0.0,0.0,0.0,0.0,0.0,0.0,0.0,0.0,0.0,0.0,0.0,0.0,0.0,0.0,0.0,0.0,0.0,0.0,0.0,0.0,0.0,0.0,0.0,0.0,0.0,0.0,0.0,0.0,0.0,0.0,0.0,0.0,0.0,0.0,0.0,0.0,0.0,0.0,0.0,0.0,0.0,0.0,0.0,0.0,0.0,0.0,0.0,0.0,0.0,0.0,0.0,0.0,0.0,0.0,0.0,0.0,0.0,0.0,0.0,0.0,0.0,0.0,0.0,0.0,0.0,0.0,0.0,0.0,0.0,0.0,0.0,0.0,0.0,0.0,0.0,0.0,0.0,0.0,0.0,0.0,0.0,0.0,0.0,0.0,0.0,0.0,0.0,0.0,0.0,0.0,0.0,0.0,0.0,0.0,0.0,0.0,0.0,0.0,0.0,0.0,0.0,0.0,0.0,0.0,0.0,0.0,0.0,0.0,0.0,0.0,0.0,0.0,0.0,0.0,0.0,0.0,0.0,0.0,0.0,0.0,0.0,0.0,0.0,0.0,0.0,0.0,0.0,0.0,0.0,0.0,0.0,0.0,0.0,0.0,0.0,0.0,0.0,0.0,0.0,0.0,0.0,0.0,0.0,0.0,0.0,0.0,0.0,0.0,0.0,0.0,0.0,0.0,0.0,0.0,0.0,0.0,0.0,0.0,0.0,0.0,0.0,0.0,0.0,0.0,0.0,0.0,0.0,0.0,0.0,0.0,0.0,0.0,0.0,0.0,0.0,0.0,0.0,0.0,0.0,0.0,0.0,0.0,0.0,0.0,0.0,0.0,0.0,0.0,0.0,0.0,0.0,0.0,0.0,0.0,0.0,0.0,0.0,0.0,0.0,0.0,0.0,0.0,0.0,0.0,0.0,0.0,0.0,0.0,0.0,0.0,0.0,0.0,0.0,0.0,0.0,0.0,0.0,0.0,0.0,0.0,0.0,0.0,0.0,0.0,0.0,0.0,0.0,0.0,0.0,0.0,0.0,0.0,0.0,0.0,0.0,0.0,0.0,0.0,0.0,0.0,0.0,0.0,0.0,0.0,0.0,0.0,0.0,0.0,0.0,0.0,0.0,0.0,0.0,0.0,0.0,0.0,0.0,0.0,0.0,0.0,0.0,0.0,0.0,0.0,0.0,0.0,0.0,0.0,0.0,0.0,0.0,0.0,0.0,0.0,0.0,0.0,0.0,0.0,0.0,0.0,0.0,0.0,0.0,0.0,0.0,0.0,0.0,0.0,0.0,0.0,0.0,0.0,0.0,0.0,0.0,0.0,0.0,0.0,0.0,0.0,0.0,0.0,0.0,0.0,0.0,0.0,0.0,0.0,0.0,0.0,0.0,0.0,0.0,0.0,0.0,0.0,0.0,0.0,0.0,0.0,0.0,0.0,0.0,0.0,0.0,0.0,0.0,0.0,0.0,0.0,0.0,0.0,0.0,0.0,0.0,0.0,0.0,0.0,0.0,0.0,0.0,0.0,0.0,0.0,0.0,0.0,0.0,0.0,0.0,0.0,0.0,0.0,0.0,0.0,0.0,0.0,0.0,0.0,0.0,0.0,0.0,0.0,0.0,0.0,0.0,0.0,0.0,0.0,0.0,0.0,0.0,0.0,0.0,0.0,0.0,0.0,0.0,0.0,0.0,0.0,0.0,0.0,0.0,0.0,0.0,0.0,0.0,0.0,0.0,0.0,0.0,0.0,0.0,0.0,0.0,0.0,0.0,0.0,0.0,0.0,0.0,0.0,0.0,0.0,0.0,0.0,0.0,0.0,0.0,0.0,0.0,0.0,0.0,0.0,0.0,0.0,0.0,0.0,0.0,0.0,0.0,0.0,0.0,0.0,0.0,0.0,0.0,0.0,0.0,0.0,0.0,0.0,0.0,0.0,0.0,0.0,0.0,0.0,0.0,0.0,0.0,0.0,0.0,0.0,0.0,0.0,0.0,0.0,0.0,0.0,0.0,0.0,0.0,0.0,0.0,0.0,0.0,0.0,0.0,0.0,0.0,0.0,0.0,0.0,0.0,0.0,0.0,0.0,0.0,0.0,0.0,0.0,0.0,0.0,0.0,0.0,0.0,0.0,0.0,0.0,0.0,0.0,0.0,0.0,0.0,0.0,0.0,0.0,0.0,0.0,0.0,0.0,0.0,0.0,0.0,0.0,0.0,0.0,0.0,0.0,0.0,0.0,0.0,0.0,0.0,0.0,0.0,0.0,0.0,0.0,0.0,0.0,0.0,0.0,0.0,0.0,0.0,0.0,0.0,0.0,0.0,0.0,0.0,0.0,0.0,0.0,0.0,0.0,0.0,0.0,0.0,0.0,0.0,0.0,0.0,0.0,0.0,0.0,0.0,0.0,0.0,0.0,0.0,0.0,0.0,0.0,0.0,0.0,0.0,0.0,0.0,0.0,0.0,0.0,0.0,0.0,0.0,0.0,0.0,0.0,0.0,0.0,0.0,0.0,0.0,0.0,0.0,0.0,0.0,0.0,0.0,0.0,0.0,0.0,0.0,0.0,0.0,0.0,0.0,0.0,0.0,0.0,0.0,0.0,0.0,0.0,0.0,0.0,0.0,0.0,0.0,0.0,0.0,0.0,0.0,0.0,0.0,0.0,0.0,0.0,0.0,0.0,0.0,0.0,0.0,0.0,0.0,0.0,0.0,0.0,0.0,0.0,0.0,0.0,0.0,0.0,0.0,0.0,0.0,0.0,0.0,0.0,0.0,0.0,0.0,0.0,0.0,0.0,0.0,0.0,0.0,0.0,0.0,0.0,0.0,0.0,0.0,0.0,0.0,0.0,0.0,0.0,0.0,0.0,0.0,0.0,0.0,0.0,0.0,0.0,0.0,0.0,0.0,0.0,0.0,0.0,0.0,0.0,0.0,0.0,0.0,0.0,0.0,0.0,0.0,0.0,0.0,0.0,0.0,0.0,0.0,0.0,0.0,0.0,0.0,0.0,0.0,0.0,0.0,0.0,0.0,0.0,0.0,0.0,0.0,0.0,0.0,0.0,0.0,0.0,0.0,0.0,0.0,0.0,0.0,0.0,0.0,0.0,0.0,0.0,0.0,0.0,0.0,0.0,0.0,0.0,0.0,0.0,0.0,0.0,0.0,0.0,0.0,0.0,0.0,0.0,0.0,0.0,0.0,0.0,0.0,0.0,0.0,0.0,0.0,0.0,0.0,0.0,0.0,0.0,0.0,0.0,0.0,0.0,0.0,0.0,0.0,0.0,0.0,0.0,0.0,0.0,0.0,0.0,0.0,0.0,0.0,0.0,0.0,0.0,0.0,0.0,0.0,0.0,0.0,0.0,0.0,0.0,0.0,0.0,0.0,0.0,0.0,0.0,0.0,7.2091,0.0,0.0,0.0,0.0,0.0,0.0,0.0,0.0,0.0,0.0,0.0,0.0,0.0,0.0,0.0,0.0,0.0,0.0,0.0,0.0,0.0,0.0,0.0,0.0,0.0,0.0,0.0,0.0,0.0,0.0,0.0,0.0,0.0,0.0,0.0,0.0,0.0,0.0,0.0,0.0,0.0,0.0,0.0,0.0,0.0,0.0,0.0,0.0,0.0,0.0,0.0,0.0,0.0,0.0,0.0,0.0,0.0,0.0,0.0,0.0,0.0,0.0,0.0,0.0,0.0,0.0,0.0,0.0,0.0,0.0,0.0,0.0,0.0,0.0,0.0,0.0,0.0,0.0,0.0,0.0,0.0,0.0,0.0,0.0,0.0,0.0,0.0,0.0,0.0,0.0,0.0,0.0,0.0,0.0,0.0,0.0,0.0,0.0,0.0,0.0,0.0,0.0,0.0,0.0,0.0,0.0,0.0,0.0,0.0,0.0,7.5822,7.5399,7.4938,7.413,7.2937,0.0,0.0,0.0,0.0,0.0,0.0,0.0,0.0,0.0,0.0,0.0,0.0,0.0,0.0,0.0,0.0,0.0,0.0,0.0,0.0,0.0,0.0,0.0,0.0,0.0,0.0,0.0,0.0,0.0,0.0,0.0,0.0,0.0,0.0,0.0,0.0,0.0,0.0,0.0,0.0,0.0,0.0,0.0,0.0,0.0,0.0,0.0,0.0,0.0,0.0,0.0,0.0,0.0,0.0,0.0,0.0,0.0,0.0,0.0,0.0,0.0,0.0,0.0,0.0,0.0,0.0,0.0,0.0,0.0,0.0,0.0,0.0,0.0,0.0,0.0,0.0,0.0,0.0,0.0,0.0,0.0,0.0,0.0,0.0,0.0,0.0,0.0,0.0,0.0,0.0,0.0,0.0,0.0,0.0,0.0,0.0,0.0,0.0,0.0,0.0,0.0,0.0,0.0,0.0,0.0,0.0,0.0,0.0,0.0,0.0,0.0,0.0,7.5361,7.4514,7.3514,0.0,0.0,0.0,0.0,0.0,0.0,0.0,0.0,0.0,0.0,0.0,0.0,0.0,0.0,0.0,0.0,0.0,0.0,0.0,0.0,0.0,0.0,0.0,0.0,0.0,0.0,0.0,0.0,0.0,0.0,0.0,0.0,0.0,0.0,0.0,0.0,0.0,0.0,0.0,0.0,0.0,0.0,0.0,0.0,0.0,0.0,0.0,0.0,0.0,0.0,0.0,0.0,0.0,0.0,0.0,0.0,0.0,0.0,0.0,0.0,0.0,0.0,0.0,0.0,0.0,0.0,0.0,0.0,0.0,0.0,0.0,0.0,0.0,0.0,0.0,0.0,0.0,0.0,0.0,0.0,0.0,0.0,0.0,0.0,0.0,0.0,0.0,0.0,0.0,0.0,0.0,0.0,0.0,0.0,0.0,0.0,0.0,0.0,0.0,0.0,0.0,0.0,0.0,0.0,0.0,0.0,0.0,0.0,0.0,0.0,7.5976,7.5976,7.5899,0.0,7.3514,0.0,0.0,0.0,0.0,0.0,0.0,0.0,0.0,0.0,0.0,0.0,0.0,0.0,0.0,0.0,0.0,0.0,0.0,0.0,0.0,0.0,0.0,0.0,0.0,0.0,0.0,0.0,0.0,0.0,0.0,0.0,0.0,0.0,0.0,0.0,0.0,0.0,0.0,0.0,0.0,0.0,0.0,0.0,0.0,0.0,0.0,0.0,0.0,0.0,0.0,0.0,0.0,0.0,0.0,0.0,0.0,0.0,0.0,0.0,0.0,0.0,0.0,0.0,0.0,0.0,0.0,0.0,0.0,0.0,0.0,0.0,0.0,0.0,0.0,0.0,0.0,0.0,0.0,0.0,0.0,0.0,0.0,0.0,0.0,0.0,0.0,0.0,0.0,0.0,0.0,0.0,0.0,0.0,0.0,0.0,0.0,0.0,0.0,0.0,0.0,0.0,0.0,0.0,0.0,0.0,0.0,0.0,0.0,0.0,0.0,7.5976,7.5976,7.5053,7.4207,0.0,0.0,0.0,0.0,0.0,0.0,0.0,0.0,0.0,0.0,0.0,0.0,0.0,0.0,0.0,0.0,0.0,0.0,0.0,0.0,0.0,0.0,0.0,0.0,0.0,0.0,0.0,0.0,0.0,0.0,0.0,0.0,0.0,0.0,0.0,0.0,0.0,0.0,0.0,0.0,0.0,0.0,0.0,0.0,0.0,0.0,0.0,0.0,0.0,0.0,0.0,0.0,0.0,0.0,0.0,0.0,0.0,0.0,0.0,0.0,0.0,0.0,0.0,0.0,0.0,0.0,0.0,0.0,0.0,0.0,0.0,0.0,0.0,0.0,0.0,0.0,0.0,0.0,0.0,0.0,0.0,0.0,0.0,0.0,0.0,0.0,0.0,0.0,0.0,0.0,0.0,0.0,0.0,0.0,0.0,0.0,0.0,0.0,0.0,0.0,0.0,0.0,0.0,0.0,0.0,0.0,0.0,0.0,0.0,0.0,7.5322,7.5745,7.5899,7.4361,7.3514,7.3514,0.0,0.0,0.0,0.0,0.0,0.0,0.0,0.0,0.0,0.0,0.0,0.0,0.0,0.0,0.0,0.0,0.0,0.0,0.0,0.0,0.0,0.0,0.0,0.0,0.0,0.0,0.0,0.0,0.0,0.0,0.0,0.0,0.0,0.0,0.0,0.0,0.0,0.0,0.0,0.0,0.0,0.0,0.0,0.0,0.0,0.0,0.0,0.0,0.0,0.0,0.0,0.0,0.0,0.0,0.0,0.0,0.0,0.0,0.0,0.0,0.0,0.0,0.0,0.0,0.0,0.0,0.0,0.0,0.0,0.0,0.0,0.0,0.0,0.0,0.0,0.0,0.0,0.0,0.0,0.0,0.0,0.0,0.0,0.0,0.0,0.0,0.0,0.0,0.0,0.0,0.0,0.0,0.0,0.0,0.0,0.0,0.0,0.0,0.0,0.0,0.0,0.0,0.0,0.0,0.0,0.0,0.0,0.0,7.463,7.4745,7.5168,7.5938,7.4361,7.3514,0.0,0.0,0.0,0.0,0.0,0.0,0.0,0.0,0.0,0.0,0.0,0.0,0.0,0.0,0.0,0.0,0.0,0.0,0.0,0.0,0.0,0.0,0.0,0.0,0.0,0.0,0.0,0.0,0.0,0.0,0.0,0.0,0.0,0.0,0.0,0.0,0.0,0.0,0.0,0.0,0.0,0.0,0.0,0.0,0.0,0.0,0.0,0.0,0.0,0.0,0.0,0.0,0.0,0.0,0.0,0.0,0.0,0.0,0.0,0.0,0.0,0.0,0.0,0.0,0.0,0.0,0.0,0.0,0.0,0.0,0.0,0.0,0.0,0.0,0.0,0.0,0.0,0.0,0.0,0.0,0.0,0.0,0.0,0.0,0.0,0.0,0.0,0.0,0.0,0.0,0.0,0.0,0.0,0.0,0.0,0.0,0.0,0.0,0.0,0.0,0.0,0.0,0.0,0.0,0.0,0.0,0.0,0.0,0.0,7.3937,7.4976,7.5668,7.5938,7.4399,7.3514,0.0,0.0,0.0,0.0,0.0,0.0,0.0,0.0,0.0,0.0,0.0,0.0,0.0,0.0,0.0,0.0,0.0,0.0,0.0,0.0,0.0,0.0,0.0,0.0,0.0,0.0,0.0,0.0,0.0,0.0,0.0,0.0,0.0,0.0,0.0,0.0,0.0,0.0,0.0,0.0,0.0,0.0,0.0,0.0,0.0,0.0,0.0,0.0,0.0,0.0,0.0,0.0,0.0,0.0,0.0,0.0,0.0,0.0,0.0,0.0,0.0,0.0,0.0,0.0,0.0,0.0,0.0,0.0,0.0,0.0,0.0,0.0,0.0,0.0,0.0,0.0,0.0,0.0,0.0,0.0,0.0,0.0,0.0,0.0,0.0,0.0,0.0,0.0,0.0,0.0,0.0,0.0,0.0,0.0,0.0,0.0,0.0,0.0,0.0,0.0,0.0,0.0,0.0,0.0,0.0,0.0,0.0,0.0,0.0,7.3476,0.0,7.5707,7.5938,7.4399,7.3514,0.0,0.0,0.0,0.0,0.0,0.0,0.0,0.0,0.0,0.0,0.0,0.0,0.0,0.0,0.0,0.0,0.0,0.0,0.0,0.0,0.0,0.0,0.0,0.0,0.0,0.0,0.0,0.0,0.0,0.0,0.0,0.0,0.0,0.0,0.0,0.0,0.0,0.0,0.0,0.0,0.0,0.0,0.0,0.0,0.0,0.0,0.0,0.0,0.0,0.0,0.0,0.0,0.0,0.0,0.0,0.0,0.0,0.0,0.0,0.0,0.0,0.0,0.0,0.0,0.0,0.0,0.0,0.0,0.0,0.0,0.0,0.0,0.0,0.0,0.0,0.0,0.0,0.0,0.0,0.0,0.0,0.0,0.0,0.0,0.0,0.0,0.0,0.0,0.0,0.0,0.0,0.0,0.0,0.0,0.0,0.0,0.0,0.0,0.0,0.0,0.0,0.0,0.0,0.0,0.0,0.0,0.0,0.0,7.1783,7.3437,7.4322,7.5207,7.5938,7.4399,7.3514,0.0,0.0,0.0,0.0,0.0,0.0,0.0,0.0,0.0,0.0,0.0,0.0,0.0,0.0,0.0,0.0,0.0,0.0,0.0,0.0,0.0,0.0,0.0,0.0,0.0,0.0,0.0,0.0,0.0,0.0,0.0,0.0,0.0,0.0,0.0,0.0,0.0,0.0,0.0,0.0,0.0,0.0,0.0,0.0,0.0,0.0,0.0,0.0,0.0,0.0,0.0,0.0,0.0,0.0,0.0,0.0,0.0,0.0,0.0,0.0,0.0,0.0,0.0,0.0,0.0,0.0,0.0,0.0,0.0,0.0,0.0,0.0,0.0,0.0,0.0,0.0,0.0,0.0,0.0,0.0,0.0,0.0,0.0,0.0,0.0,0.0,0.0,0.0,0.0,0.0,0.0,0.0,0.0,0.0,0.0,0.0,0.0,0.0,0.0,0.0,0.0,0.0,0.0,0.0,0.0,0.0,0.0,0.0,0.0,7.3476,7.4861,7.5707,7.5938,7.4399,7.3514,0.0,0.0,0.0,0.0,0.0,0.0,0.0,0.0,0.0,0.0,0.0,0.0,0.0,0.0,0.0,0.0,0.0,0.0,0.0,0.0,0.0,0.0,0.0,0.0,0.0,0.0,0.0,0.0,0.0,0.0,0.0,0.0,0.0,0.0,0.0,0.0,0.0,0.0,0.0,0.0,0.0,0.0,0.0,0.0,0.0,0.0,0.0,0.0,0.0,0.0,0.0,0.0,0.0,0.0,0.0,0.0,0.0,0.0,0.0,0.0,0.0,0.0,0.0,0.0,0.0,0.0,0.0,0.0,0.0,0.0,0.0,0.0,0.0,0.0,0.0,0.0,0.0,0.0,0.0,0.0,0.0,0.0,0.0,0.0,0.0,0.0,0.0,0.0,0.0,0.0,0.0,0.0,0.0,0.0,0.0,0.0,0.0,0.0,0.0,0.0,0.0,0.0,0.0,0.0,0.0,0.0,0.0,0.0,0.0,7.4399,7.513,7.5668,7.5976,7.4668,7.3822,7.3476,0.0,0.0,0.0,0.0,0.0,0.0,0.0,0.0,0.0,0.0,0.0,0.0,0.0,0.0,0.0,0.0,0.0,0.0,0.0,0.0,0.0,0.0,0.0,0.0,0.0,0.0,0.0,0.0,0.0,0.0,0.0,0.0,0.0,0.0,0.0,0.0,0.0,0.0,0.0,0.0,0.0,0.0,0.0,0.0,0.0,0.0,0.0,0.0,0.0,0.0,0.0,0.0,0.0,0.0,0.0,0.0,0.0,0.0,0.0,0.0,0.0,0.0,0.0,0.0,0.0,0.0,0.0,0.0,0.0,0.0,0.0,0.0,0.0,0.0,0.0,0.0,0.0,0.0,0.0,0.0,0.0,0.0,0.0,0.0,0.0,0.0,0.0,0.0,0.0,0.0,0.0,0.0,0.0,0.0,0.0,0.0,0.0,0.0,0.0,0.0,0.0,0.0,0.0,0.0,0.0,0.0,0.0,0.0,7.6053,7.5322,7.5322,7.6053,7.5245,7.4361,0.0,0.0,0.0,0.0,0.0,0.0,0.0,0.0,0.0,0.0,0.0,0.0,0.0,0.0,0.0,0.0,0.0,0.0,0.0,0.0,0.0,0.0,0.0,0.0,0.0,0.0,0.0,0.0,0.0,0.0,0.0,0.0,0.0,0.0,0.0,0.0,0.0,0.0,0.0,0.0,0.0,0.0,0.0,0.0,0.0,0.0,0.0,0.0,0.0,0.0,0.0,0.0,0.0,0.0,0.0,0.0,0.0,0.0,0.0,0.0,0.0,0.0,0.0,0.0,0.0,0.0,0.0,0.0,0.0,0.0,0.0,0.0,0.0,0.0,0.0,0.0,0.0,0.0,0.0,0.0,0.0,0.0,0.0,0.0,0.0,0.0,0.0,0.0,0.0,0.0,0.0,0.0,0.0,0.0,0.0,0.0,0.0,0.0,0.0,0.0,0.0,0.0,0.0,0.0,0.0,0.0,0.0,0.0,0.0,7.6899,7.7323,7.7323,7.6938,7.613,7.4976,0.0,0.0,0.0,0.0,0.0,0.0,0.0,0.0,0.0,0.0,0.0,0.0,0.0,0.0,0.0,0.0,0.0,0.0,0.0,0.0,0.0,0.0,0.0,0.0,0.0,0.0,0.0,0.0,0.0,0.0,0.0,0.0,0.0,0.0,0.0,0.0,0.0,0.0,0.0,0.0,0.0,0.0,0.0,0.0,0.0,0.0,0.0,0.0,0.0,0.0,0.0,0.0,0.0,0.0,0.0,0.0,0.0,0.0,0.0,0.0,0.0,0.0,0.0,0.0,0.0,0.0,0.0,0.0,0.0,0.0,0.0,0.0,0.0,0.0,0.0,0.0,0.0,0.0,0.0,0.0,0.0,0.0,0.0,0.0,0.0,0.0,0.0,0.0,0.0,0.0,0.0,0.0,0.0,0.0,0.0,0.0,0.0,0.0,0.0,0.0,0.0,0.0,0.0,0.0,0.0,0.0,0.0,0.0,7.6592,7.7784,7.8592,7.8823,7.8361,7.7169,7.5745,0.0,0.0,0.0,0.0,0.0,0.0,0.0,0.0,0.0,0.0,0.0,0.0,0.0,0.0,0.0,0.0,0.0,0.0,0.0,0.0,0.0,0.0,0.0,0.0,0.0,0.0,0.0,0.0,0.0,0.0,0.0,0.0,0.0,0.0,0.0,0.0,0.0,0.0,0.0,0.0,0.0,0.0,0.0,0.0,0.0,0.0,0.0,0.0,0.0,0.0,0.0,0.0,0.0,0.0,0.0,0.0,0.0,0.0,0.0,0.0,0.0,0.0,0.0,0.0,0.0,0.0,0.0,0.0,0.0,0.0,0.0,0.0,0.0,0.0,0.0,0.0,0.0,0.0,0.0,0.0,0.0,0.0,0.0,0.0,0.0,0.0,0.0,0.0,0.0,0.0,0.0,0.0,0.0,0.0,0.0,0.0,0.0,0.0,0.0,0.0,0.0,0.0,0.0,0.0,0.0,0.0,0.0,0.0,7.7006,7.8507,7.9469,7.9969,7.99,7.8323,7.6592,0.0,0.0,0.0,0.0,0.0,0.0,0.0,0.0,0.0,0.0,0.0,0.0,0.0,0.0,0.0,0.0,0.0,0.0,0.0,0.0,0.0,0.0,0.0,0.0,0.0,0.0,0.0,0.0,0.0,0.0,0.0,0.0,0.0,0.0,0.0,0.0,0.0,0.0,0.0,0.0,0.0,0.0,0.0,0.0,0.0,0.0,0.0,0.0,0.0,0.0,0.0,0.0,0.0,0.0,0.0,0.0,0.0,0.0,0.0,0.0,0.0,0.0,0.0,0.0,0.0,0.0,0.0,0.0,0.0,0.0,0.0,0.0,0.0,0.0,0.0,0.0,0.0,0.0,0.0,0.0,0.0,0.0,0.0,0.0,0.0,0.0,0.0,0.0,0.0,0.0,0.0,0.0,0.0,0.0,0.0,0.0,0.0,0.0,0.0,0.0,0.0,0.0,0.0,0.0,0.0,0.0,0.0,0.0,7.8266,7.8651,8.0155,8.0935,8.0876,7.9161,7.7438,0.0,0.0,0.0,0.0,0.0,0.0,0.0,0.0,0.0,0.0,0.0,0.0,0.0,0.0,0.0,0.0,0.0,0.0,0.0,0.0,0.0,0.0,0.0,0.0,0.0,0.0,0.0,0.0,0.0,0.0,0.0,0.0,0.0,0.0,0.0,0.0,0.0,0.0,0.0,0.0,0.0,0.0,0.0,0.0,0.0,0.0,0.0,0.0,7.2245,0.0,0.0,0.0,0.0,0.0,0.0,0.0,0.0,0.0,0.0,0.0,0.0,0.0,0.0,0.0,0.0,0.0,0.0,0.0,0.0,0.0,0.0,0.0,0.0,0.0,0.0,0.0,0.0,0.0,0.0,0.0,0.0,0.0,0.0,0.0,0.0,0.0,0.0,0.0,0.0,0.0,0.0,0.0,0.0,0.0,0.0,0.0,0.0,0.0,0.0,0.0,0.0,0.0,0.0,0.0,0.0,0.0,0.0,0.0,7.8706,7.8745,8.0404,8.1301,8.1137,7.949,7.7929,0.0,0.0,0.0,0.0,0.0,0.0,0.0,0.0,0.0,0.0,0.0,0.0,0.0,0.0,0.0,0.0,0.0,0.0,0.0,0.0,0.0,0.0,0.0,0.0,0.0,0.0,0.0,0.0,0.0,0.0,0.0,0.0,0.0,0.0,0.0,0.0,0.0,0.0,0.0,0.0,0.0,0.0,0.0,0.0,0.0,0.0,0.0,0.0,0.0,0.0,0.0,0.0,0.0,0.0,0.0,0.0,0.0,0.0,0.0,0.0,0.0,0.0,0.0,0.0,0.0,0.0,0.0,0.0,0.0,0.0,0.0,0.0,0.0,0.0,0.0,0.0,0.0,0.0,0.0,0.0,0.0,0.0,0.0,0.0,0.0,0.0,0.0,0.0,0.0,0.0,0.0,0.0,0.0,0.0,0.0,0.0,0.0,0.0,0.0,0.0,0.0,0.0,0.0,0.0,0.0,0.0,0.0,7.7035,7.8733,7.881,8.0431,8.133,8.1205,7.9548,7.8286,7.7468,0.0,0.0,0.0,0.0,0.0,0.0,0.0,0.0,0.0,0.0,0.0,0.0,0.0,0.0,0.0,0.0,0.0,0.0,0.0,0.0,0.0,0.0,0.0,0.0,0.0,0.0,0.0,0.0,0.0,0.0,0.0,0.0,0.0,0.0,0.0,0.0,0.0,0.0,6.9807,7.1642,0.0,0.0,0.0,0.0,0.0,0.0,0.0,0.0,7.4053,0.0,0.0,0.0,0.0,0.0,0.0,0.0,0.0,0.0,0.0,0.0,0.0,0.0,0.0,0.0,0.0,0.0,0.0,0.0,0.0,0.0,0.0,0.0,0.0,0.0,0.0,0.0,0.0,0.0,0.0,0.0,0.0,0.0,0.0,0.0,0.0,0.0,0.0,0.0,0.0,0.0,0.0,0.0,0.0,0.0,0.0,0.0,0.0,0.0,0.0,0.0,0.0,0.0,0.0,0.0,0.0,7.3899,7.7225,7.8965,7.8965,8.0589,8.1427,8.1335,7.9698,7.864,7.8286,0.0,0.0,0.0,0.0,0.0,0.0,0.0,0.0,0.0,0.0,0.0,0.0,0.0,0.0,0.0,0.0,0.0,0.0,0.0,0.0,0.0,0.0,0.0,0.0,0.0,0.0,0.0,0.0,0.0,0.0,0.0,0.0,0.0,0.0,0.0,0.0,0.0,0.0,0.0,7.275,7.3586,0.0,0.0,0.0,0.0,0.0,0.0,0.0,0.0,7.3168,0.0,0.0,0.0,0.0,0.0,0.0,0.0,0.0,0.0,0.0,0.0,0.0,0.0,0.0,0.0,0.0,0.0,0.0,0.0,0.0,0.0,0.0,0.0,0.0,0.0,0.0,0.0,0.0,0.0,0.0,0.0,0.0,0.0,0.0,0.0,0.0,0.0,0.0,0.0,0.0,0.0,0.0,0.0,0.0,0.0,0.0,0.0,0.0,0.0,0.0,0.0,0.0,0.0,0.0,0.0,7.4077,7.7248,7.9028,7.9067,8.0614,8.1453,8.1362,7.9752,7.8745,0.0,0.0,0.0,0.0,0.0,0.0,0.0,0.0,0.0,0.0,0.0,0.0,0.0,0.0,0.0,0.0,0.0,0.0,0.0,0.0,0.0,0.0,0.0,0.0,0.0,0.0,0.0,0.0,0.0,0.0,0.0,0.0,0.0,0.0,0.0,0.0,0.0,0.0,0.0,0.0,7.3012,7.3658,7.5436,0.0,0.0,0.0,0.0,0.0,0.0,7.4668,7.3976,0.0,0.0,0.0,0.0,0.0,0.0,0.0,0.0,0.0,0.0,0.0,0.0,0.0,0.0,0.0,0.0,0.0,0.0,0.0,0.0,0.0,0.0,0.0,0.0,0.0,0.0,0.0,0.0,0.0,0.0,0.0,0.0,0.0,0.0,0.0,0.0,0.0,0.0,0.0,0.0,0.0,0.0,0.0,0.0,0.0,0.0,0.0,0.0,0.0,0.0,0.0,0.0,0.0,0.0,0.0,7.3999,7.7287,7.9028,7.9067,8.0653,8.1478,8.1388,7.9778,7.8837,0.0,0.0,0.0,0.0,0.0,0.0,0.0,0.0,0.0,0.0,0.0,0.0,0.0,0.0,0.0,0.0,0.0,0.0,0.0,0.0,0.0,0.0,0.0,0.0,0.0,0.0,0.0,0.0,0.0,0.0,0.0,0.0,0.0,0.0,0.0,0.0,0.0,0.0,0.0,0.0,0.0,7.3921,7.5699,7.5808,0.0,0.0,0.0,0.0,7.5976,7.5438,0.0,0.0,0.0,0.0,0.0,0.0,0.0,0.0,0.0,0.0,0.0,0.0,0.0,0.0,0.0,0.0,0.0,0.0,0.0,0.0,0.0,0.0,0.0,0.0,0.0,0.0,0.0,0.0,0.0,0.0,0.0,0.0,0.0,0.0,0.0,0.0,0.0,0.0,0.0,0.0,0.0,0.0,0.0,0.0,0.0,0.0,0.0,0.0,0.0,0.0,0.0,0.0,0.0,0.0,0.0,0.0,7.3999,7.7287,7.9028,7.9067,8.0653,8.1504,8.144,7.9804,7.8863,0.0,0.0,0.0,0.0,0.0,0.0,0.0,0.0,0.0,0.0,0.0,0.0,0.0,0.0,0.0,0.0,0.0,0.0,0.0,0.0,0.0,0.0,0.0,0.0,0.0,0.0,0.0,0.0,0.0,0.0,0.0,0.0,0.0,0.0,0.0,0.0,0.0,0.0,0.0,0.0,0.0,7.49,7.6552,7.6261,7.6164,0.0,0.0,7.5976,7.5976,7.5899,0.0,0.0,0.0,0.0,0.0,0.0,0.0,0.0,0.0,0.0,0.0,0.0,0.0,0.0,0.0,0.0,0.0,0.0,0.0,0.0,0.0,0.0,0.0,0.0,0.0,0.0,0.0,0.0,0.0,0.0,0.0,0.0,0.0,0.0,0.0,0.0,0.0,0.0,0.0,0.0,0.0,0.0,0.0,0.0,0.0,0.0,0.0,0.0,0.0,0.0,0.0,0.0,0.0,0.0,0.0,7.3883,7.4038,7.7248,7.9028,7.9067,8.0653,8.1504,8.1504,7.9854,7.8889,0.0,0.0,0.0,0.0,0.0,0.0,0.0,0.0,0.0,0.0,0.0,0.0,0.0,0.0,0.0,0.0,0.0,0.0,0.0,0.0,0.0,0.0,0.0,0.0,0.0,0.0,0.0,0.0,0.0,0.0,0.0,0.0,0.0,0.0,0.0,0.0,0.0,0.0,0.0,0.0,0.0,0.0,7.6875,7.7208,0.0,0.0,0.0,7.7284,7.6784,0.0,0.0,0.0,0.0,0.0,0.0,0.0,0.0,0.0,0.0,0.0,0.0,0.0,0.0,0.0,0.0,0.0,0.0,0.0,0.0,0.0,0.0,0.0,0.0,0.0,0.0,0.0,0.0,0.0,0.0,0.0,0.0,0.0,0.0,0.0,0.0,0.0,0.0,0.0,0.0,0.0,0.0,0.0,0.0,0.0,0.0,0.0,0.0,0.0,0.0,0.0,0.0,0.0,0.0,0.0,0.0,0.0,7.396,7.7248,7.9028,7.9067,8.0614,8.1504,8.1504,7.9879,0.0,0.0,0.0,0.0,0.0,0.0,0.0,0.0,0.0,0.0,0.0,0.0,0.0,0.0,0.0,0.0,0.0,0.0,0.0,0.0,0.0,0.0,0.0,0.0,0.0,0.0,0.0,6.6436,0.0,0.0,0.0,0.0,0.0,0.0,0.0,0.0,0.0,0.0,0.0,0.0,0.0,0.0,7.644,7.7316,7.8,7.8531,0.0,0.0,7.8207,7.7438,7.7284,7.6976,0.0,0.0,0.0,0.0,0.0,0.0,0.0,0.0,0.0,0.0,0.0,0.0,0.0,0.0,0.0,0.0,0.0,0.0,0.0,0.0,0.0,0.0,0.0,0.0,0.0,0.0,0.0,0.0,0.0,0.0,0.0,0.0,0.0,0.0,0.0,0.0,0.0,0.0,0.0,0.0,0.0,0.0,0.0,0.0,0.0,0.0,0.0,0.0,0.0,0.0,0.0,0.0,0.0,0.0,0.0,7.3999,7.7248,7.9028,7.9067,8.0653,8.1504,8.1504,7.9879,7.8965,0.0,0.0,0.0,0.0,0.0,0.0,0.0,0.0,0.0,0.0,0.0,0.0,0.0,0.0,0.0,0.0,0.0,0.0,0.0,0.0,0.0,0.0,0.0,0.0,0.0,0.0,0.0,0.0,0.0,0.0,0.0,0.0,0.0,0.0,0.0,0.0,0.0,0.0,0.0,0.0,0.0,7.7447,7.8231,7.8416,7.8784,0.0,0.0,7.8207,7.7438,7.7323,7.7015,7.613,0.0,0.0,0.0,0.0,0.0,0.0,0.0,0.0,0.0,0.0,0.0,0.0,0.0,0.0,0.0,0.0,0.0,0.0,0.0,0.0,0.0,0.0,0.0,0.0,0.0,0.0,0.0,0.0,0.0,0.0,0.0,0.0,0.0,0.0,0.0,0.0,0.0,0.0,0.0,0.0,0.0,0.0,0.0,0.0,0.0,0.0,0.0,0.0,0.0,0.0,0.0,0.0,0.0,7.3883,7.3922,7.7248,7.9028,7.9067,8.0653,8.1504,8.1504,7.9879,7.8965,0.0,0.0,0.0,0.0,0.0,0.0,0.0,0.0,0.0,0.0,0.0,0.0,0.0,0.0,0.0,0.0,0.0,0.0,0.0,0.0,0.0,0.0,0.0,0.0,0.0,0.0,0.0,0.0,6.7859,6.8475,6.8667,0.0,0.0,0.0,0.0,0.0,0.0,0.0,0.0,0.0,0.0,7.813,7.8446,7.9408,0.0,0.0,8.0323,7.9785,7.8977,7.84,7.7746,7.6938,7.563,0.0,0.0,0.0,0.0,0.0,0.0,0.0,0.0,0.0,0.0,0.0,0.0,0.0,0.0,0.0,0.0,0.0,0.0,0.0,0.0,0.0,0.0,0.0,0.0,0.0,0.0,0.0,0.0,0.0,0.0,0.0,0.0,0.0,0.0,0.0,0.0,0.0,0.0,0.0,0.0,0.0,0.0,0.0,0.0,0.0,0.0,0.0,0.0,0.0,0.0,0.0,0.0,7.4038,7.427,7.7403,7.9105,7.9376,8.0769,8.1504,8.1465,8.0111,7.9235,0.0,0.0,0.0,0.0,0.0,0.0,0.0,0.0,0.0,0.0,0.0,0.0,0.0,0.0,0.0,0.0,0.0,0.0,0.0,0.0,0.0,0.0,0.0,0.0,0.0,0.0,0.0,0.0,6.7782,6.8359,6.9206,0.0,0.0,0.0,0.0,0.0,0.0,0.0,0.0,0.0,0.0,7.8507,7.8545,8.0008,8.1093,8.1093,8.1093,8.0785,7.9939,7.9285,7.8515,7.7476,0.0,0.0,0.0,0.0,0.0,0.0,0.0,0.0,0.0,0.0,0.0,0.0,0.0,0.0,0.0,0.0,0.0,0.0,0.0,0.0,0.0,0.0,0.0,0.0,0.0,0.0,0.0,0.0,0.0,0.0,0.0,0.0,0.0,0.0,0.0,0.0,0.0,0.0,0.0,0.0,0.0,0.0,0.0,0.0,0.0,0.0,0.0,0.0,0.0,0.0,0.0,0.0,0.0,0.0,7.5121,7.7674,7.9376,8.015,8.1039,8.1504,8.1504,8.0653,7.9801,7.895,0.0,0.0,0.0,0.0,0.0,0.0,0.0,0.0,0.0,0.0,0.0,0.0,0.0,0.0,0.0,0.0,0.0,0.0,0.0,0.0,0.0,0.0,0.0,0.0,0.0,0.0,6.8552,6.7628,6.7513,0.0,0.0,0.0,0.0,0.0,0.0,0.0,0.0,0.0,0.0,7.7004,7.8594,7.8633,8.0038,8.1093,8.1093,8.1093,8.0823,7.9977,7.9785,7.9208,0.0,0.0,0.0,0.0,0.0,0.0,0.0,0.0,0.0,0.0,0.0,0.0,0.0,0.0,0.0,0.0,0.0,0.0,0.0,0.0,0.0,0.0,0.0,0.0,0.0,0.0,0.0,7.3032,7.3032,0.0,0.0,0.0,0.0,0.0,0.0,0.0,0.0,0.0,0.0,0.0,7.3883,7.3883,0.0,0.0,0.0,0.0,0.0,0.0,0.0,0.0,0.0,0.0,0.0,0.0,7.4579,7.5972,7.7983,7.9415,8.0188,8.1039,8.1504,8.1504,8.0653,7.9274,7.7253,0.0,0.0,0.0,0.0,0.0,0.0,0.0,0.0,0.0,0.0,0.0,0.0,0.0,0.0,0.0,0.0,0.0,0.0,0.0,0.0,0.0,0.0,0.0,0.0,0.0,7.0516,0.0,0.0,0.0,0.0,0.0,0.0,0.0,0.0,0.0,0.0,0.0,7.4398,7.6353,7.7792,7.8844,7.9404,8.0414,8.1154,0.0,0.0,0.0,0.0,0.0,0.0,0.0,0.0,0.0,0.0,0.0,0.0,0.0,0.0,7.7053,7.6515,7.5686,7.4827,7.4221,0.0,0.0,0.0,0.0,0.0,0.0,0.0,0.0,0.0,0.0,0.0,0.0,0.0,0.0,0.0,0.0,7.3883,0.0,0.0,0.0,0.0,0.0,0.0,0.0,0.0,7.4309,7.4657,7.5198,7.5237,7.5237,0.0,7.4928,7.4309,0.0,0.0,0.0,0.0,0.0,0.0,0.0,0.0,7.516,7.6823,7.8254,7.9531,8.0614,8.1194,8.1504,8.1504,8.0653,7.9274,7.7267,7.6019,7.4552,0.0,0.0,0.0,0.0,0.0,0.0,0.0,0.0,0.0,0.0,0.0,0.0,0.0,0.0,0.0,0.0,0.0,0.0,0.0,0.0,0.0,0.0,0.0,7.0439,0.0,0.0,0.0,0.0,0.0,0.0,0.0,0.0,0.0,7.3549,7.3961,7.5015,7.728,7.8219,7.9042,7.9874,0.0,0.0,0.0,0.0,0.0,0.0,0.0,8.0169,7.9862,7.9323,7.8938,7.8938,7.9169,7.94,7.94,0.0,0.0,7.7908,7.7162,7.6562,7.589,7.5149,7.4442,7.4066,7.3496,7.2951,0.0,0.0,0.0,0.0,0.0,0.0,0.0,0.0,7.4115,7.4115,0.0,7.4115,0.0,0.0,0.0,0.0,0.0,0.0,0.0,0.0,7.5237,7.6127,7.7635,7.7713,7.7713,7.7674,7.6862,7.6011,7.5121,7.3519,0.0,0.0,0.0,0.0,0.0,0.0,7.6011,7.7713,7.8602,7.984,8.1426,8.1504,8.1504,8.1504,8.0653,7.9816,7.8928,7.7177,7.5439,7.374,7.2762,0.0,0.0,0.0,0.0,0.0,0.0,0.0,0.0,0.0,0.0,0.0,0.0,0.0,0.0,0.0,0.0,0.0,0.0,0.0,0.0,6.9885,0.0,0.0,0.0,0.0,0.0,0.0,0.0,0.0,0.0,0.0,7.3751,7.4562,7.5707,7.7519,0.0,0.0,0.0,0.0,8.1214,8.1214,8.1154,8.1093,8.1093,8.1093,8.0823,8.0015,0.0,0.0,7.9823,8.0516,8.1054,8.1093,8.1016,8.0523,7.8814,7.8404,7.819,7.8045,7.7682,7.7379,7.6579,7.5352,7.4299,7.9415,0.0,0.0,0.0,0.0,7.7558,7.7558,7.7558,7.7558,7.721,7.663,7.663,0.0,0.0,0.0,0.0,0.0,0.0,7.6127,7.6978,7.7597,7.8138,7.8641,7.8602,7.8641,7.8602,7.8355,7.7814,7.6939,7.5856,7.4695,7.3535,0.0,0.0,0.0,0.0,7.6862,7.8564,7.9453,8.0382,8.1465,8.1504,8.1504,8.1504,8.0653,8.0086,7.9816,7.8091,7.6623,7.5478,7.3944,0.0,0.0,0.0,0.0,0.0,0.0,0.0,0.0,0.0,0.0,0.0,0.0,0.0,0.0,0.0,0.0,0.0,0.0,0.0,6.9779,7.0506,7.0899,0.0,0.0,0.0,0.0,0.0,0.0,0.0,0.0,0.0,7.4634,7.5484,7.6645,0.0,0.0,8.01,8.0898,8.1192,8.1291,8.1214,0.0,0.0,0.0,8.1093,8.1016,8.0746,8.0746,8.0746,8.0746,8.0939,8.1093,8.1093,8.1093,8.0869,8.0312,7.9594,7.899,7.842,7.7982,7.7722,7.734,7.6458,7.5527,8.1929,8.0923,7.9569,7.9028,7.9028,7.9028,7.9028,7.9028,7.9028,7.868,7.8216,7.8216,7.7442,7.6127,7.6127,0.0,0.0,0.0,7.7713,7.8216,7.8757,7.9183,7.9453,7.9453,7.9453,7.9492,7.9478,7.9052,7.8216,7.7674,7.6939,7.5933,0.0,0.0,7.5624,7.6823,7.8099,7.9415,7.9956,8.0614,8.1504,8.1504,8.1504,8.1504,8.1001,8.0575,8.0227,7.8812,7.746,7.6237,7.4483,7.3129,0.0,0.0,0.0,0.0,0.0,0.0,0.0,0.0,0.0,0.0,0.0,7.0952,7.0979,0.0,0.0,0.0,6.9408,6.9363,6.9872,7.0767,0.0,0.0,0.0,0.0,0.0,0.0,0.0,7.3032,7.3844,7.4695,7.5508,7.6668,7.7829,7.8873,7.9685,8.0473,8.1337,0.0,8.1374,8.1263,8.1244,8.1184,8.1154,8.1124,8.1093,8.1093,8.1093,8.1093,8.1093,8.1093,8.1093,8.1093,8.1093,8.1093,8.0991,8.0433,7.9872,7.934,7.9014,7.8714,7.8332,7.7414,7.6528,8.4173,8.3824,8.073,7.9376,7.9299,7.9299,7.926,7.9183,7.9221,7.9144,7.9105,7.9105,7.8602,7.779,7.779,0.0,0.0,7.868,7.9105,7.9105,7.9144,7.9569,8.0304,8.0304,8.0304,8.0304,8.028,7.9893,7.9105,7.9105,7.9067,7.895,7.7481,7.6668,7.6668,7.8254,7.9453,8.0188,8.0343,8.0846,8.1697,8.1658,8.162,8.162,8.1542,8.1117,8.0343,7.9379,7.813,7.6495,7.4676,7.3283,7.2322,0.0,0.0,0.0,0.0,0.0,0.0,0.0,0.0,0.0,0.0,0.0,0.0,0.0,0.0,0.0,6.9981,0.0,7.0015,7.0789,0.0,0.0,0.0,7.1407,7.1407,7.2181,7.3032,7.3883,0.0,0.0,0.0,0.0,7.8912,7.8989,7.9763,8.0614,8.1387,8.1453,8.14,8.14,8.1301,8.1214,8.1214,8.1154,8.1093,8.1093,8.1093,8.1093,8.1093,8.1093,8.1093,8.1093,8.1093,8.1093,8.1093,8.0926,8.0758,8.0573,8.043,8.0087,7.9209,7.8178,7.7182,8.4675,8.4018,8.3206,8.2509,8.189,8.189,8.1504,8.0923,8.0923,8.0536,7.9918,7.9893,7.9429,7.868,7.868,7.8718,7.8733,7.9531,7.9918,7.9956,8.0575,8.1001,8.1194,8.1194,8.1194,8.1194,8.1194,8.0769,7.9956,7.9918,7.9608,7.9028,7.9183,7.8989,7.8448,7.9415,8.0034,8.0188,8.1504,8.2587,8.3438,8.2819,8.2471,8.2471,8.1852,8.1426,8.1194,7.9688,7.8696,7.8207,7.5875,7.4137,7.3289,7.2195,0.0,0.0,0.0,0.0,0.0,0.0,0.0,0.0,0.0,7.1081,7.1106,0.0,6.9903,0.0,6.9971,7.0015,7.0015,7.0789,0.0,0.0,7.1872,7.2297,7.2297,7.3071,7.3883,7.4734,7.5005,7.543,7.6281,7.7326,7.8254,7.8912,8.0266,8.1271,8.1504,8.1478,8.1453,8.14,8.1358,8.1234,8.1214,8.1154,8.1093,8.1093,8.1093,8.1093,8.1093,8.1093,8.1093,8.1093,8.1093,8.1093,8.1093,8.0926,8.0792,8.0758,8.0616,8.0163,7.9286,7.837,7.7494,8.5643,8.5217,8.5217,8.4714,8.3902,8.3515,8.2896,8.2084,8.2084,8.162,8.0769,8.0357,7.9956,7.9531,7.9531,7.9531,7.9608,8.042,8.0769,8.0807,8.1271,8.1504,8.1504,8.1504,8.1504,8.1504,8.1504,8.1271,8.0807,8.0769,8.073,8.0691,8.1155,8.131,8.1271,8.1349,8.1349,8.1387,8.2664,8.3592,8.4057,8.3244,8.278,8.278,8.1929,8.1504,8.1504,7.9829,7.8915,7.8812,7.6276,7.4461,7.3625,7.2723,7.1618,0.0,0.0,0.0,0.0,0.0,0.0,0.0,0.0,0.0,0.0,0.0,7.0512,0.0,7.0535,0.0,7.0556,7.1021,7.1291,7.1291,7.2065,7.2607,7.2607,7.369,7.4618,7.5082,7.543,7.5856,7.6359,7.7171,7.7867,7.837,7.984,8.1078,8.1426,8.1504,8.1478,8.1453,8.1374,8.133,8.1244,8.1154,8.1093,8.1093,8.1093,8.1093,8.1093,8.1093,8.1093,8.1093,8.1093,8.1093,8.1093,8.0959,8.086,8.0788,8.0378,7.9853,7.9285,7.8253,7.7148,8.661,8.661,8.661,8.6184,8.541,8.4714,8.3824,8.278,8.278,8.2316,8.1465,8.0691,8.0382,8.0343,8.0382,8.0382,8.042,8.1155,8.1504,8.1504,8.1504,8.1504,8.1504,8.1504,8.1504,8.1504,8.162,8.1658,8.1658,8.1813,8.22,8.2935,8.2973,8.336,8.4057,8.3438,8.3089,8.3128,8.3863,8.4289,8.4405,8.3554,8.3051,8.2935,8.2122,8.162,8.1465,7.9879,7.8965,7.8838,7.6443,7.4694,7.3805,7.302,7.2146,0.0,7.1159,0.0,0.0,0.0,0.0,0.0,0.0,0.0,0.0,7.1291,7.1291,7.1291,7.1291,7.1291,7.1291,7.1291,7.1291,7.133,7.2181,7.2761,7.2839,7.4231,7.5276,7.5276,7.5933,7.6397,7.6397,7.7055,7.7519,7.7829,7.8912,8.015,8.1117,8.1426,8.1504,8.1504,8.1453,8.1347,8.1244,8.1154,8.1093,8.1093,8.1093,8.1093,8.1093,8.1093,8.1093,8.1093,8.1093,8.1093,8.1093,8.0991,8.0849,8.0734,7.9944,7.9305,7.9048,7.8014,7.6905,8.661,8.661,8.661,8.6494,8.6339,8.6184,8.4869,8.278,8.278,8.2316,8.1504,8.1349,8.1271,8.1233,8.1271,8.1271,8.1271,8.1426,8.1504,8.1504,8.1504,8.1504,8.1504,8.1504,8.1504,8.1581,8.2238,8.2548,8.2548,8.3244,8.367,8.3863,8.3863,8.394,8.4134,0.0,0.0,0.0,8.4985,8.541,8.6068,8.5294,8.4521,8.3863,8.3012,0.0,8.1504,7.9879,7.8989,7.8926,7.7098,0.0,0.0,0.0,0.0,0.0,0.0,0.0,0.0,0.0,0.0,0.0,7.1269,7.1291,7.1291,7.1291,7.1291,7.1291,7.1291,7.1291,7.1291,7.1291,7.1291,7.133,7.2723,7.3651,7.3728,7.5121,7.6127,7.6165,7.6281,7.6397,7.6397,7.6552,7.69,7.7558,7.7983,7.8796,8.0266,8.1039,8.1504,8.1504,8.1453,8.1347,8.1244,8.1214,8.1154,8.1124,8.1093,8.1093,8.1093,8.1093,8.1093,8.1093,8.1093,8.1093,8.1093,8.0991,8.0657,8.0043,7.9172,7.853,7.8458,7.7692,7.6772,8.661,0.0,8.661,8.661,0.0,8.661,8.5643,8.4018,8.4018,8.3322,8.2161,8.2122,8.189,8.1504,8.1504,8.1504,8.1504,8.1504,8.1504,8.1504,8.1504,8.1504,8.1542,8.1929,8.2161,8.2161,8.3012,8.3438,8.3476,8.3902,8.4289,8.4675,8.4675,8.4908,8.5333,8.572,8.5952,8.5952,8.5952,8.6145,8.6571,8.5759,8.4946,8.4134,0.0,0.0,0.0,0.0,0.0,0.0,0.0,0.0,0.0,0.0,0.0,7.3162,7.3085,7.2916,7.2561,7.2136,7.1927,7.1949,7.1562,7.1291,7.1291,7.1291,7.1291,7.1291,7.1291,7.1291,7.1291,7.1291,7.1291,7.1369,7.2452,7.3419,7.3922,7.5005,7.5933,7.632,7.6397,7.6397,7.6397,7.6397,7.6552,7.7016,7.7442,7.8138,7.9376,8.0343,8.0962,8.1426,8.1453,8.1374,8.1291,8.1263,8.1205,8.1184,8.1154,8.1124,8.1093,8.1093,8.1093,8.1093,8.1093,8.1093,8.1054,8.0715,8.0222,7.9754,7.8754,7.7916,7.7831,7.7155,7.63,8.6842,8.6803,8.6687,8.661,8.661,8.661,8.6184,8.5526,0.0,0.0,0.0,8.3012,8.2625,8.1968,8.1968,8.1968,8.1968,8.1968,8.1968,8.1968,8.1968,8.1968,8.2006,8.2703,8.3012,8.3051,8.3902,8.4289,8.4327,8.4443,8.4869,8.5488,8.5526,8.5913,8.6571,8.661,8.661,8.661,8.661,8.661,8.661,8.5875,8.514,8.4327,8.3476,8.2625,8.1774,8.073,7.9879,7.9221,7.836,7.7137,7.5591,7.5426,7.5001,7.4123,7.4045,7.403,7.3883,7.3226,7.2761,7.2607,7.1949,7.1485,7.1291,7.1291,7.1291,7.1291,7.1291,7.1291,7.1291,7.1291,7.1291,7.1291,7.2065,7.2916,7.3612,7.4386,7.5198,7.5972,7.6127,7.6243,7.6359,7.6397,7.6397,7.6475,7.6978,7.779,7.868,7.9801,8.0807,8.1387,8.1453,8.14,8.14,8.1347,8.1291,8.1205,8.1205,8.1214,8.1154,8.1124,8.1124,8.1154,8.1047,8.0885,8.0816,8.0192,7.9614,7.9481,7.843,7.7351,7.7213,7.6601,7.5994,8.7731,8.7654,8.6919,8.661,8.661,8.661,8.6532,8.63,8.4908,8.4134,8.3927,8.3902,8.3863,8.3747,8.3747,8.3747,8.3747,8.3747,8.3708,0.0,8.3747,8.3747,8.3747,8.3863,8.3902,8.3979,8.4753,8.514,8.5217,8.5875,8.63,8.6377,8.6416,8.6494,8.661,8.661,8.661,8.661,8.661,8.661,8.661,8.6494,8.6029,8.514,8.4327,8.3476,8.2625,8.1078,8.015,8.0034,7.926,7.837,7.7403,7.7302,7.6606,7.5098,7.4904,7.4657,7.396,7.3806,7.338,7.2684,7.2491,7.2104,7.1369,7.1291,7.1291,7.1291,7.1291,7.1291,7.1291,7.1291,7.1291,7.133,7.2065,7.2645,7.2839,7.3535,7.4386,7.516,7.5276,7.5624,7.6204,7.6359,7.6397,7.6397,7.6707,7.6978,7.8061,7.9879,8.1233,8.1504,8.1478,8.1453,8.135,8.14,8.1269,8.1291,8.1186,8.107,8.1041,8.1041,8.1041,8.1224,8.0579,8.0193,8.0116,7.945,7.8756,7.8139,7.7599,7.724,7.6661,7.6288,7.6145,8.8621,8.8505,8.7693,8.7306,8.7267,8.6803,8.661,8.6532,8.5797,8.5178,8.4753,8.4753,8.4521,8.4134,8.4095,8.4095,8.4095,8.4095,8.4095,8.4095,8.4095,8.4095,8.4134,8.4559,8.4753,8.483,8.5604,8.5991,8.6068,8.6416,8.661,8.661,8.661,8.6842,8.7306,8.7306,8.7538,8.7963,8.7074,8.661,8.661,8.661,8.6184,8.5333,8.4946,8.4134,8.2857,8.2045,8.1194,8.0227,7.984,7.926,7.8486,7.8409,7.7829,7.663,7.6514,7.6127,7.5314,7.4811,7.4193,7.338,7.2877,7.2452,7.2048,7.1562,7.1291,7.1291,7.1291,7.1291,7.1291,7.1291,7.1291,7.1291,7.1678,7.2065,7.2568,7.2916,7.3496,7.4309,7.485,7.5276,7.5662,7.6088,7.6397,7.6436,7.6746,7.7248,7.7674,7.9067,8.0304,8.073,8.1155,8.1246,8.0834,8.0757,8.0538,8.0138,7.9995,7.9968,7.9902,7.9902,7.9902,7.9864,7.9516,7.9324,7.9285,7.8629,7.7973,7.7679,7.71,7.6675,7.6378,7.6301,7.6276,8.9472,8.9395,8.8544,8.8196,8.8118,8.7267,8.6919,8.688,8.6687,8.6223,8.5643,8.5565,8.5256,8.4714,8.4675,8.4675,8.4675,8.4675,8.4675,8.4675,8.4675,8.4675,8.4714,8.5333,8.5565,8.5681,8.63,8.661,8.661,8.661,8.661,8.6648,8.6803,8.7228,8.7886,8.8118,8.8544,8.9047,8.7886,8.719,8.719,8.6996,8.6571,8.5913,8.5488,8.4675,8.3438,8.3012,8.2161,8.0885,8.0614,8.0111,7.9337,7.926,7.8873,7.8099,7.779,7.7326,7.6475,7.5779,7.5044,7.4231,7.338,7.28,7.2551,7.1816,7.1291,7.1291,7.1291,7.1291,7.1291,7.1291,7.1291,7.1291,7.1291,7.1562,7.2181,7.2297,7.2645,7.3496,7.4154,7.4618,7.5121,7.5701,7.6127,7.6436,7.7016,7.7365,7.7481,7.8177,7.895,7.9569,8.0343,8.0575,8.0034,7.9956,7.9661,7.8992,7.8992,7.9044,7.8941,7.8837,7.8798,7.8876,7.8644,7.849,7.8412,7.7795,7.7357,7.7214,7.6789,7.6427,7.6374,7.6397,7.6374,9.0284,9.0168,8.9395,8.9085,8.8931,8.8157,8.7809,8.7693,8.6958,8.6571,8.6494,8.6494,8.6416,8.6377,8.6339,8.63,8.63,8.6377,8.63,8.63,8.6377,8.6377,8.63,8.6416,8.6494,8.6494,8.6571,8.661,8.661,8.661,8.661,8.6687,8.7383,8.7809,8.8002,8.8698,8.9124,8.9201,8.9047,8.8969,8.8931,8.8196,8.777,8.7654,8.6107,8.5217,8.4946,8.3631,8.2741,8.2509,8.1774,8.1001,8.0227,8.0111,7.9724,7.8912,7.8138,7.7326,7.6514,7.632,7.5895,7.5044,7.4231,7.3458,7.2706,7.1855,7.1291,7.1291,7.1291,7.1291,7.1291,7.1291,7.1291,7.1291,7.1291,7.133,7.1446,7.1407,7.1756,7.2607,7.2916,7.3419,7.4734,7.5276,7.5624,7.632,7.6552,7.6668,7.6707,7.7287,7.7829,7.8061,7.868,7.9144,7.9067,7.9105,7.8989,7.8887,7.895,7.8771,7.8631,7.8708,7.8926,7.836,7.8191,7.778,7.7573,7.7109,7.6567,7.6683,7.649,7.6397,7.6397,7.6397,7.6374,9.1174,9.1097,9.0246,8.9627,8.9163,8.8814,8.866,8.8582,8.777,8.7383,8.7306,8.6842,8.661,8.661,8.661,8.661,8.661,8.661,8.661,8.661,8.661,8.661,8.661,8.661,8.661,8.661,8.661,8.661,8.661,8.661,8.688,8.7345,8.7731,8.8389,8.9317,8.9743,9.013,9.0671,9.0671,9.0671,9.0516,8.9356,8.8428,8.7886,8.719,8.63,8.5372,8.4598,8.3824,8.2896,8.2432,8.189,8.1001,8.0962,8.0575,7.9724,7.8448,7.7326,7.6436,7.6397,7.6243,7.5895,7.5082,7.427,7.3441,7.2568,7.1872,7.1369,7.1291,7.1291,7.1291,7.1291,7.1291,7.1291,7.1291,7.1291,7.1291,7.1291,7.1485,7.1833,7.2297,7.3032,7.4231,7.5276,7.5933,7.632,7.6397,7.6397,7.6436,7.6707,7.69,7.6939,7.7248,7.7674,7.8061,7.8216,7.8022,7.7635,7.7481,7.7442,7.7519,7.7481,7.7442,7.7481,7.7248,7.7016,7.69,7.6746,7.6397,7.6397,7.6397,7.6397,7.6397,7.6397,7.6397,9.1716,9.16,9.1019,9.04,8.9859,8.9627,8.9549,8.9433,8.8621,8.8118,8.7847,8.7228,8.6803,8.6648,8.661,8.661,8.661,8.661,8.661,8.661,8.661,8.661,8.661,8.661,8.661,8.661,8.661,8.661,8.6648,8.688,8.7306,8.7886,8.835,8.9201,9.0284,9.0594,9.1058,9.1638,9.1716,9.1716,9.1522,9.0516,8.9356,8.8389,8.8002,8.719,8.5759,8.5449,8.4753,8.3554,8.3051,8.2509,8.189,8.162,8.1117,8.0227,7.8873,7.7674,7.6823,7.6514,7.6397,7.632,7.5585,7.485,7.4231,7.3458,7.2607,7.1794,7.164,7.164,7.133,7.1291,7.1291,7.1291,7.1291,7.1291,7.1291,7.1291,7.1291,7.1369,7.1833,7.2684,7.3806,7.5082,7.6011,7.632,7.6397,7.6397,7.6397,7.6397,7.6436,7.6397,7.6397,7.6668,7.721,7.7326,7.6978,7.6707,7.6514,7.6552,7.6397,7.6397,7.6436,7.69,7.6514,7.6397,7.6552,7.6436,7.6397,7.6397,7.6397,7.6397,7.6397,7.6397,7.6397,9.1716,9.1716,9.1677,9.1561,9.1522,9.071,9.0362,9.0284,8.9511,8.8698,8.8079,8.7847,8.7383,8.6648,8.6648,8.661,8.661,8.661,8.661,8.661,8.661,8.661,8.661,8.661,8.661,8.661,8.661,8.6648,8.6726,8.7422,8.7886,8.8002,8.9433,9.0284,9.0555,9.1213,9.1638,9.1716,9.1716,9.1716,9.1716,9.16,9.071,8.924,8.835,8.7499,8.6571,8.5759,8.5256,8.514,8.367,8.278,8.2664,8.1968,8.1117,8.0227,7.9376,7.8525,7.7635,7.6862,7.6397,7.6281,7.5662,7.5082,7.4928,7.427,7.3496,7.2645,7.2529,7.222,7.1601,7.1485,7.1407,7.1369,7.133,7.1369,7.1291,7.1291,7.1291,7.1291,7.1485,7.2297,7.3728,7.4618,7.5546,7.6165,7.6397,7.6397,7.6397,7.6397,7.6397,7.6397,7.6397,7.6397,7.6475,7.6668,7.6591,7.6436,7.6397,7.6397,7.6397,7.6397,7.6397,7.6397,7.6397,7.6397,7.6397,7.6397,7.6397,7.6397,7.6397,7.6397,7.6397,7.6397,7.6397,9.1716,9.1716,9.1716,9.1716,9.1677,9.1367,9.1251,9.1174,9.0323,8.982,8.9356,8.8389,8.7731,8.7422,8.6842,8.661,8.661,8.661,8.661,8.661,8.661,8.661,8.661,8.661,8.661,8.661,8.661,8.6919,8.7422,8.777,8.8466,8.9433,9.0052,9.0671,9.1174,9.1522,9.1716,9.1716,9.1716,9.1716,9.1716,9.1716,9.1135,9.0014,8.9163,8.8041,8.6648,8.63,8.5875,8.5333,8.4211,8.336,8.278,8.2006,8.1117,8.0266,7.9453,7.8602,7.7751,7.69,7.6397,7.6359,7.6127,7.5662,7.5198,7.4811,7.4309,7.3651,7.3419,7.3226,7.2955,7.2491,7.2104,7.2142,7.2104,7.1872,7.1446,7.1291,7.1291,7.1369,7.1756,7.2645,7.3651,7.4618,7.543,7.6204,7.6397,7.6397,7.6397,7.6397,7.6397,7.6397,7.6397,7.6397,7.6397,7.6397,7.6397,7.6397,7.6397,7.6397,7.6397,7.6397,7.6397,7.6397,7.6397,7.6397,7.6397,7.6397,7.6397,7.6397,7.6397,7.6397,7.6397,7.6397,7.6397,9.1716,9.1716,9.1716,9.1716,9.1716,9.1716,9.1716,9.1638,9.1097,9.0671,9.0168,8.8931,8.8196,8.7809,8.6996,8.661,8.661,8.661,8.661,8.661,8.661,8.661,8.661,8.661,8.661,8.6687,8.6919,8.7345,8.7925,8.8466,8.9317,9.0323,9.0671,9.1097,9.1638,9.1716,9.1716,9.1716,9.1716,9.1716,9.1716,9.1716,9.129,9.0439,8.9627,8.8505,8.7074,8.6764,8.6377,8.572,8.4946,8.3979,8.2857,8.1968,8.1233,8.0614,7.9879,7.9028,7.8177,7.7326,7.6707,7.6397,7.6359,7.6088,7.5585,7.5508,7.5121,7.4502,7.427,7.4309,7.4193,7.3767,7.3303,7.3032,7.2761,7.2375,7.1794,7.1485,7.133,7.1369,7.1717,7.2607,7.369,7.4309,7.5198,7.6204,7.6397,7.6397,7.6397,7.6397,7.6397,7.6397,7.6397,7.6397,7.6397,7.6397,7.6397,7.6397,7.6397,7.6397,7.6397,7.6397,7.6397,7.6397,7.6397,7.6397,7.6397,7.6397,7.6397,7.6397,7.6397,7.6397,7.6397,7.6397,7.6397,9.1716,9.1716,9.1716,9.1716,9.1716,9.1716,9.1716,9.1677,9.1638,9.1174,9.0478,8.9549,8.8814,8.8002,8.719,8.6687,8.6726,8.6648,8.661,8.661,8.661,8.661,8.661,8.661,8.6687,8.6803,8.7538,8.7925,8.8196,8.9472,9.0284,9.0594,9.1251,9.16,9.1716,9.1716,9.1716,9.1716,9.1716,9.1716,9.1716,9.1716,9.1329,9.0516,8.9665,8.8814,8.7925,8.7074,8.6571,8.6455,8.5681,8.4521,8.2973,8.1968,8.1504,8.131,8.0614,7.9801,7.8989,7.8099,7.721,7.6552,7.6397,7.6359,7.6243,7.6243,7.5933,7.5276,7.5121,7.5121,7.5121,7.5044,7.4695,7.3999,7.3342,7.2877,7.2413,7.1794,7.1291,7.1291,7.1407,7.2065,7.3303,7.396,7.4657,7.5817,7.632,7.6397,7.6397,7.6397,7.6397,7.6397,7.6397,7.6397,7.6397,7.6397,7.6397,7.6397,7.6397,7.6397,7.6397,7.6397,7.6397,7.6397,7.6397,7.6397,7.6397,7.6397,7.6397,7.6397,7.6397,7.6397,7.6397,7.6397,7.6397,9.1716,9.1716,9.1716,9.1716,9.1716,9.1716,9.1716,9.1716,9.1716,9.1522,9.1174,9.04,8.9859,8.9356,8.8196,8.7499,8.7461,8.6919,8.661,8.6648,8.6648,8.6648,8.6648,8.6648,8.6919,8.7577,8.835,8.9085,8.9588,9.0168,9.0671,9.1251,9.1561,9.1716,9.1716,9.1716,9.1716,9.1716,9.1716,9.1716,9.1716,9.1716,9.1561,9.1174,8.9936,8.9047,8.8737,8.7383,8.6648,8.661,8.5759,8.4521,8.3012,8.1968,8.1542,8.1426,8.0691,7.984,7.9028,7.8216,7.7365,7.663,7.6397,7.6397,7.6397,7.6397,7.6281,7.5972,7.5972,7.6011,7.5972,7.6011,7.5585,7.4811,7.4463,7.3767,7.2684,7.1833,7.1369,7.1291,7.1291,7.1833,7.28,7.3419,7.4347,7.5353,7.6011,7.6397,7.6397,7.6397,7.6397,7.6397,7.6397,7.6397,7.6397,7.6397,7.6397,7.6397,7.6397,7.6397,7.6397,7.6397,7.6397,7.6397,7.6397,7.6397,7.6397,7.6397,7.6397,7.6397,7.6397,7.6397,7.6397,7.6397,7.6397,9.2644,9.2605,9.2644,9.2605,9.2605,9.2335,9.218,9.2141,9.1832,9.1716,9.1522,9.0787,9.04,9.013,8.8969,8.8389,8.8312,8.7809,8.7577,8.7422,8.6764,8.6764,8.7112,8.7461,8.7809,8.8428,8.924,8.9898,9.0362,9.0749,9.1174,9.1638,9.1716,9.1716,9.1716,9.1716,9.1793,9.2102,9.218,9.218,9.218,9.218,9.2025,9.1561,9.0362,8.9549,8.9124,8.7809,8.6919,8.6494,8.5526,8.4327,8.3283,8.22,8.1504,8.1387,8.1001,8.0343,7.9492,7.8718,7.779,7.7055,7.6591,7.6397,7.6397,7.6397,7.6397,7.6397,7.6359,7.6397,7.6359,7.6359,7.6127,7.5662,7.5237,7.4386,7.2877,7.1833,7.1369,7.1291,7.1291,7.1756,7.2491,7.338,7.4193,7.5005,7.5856,7.6397,7.6397,7.6397,7.6397,7.6397,7.6397,7.6397,7.6397,7.6397,7.6397,7.6397,7.6397,7.6397,7.6397,7.6397,7.6397,7.6397,7.6397,7.6397,7.6397,7.6397,7.6397,7.6397,7.6397,7.6397,7.6397,7.6397,7.6397,9.422,9.4191,9.422,9.4104,9.3959,9.334,9.307,9.2915,9.218,9.1898,9.1666,9.1008,9.0583,9.0351,8.9654,8.9267,8.9228,8.9035,8.8919,8.8571,8.7758,8.7371,8.8002,8.8737,8.9124,8.9356,9.0091,9.0478,9.0671,9.1251,9.1716,9.1716,9.1716,9.1716,9.1754,9.1754,9.2218,9.2799,9.2992,9.307,9.3031,9.2953,9.2605,9.1832,9.0865,8.9975,8.9163,8.8118,8.7306,8.6532,8.5178,8.4289,8.3786,8.2471,8.1658,8.1542,8.1504,8.0962,8.0227,7.9492,7.8602,7.7635,7.6978,7.6436,7.6436,7.6397,7.6397,7.6397,7.6397,7.6397,7.6397,7.6397,7.6359,7.6281,7.5585,7.4463,7.3032,7.2065,7.1601,7.1446,7.1407,7.1562,7.2375,7.3226,7.4154,7.485,7.574,7.6281,7.6397,7.6397,7.6397,7.6397,7.6397,7.6397,7.6397,7.6397,7.6397,7.6397,7.6397,7.6397,7.6397,7.6397,7.6397,7.6397,7.6397,7.6397,7.6397,7.6397,7.6397,7.6397,7.6397,7.6397,7.6397,7.6397,7.6397,9.4369,9.4276,9.4342,9.4315,9.4191,9.3959,9.391,9.385,9.3076,9.2754,9.2587,9.1915,9.1489,9.1411,9.0598,9.0249,9.0133,8.9629,8.928,8.9203,8.8893,8.8688,8.8996,8.9665,9.0091,9.0207,9.0865,9.1367,9.1367,9.16,9.1716,9.1716,9.1716,9.1716,9.1754,9.2335,9.276,9.307,9.365,9.3882,9.3804,9.334,9.2915,9.2605,9.1251,9.0091,8.9163,8.7731,8.688,8.6571,8.5604,8.4675,8.4057,8.3012,8.2122,8.162,8.1504,8.1155,8.0382,7.9995,7.9183,7.7906,7.7481,7.7055,7.6436,7.6397,7.6397,7.6397,7.6397,7.6397,7.6397,7.6397,7.6397,7.6281,7.5662,7.4966,7.427,7.3187,7.2258,7.222,7.1678,7.1523,7.1872,7.2955,7.396,7.4425,7.5392,7.6397,7.6397,7.6397,7.6397,7.6397,7.6397,7.6397,7.6397,7.6397,7.6397,7.6397,7.6397,7.6397,7.6397,7.6397,7.6397,7.6397,7.6397,7.6397,7.6397,7.6397,7.6397,7.6397,7.6397,7.6397,7.6397,7.6397,7.6397,9.5507,9.5441,9.5507,9.548,9.5349,9.4973,9.4845,9.4744,9.4047,9.3491,9.3167,9.2702,9.2237,9.1849,9.1345,9.1151,9.1074,9.0608,9.0415,9.0415,9.0415,9.0171,9.0121,9.0598,9.0997,9.1008,9.1445,9.1677,9.1677,9.1716,9.1716,9.1716,9.1716,9.187,9.2296,9.2721,9.3418,9.3998,9.4539,9.4733,9.4694,9.4307,9.3611,9.3108,9.1909,9.0903,8.9317,8.7886,8.6996,8.6532,8.5759,8.4946,8.4134,8.3244,8.2393,8.1581,8.1504,8.1271,8.0807,8.0459,7.9763,7.8834,7.8216,7.7519,7.6978,7.663,7.6397,7.6397,7.6397,7.6397,7.6397,7.6397,7.6397,7.632,7.5933,7.5508,7.516,7.3574,7.2761,7.2413,7.1872,7.1291,7.133,7.2839,7.3651,7.4231,7.5392,7.6049,7.6397,7.6397,7.6397,7.6397,7.6397,7.6397,7.6397,7.6397,7.6397,7.6397,7.6397,7.6397,7.6397,7.6397,7.6397,7.6397,7.6397,7.6397,7.6397,7.6397,7.6397,7.6397,7.6397,7.6397,7.6436,7.6591,7.6552,9.7031,9.7006,9.7031,9.7031,9.6812,9.6153,9.5804,9.5713,9.4951,9.42,9.3502,9.327,9.2673,9.1951,9.182,9.1873,9.1873,9.1703,9.1757,9.1718,9.1665,9.1369,9.0904,9.1334,9.1631,9.167,9.1705,9.1716,9.1716,9.1716,9.1716,9.1793,9.1793,9.2257,9.2837,9.3224,9.4114,9.5081,9.5506,9.5623,9.5584,9.5313,9.4539,9.3379,9.2412,9.1174,8.9511,8.8273,8.7499,8.661,8.5836,8.514,8.4327,8.3399,8.2587,8.1852,8.162,8.1504,8.1387,8.0769,8.0304,7.9879,7.8718,7.7906,7.7713,7.7171,7.6668,7.6707,7.6475,7.6397,7.6397,7.6397,7.6397,7.6359,7.6359,7.6011,7.5198,7.3806,7.2839,7.2684,7.1988,7.1523,7.1756,7.2684,7.3883,7.4038,7.5237,7.6127,7.6397,7.6397,7.6397,7.6397,7.6397,7.6397,7.6397,7.6397,7.6397,7.6397,7.6397,7.6397,7.6397,7.6397,7.6397,7.6397,7.6397,7.6397,7.6397,7.6397,7.6397,7.6397,7.6397,7.6475,7.6591,7.6823,7.69,9.713,9.7082,9.7052,9.7067,9.6993,9.6824,9.6732,9.6694,9.5879,9.5088,9.4357,9.3697,9.2921,9.2066,9.2066,9.2066,9.2028,9.2066,9.2066,9.2028,9.2066,9.1989,9.1734,9.1873,9.1863,9.1838,9.181,9.1782,9.1771,9.1782,9.1716,9.1832,9.2451,9.2837,9.3186,9.4269,9.5042,9.5584,9.6125,9.6435,9.628,9.5816,9.5042,9.3843,9.2141,9.0516,8.9356,8.835,8.7499,8.6803,8.6377,8.5836,8.4985,8.4211,8.336,8.2509,8.1852,8.1542,8.1465,8.1271,8.0885,8.0304,7.9801,7.9415,7.8718,7.7906,7.7481,7.7287,7.6823,7.6514,7.6397,7.6397,7.6397,7.6397,7.6397,7.632,7.6011,7.516,7.427,7.3612,7.2877,7.2104,7.1562,7.2993,7.3844,7.4115,7.5005,7.6165,7.6397,7.6397,7.6397,7.6397,7.6397,7.6397,7.6397,7.6397,7.6397,7.6397,7.6397,7.6397,7.6397,7.6397,7.6397,7.6397,7.6397,7.6397,7.6397,7.6397,7.6397,7.6397,7.6514,7.6862,7.7132,7.7248,7.7442,9.7199,9.7153,9.716,9.7114,9.7106,9.7091,9.7114,9.7076,9.6687,9.6011,9.5217,9.4402,9.3508,9.2692,9.2304,9.211,9.211,9.211,9.211,9.211,9.211,9.211,9.211,9.2005,9.1999,9.1951,9.1876,9.1851,9.1928,9.2197,9.2412,9.2401,9.3175,9.3804,9.4114,9.5081,9.5661,9.6125,9.6512,9.6822,9.6667,9.6358,9.539,9.4114,9.2141,9.0478,8.9279,8.8814,8.7847,8.6958,8.661,8.6223,8.5449,8.4869,8.4095,8.2935,8.2432,8.1852,8.1658,8.1504,8.131,8.0846,8.0459,8.0034,7.9492,7.8796,7.8138,7.7713,7.7287,7.69,7.6475,7.6397,7.6397,7.6397,7.6397,7.6397,7.6243,7.5624,7.5005,7.4425,7.3728,7.3148,7.3148,7.3728,7.4193,7.4657,7.5353,7.6397,7.6397,7.6397,7.6397,7.6397,7.6397,7.6397,7.6397,7.6397,7.6397,7.6397,7.6397,7.6397,7.6397,7.6397,7.6397,7.6397,7.6397,7.6397,7.6397,7.6397,7.663,7.6978,7.7248,7.7558,7.7867,7.8177,7.837,9.7264,9.7221,9.7199,9.7199,9.7199,9.7199,9.7199,9.7199,9.7199,9.6499,9.5723,9.4984,9.4013,9.3159,9.242,9.2148,9.2304,9.2382,9.2498,9.277,9.2809,9.2809,9.277,9.271,9.2688,9.241,9.2285,9.2247,9.2431,9.2897,9.3258,9.3412,9.4055,9.4646,9.5274,9.5661,9.6048,9.6628,9.6744,9.6822,9.6822,9.6667,9.5855,9.4191,9.2528,9.0942,8.9743,8.9163,8.8428,8.6919,8.6687,8.6223,8.572,8.5229,8.4765,8.3283,8.3128,8.2625,8.2045,8.1774,8.1697,8.1542,8.0885,8.0498,8.0227,7.9685,7.8989,7.837,7.7867,7.7248,7.6514,7.6397,7.6397,7.6397,7.6397,7.6397,7.6243,7.5701,7.5392,7.4966,7.4463,7.396,7.396,7.4309,7.4773,7.5237,7.5933,7.6397,7.6397,7.6397,7.6397,7.6397,7.6397,7.6397,7.6397,7.6397,7.6397,7.6397,7.6397,7.6397,7.6397,7.6397,7.6397,7.6397,7.6397,7.6397,7.6552,7.6746,7.7055,7.7558,7.7983,7.8293,7.868,7.9105,7.9299,9.7284,9.7302,9.7221,9.7199,9.7199,9.7199,9.7199,9.7199,9.7199,9.6305,9.5062,9.4751,9.3858,9.2692,9.2226,9.2498,9.2925,9.3159,9.3508,9.3974,9.4052,9.4013,9.3974,9.3935,9.4091,9.4052,9.3564,9.317,9.3264,9.3807,9.42,9.4291,9.4934,9.5525,9.5768,9.6164,9.6512,9.6744,9.6822,9.6822,9.6822,9.6512,9.5855,9.4191,9.2567,9.1251,9.0284,8.9511,8.8737,8.777,8.6996,8.6571,8.6223,8.5693,8.5152,8.4675,8.4134,8.3476,8.2741,8.2509,8.2161,8.1697,8.131,8.1271,8.1039,8.0536,7.9879,7.9337,7.837,7.7326,7.6475,7.6436,7.6397,7.6397,7.6397,7.6397,7.6359,7.6165,7.5817,7.5353,7.5005,7.4811,7.485,7.4928,7.5237,7.5546,7.5972,7.632,7.6397,7.6397,7.6397,7.6397,7.6397,7.6397,7.6397,7.6397,7.6397,7.6397,7.6397,7.6397,7.6397,7.6397,7.6397,7.6397,7.6436,7.6475,7.6668,7.7016,7.7558,7.8138,7.8564,7.9028,7.9569,8.0072,8.0343,9.7343,9.7363,9.7264,9.7242,9.7242,9.7221,9.7199,9.7199,9.716,9.6499,9.5489,9.4868,9.4013,9.2925,9.2226,9.2576,9.3314,9.3935,9.4285,9.4674,9.4674,9.4674,9.4751,9.4751,9.4674,9.4674,9.4557,9.4363,9.4124,9.4807,9.5111,9.5286,9.5907,9.625,9.6261,9.658,9.6783,9.6822,9.6822,9.6822,9.6667,9.6087,9.4926,9.4075,9.2644,9.1329,9.0439,8.9627,8.8776,8.7925,8.7074,8.6726,8.6494,8.6223,8.5759,8.5333,8.4946,8.4366,8.3515,8.3128,8.2548,8.2238,8.1813,8.1542,8.1426,8.1078,8.0653,7.9956,7.8757,7.7558,7.7132,7.6668,7.6436,7.6397,7.6397,7.6397,7.6397,7.6397,7.6088,7.574,7.5701,7.5624,7.5585,7.5662,7.574,7.5933,7.6165,7.6281,7.6359,7.6397,7.6397,7.6397,7.6397,7.6397,7.6397,7.6397,7.6397,7.6397,7.6397,7.6397,7.6436,7.6475,7.6436,7.6397,7.6436,7.6784,7.7055,7.7481,7.8099,7.8718,7.9299,7.9879,8.0498,8.0962,8.1117,9.7416,9.7381,9.7324,9.7343,9.7323,9.7264,9.7242,9.7242,9.7242,9.6621,9.5688,9.4988,9.425,9.3472,9.3063,9.318,9.3957,9.4734,9.5084,9.5356,9.5416,9.5299,9.5299,9.526,9.5416,9.5631,9.5861,9.5783,9.5217,9.5723,9.6027,9.615,9.6708,9.6926,9.6859,9.6803,9.6812,9.6812,9.6783,9.6822,9.6396,9.5197,9.4191,9.4037,9.2605,9.1367,9.0749,8.9704,8.8969,8.8118,8.7306,8.661,8.661,8.661,8.6261,8.5681,8.5565,8.5101,8.4405,8.3824,8.3322,8.2703,8.2122,8.1774,8.1504,8.1387,8.1078,8.015,7.9221,7.8061,7.7635,7.7055,7.663,7.6397,7.6397,7.6397,7.6397,7.6397,7.6397,7.6243,7.6397,7.6281,7.6049,7.6049,7.6088,7.6088,7.6281,7.632,7.6397,7.6397,7.6397,7.6397,7.6397,7.6397,7.6397,7.6397,7.6397,7.6397,7.6397,7.6397,7.6514,7.663,7.6668,7.6862,7.7248,7.7597,7.779,7.8099,7.8873,7.9569,8.015,8.0614,8.1039,8.1233,8.1349,9.7465,9.7377,9.7381,9.7401,9.7382,9.7382,9.7382,9.7343,9.7305,9.641,9.4912,9.4815,9.4309,9.3823,9.4212,9.4835,9.5418,9.5768,9.6195,9.6584,9.676,9.678,9.6954,9.7071,9.678,9.6741,9.6991,9.6616,9.6172,9.6599,9.6904,9.6912,9.6926,9.7057,9.6979,9.6926,9.687,9.687,9.6812,9.6822,9.6512,9.5081,9.4346,9.3766,9.2683,9.1638,9.1213,9.013,8.9201,8.8853,8.7461,8.6687,8.661,8.661,8.661,8.6494,8.6339,8.6068,8.5333,8.483,8.4134,8.3244,8.2625,8.22,8.1736,8.1465,8.1155,8.0304,7.9879,7.9221,7.8254,7.7674,7.7171,7.6823,7.6668,7.6552,7.6475,7.6397,7.6397,7.6397,7.6397,7.6397,7.6281,7.632,7.6359,7.6359,7.6397,7.6397,7.6397,7.6397,7.6397,7.6397,7.6397,7.6397,7.6397,7.6397,7.6591,7.6552,7.6591,7.663,7.7055,7.7365,7.7442,7.7713,7.8099,7.8332,7.8409,7.8873,7.9724,8.0304,8.073,8.1078,8.1426,8.1504,8.1504,9.7552,9.7496,9.7433,9.7398,9.7398,9.742,9.709,9.674,9.6623,9.5689,9.4405,9.4638,9.456,9.4462,9.5087,9.567,9.6137,9.6526,9.6935,9.7246,9.7401,9.7401,9.7362,9.7401,9.7401,9.744,9.7402,9.7227,9.6934,9.697,9.7238,9.7199,9.7153,9.7082,9.7057,9.7006,9.6926,9.6898,9.6812,9.6822,9.6358,9.5197,9.4191,9.4153,9.2567,9.187,9.1406,9.0594,8.9627,8.9163,8.7925,8.7112,8.6764,8.661,8.661,8.661,8.661,8.6416,8.6068,8.5604,8.4714,8.3747,8.3051,8.2393,8.1774,8.1504,8.1387,8.1001,8.0459,7.9801,7.9144,7.868,7.8332,7.7906,7.7326,7.7171,7.6978,7.6475,7.6397,7.6397,7.6397,7.6397,7.6397,7.6397,7.6397,7.6397,7.6397,7.6397,7.6397,7.6397,7.6397,7.6397,7.6397,7.6397,7.6397,7.6397,7.6939,7.7055,7.7287,7.7442,7.7945,7.8254,7.837,7.8641,7.9105,7.9183,7.9105,7.9531,8.0227,8.0769,8.1233,8.1387,8.1504,8.1504,8.1504,9.7622,9.7604,9.7481,9.7449,9.741,9.7221,9.6737,9.6153,9.588,9.5063,9.4401,9.4751,9.5197,9.5352,9.5958,9.6446,9.6503,9.7108,9.7342,9.742,9.7437,9.7437,9.7455,9.7455,9.7455,9.7455,9.7494,9.7416,9.7377,9.7381,9.7343,9.7304,9.7242,9.7176,9.713,9.7082,9.7031,9.6926,9.687,9.6812,9.6503,9.5081,9.4385,9.3727,9.276,9.1716,9.1561,9.0826,9.0014,8.9201,8.835,8.7422,8.6764,8.661,8.661,8.661,8.661,8.661,8.6377,8.5991,8.5256,8.4366,8.3322,8.2432,8.1697,8.1504,8.1504,8.1387,8.1001,8.0536,8.0111,7.9569,7.9144,7.8718,7.8332,7.8177,7.7906,7.7326,7.69,7.6862,7.6746,7.6397,7.6397,7.6397,7.6397,7.6397,7.6397,7.6397,7.6475,7.6514,7.6514,7.6552,7.6862,7.69,7.69,7.6978,7.7365,7.7674,7.7906,7.8177,7.8641,7.9028,7.926,7.9608,7.9995,8.0227,8.0266,8.0498,8.0691,8.1078,8.1387,8.1465,8.1504,8.1504,8.1504,9.7698,9.77,9.7539,9.7457,9.7379,9.66,9.6234,9.5884,9.526,9.491,9.4793,9.565,9.6,9.6273,9.6787,9.7199,9.7277,9.7394,9.7433,9.7449,9.7465,9.7481,9.7496,9.755,9.7564,9.7564,9.755,9.7564,9.7565,9.7474,9.7442,9.742,9.7343,9.7304,9.7264,9.7199,9.7106,9.7006,9.6926,9.6898,9.6444,9.5371,9.4375,9.3882,9.2721,9.1716,9.1638,9.0942,9.0168,8.9395,8.8582,8.7693,8.7035,8.6687,8.661,8.661,8.661,8.661,8.6494,8.6416,8.5991,8.5024,8.3786,8.2432,8.162,8.1542,8.1504,8.1504,8.1233,8.0962,8.0536,8.0111,7.9879,7.9569,7.926,7.8989,7.8641,7.8061,7.7674,7.7481,7.721,7.69,7.6823,7.6939,7.6514,7.6436,7.6746,7.6823,7.6823,7.6862,7.6784,7.69,7.7403,7.7597,7.7713,7.7945,7.8293,7.8602,7.8834,7.895,7.9183,7.9569,8.0111,8.0304,8.0653,8.1078,8.1349,8.1194,8.1155,8.1387,8.1504,8.1504,8.1504,8.1504,8.1504,9.7376,9.687,9.6792,9.6746,9.6706,9.5796,9.5119,9.4651,9.4301,9.4457,9.4963,9.582,9.6522,9.6951,9.7208,9.7465,9.7465,9.7465,9.7465,9.7481,9.7511,9.7564,9.7578,9.7604,9.7616,9.7604,9.7604,9.7604,9.76,9.7554,9.7544,9.7513,9.7465,9.7381,9.7324,9.7264,9.7199,9.713,9.7031,9.6979,9.6682,9.5814,9.4857,9.4237,9.3224,9.2218,9.1754,9.1406,9.071,8.9936,8.9124,8.8234,8.7345,8.6919,8.6648,8.661,8.661,8.661,8.661,8.6532,8.5991,8.4637,8.3438,8.2471,8.1736,8.1542,8.1504,8.1504,8.1504,8.1233,8.1155,8.1001,8.0846,8.0498,8.015,7.9879,7.9453,7.8912,7.8525,7.837,7.7983,7.7597,7.7558,7.7597,7.7016,7.6552,7.69,7.721,7.7326,7.7442,7.7519,7.7635,7.8138,7.8409,7.8525,7.8873,7.9221,7.9492,7.9763,7.9879,8.0072,8.0575,8.1039,8.1194,8.1155,8.1349,8.1465,8.1504,8.1504,8.1504,8.1504,8.1504,8.1504,8.1504,8.1504,9.7172,9.6412,9.6066,9.5934,9.5797,9.4913,9.4237,9.3755,9.3716,9.434,9.5314,9.621,9.6912,9.7379,9.7496,9.7496,9.7496,9.755,9.7511,9.7564,9.7591,9.7604,9.7616,9.7628,9.7639,9.7628,9.7611,9.7632,9.762,9.7628,9.762,9.7583,9.7538,9.7472,9.7377,9.7343,9.7284,9.7242,9.7153,9.7082,9.694,9.6088,9.5182,9.4408,9.3424,9.2584,9.1937,9.1589,9.1174,9.0362,8.9549,8.8737,8.7925,8.719,8.6726,8.661,8.661,8.661,8.661,8.6494,8.5952,8.4792,8.3824,8.2896,8.2122,8.1697,8.1504,8.1504,8.1504,8.1504,8.1504,8.1387,8.1349,8.1001,8.0846,8.0575,8.0304,7.9879,7.9569,7.9299,7.8796,7.8293,7.8293,7.8332,7.8138,7.7674,7.7829,7.8099,7.8138,7.8332,7.8525,7.8718,7.9028,7.9221,7.9376,7.984,8.0266,8.042,8.0653,8.0807,8.1078,8.1465,8.1504,8.1387,8.1387,8.1504,8.1504,8.1504,8.1504,8.1504,8.1504,8.1504,8.1504,8.1504,8.1504,9.7187,9.6327,9.5519,9.5144,9.4913,9.4121,9.3679,9.3613,9.3755,9.4651,9.6054,9.6951,9.7379,9.7496,9.7496,9.7511,9.7511,9.7578,9.7591,9.7591,9.7616,9.7628,9.7639,9.765,9.7689,9.77,9.7689,9.7682,9.768,9.7672,9.7695,9.7767,9.7753,9.771,9.7513,9.7426,9.7394,9.736,9.7245,9.7221,9.6982,9.633,9.5519,9.4641,9.3775,9.2909,9.2289,9.181,9.1357,9.0699,8.9859,8.9008,8.8157,8.7267,8.6803,8.661,8.661,8.661,8.661,8.661,8.6068,8.5256,8.4327,8.3592,8.278,8.2122,8.1581,8.1581,8.1504,8.1504,8.1504,8.1504,8.1504,8.1465,8.131,8.1155,8.0885,8.073,8.0382,8.0072,7.9492,7.8989,7.9028,7.9028,7.9105,7.9028,7.8989,7.8989,7.8989,7.9337,7.9647,7.9763,8.0034,8.0072,8.0304,8.0923,8.131,8.1426,8.1387,8.1387,8.1387,8.1465,8.1504,8.1504,8.1504,8.1504,8.1504,8.1504,8.1504,8.1504,8.1504,8.1504,8.1504,8.1504,8.1504,9.7176,9.6328,9.5465,9.4738,9.4129,9.327,9.2885,9.3055,9.4003,9.5158,9.621,9.7106,9.7496,9.7496,9.7564,9.7578,9.7578,9.7565,9.7577,9.7604,9.765,9.7678,9.77,9.7667,9.7706,9.7711,9.7672,9.7684,9.7693,9.7695,9.7695,9.7772,9.8158,9.8163,9.7739,9.7526,9.7448,9.7433,9.7394,9.7323,9.7266,9.6854,9.6221,9.5344,9.4419,9.3568,9.2677,9.2173,9.1643,9.1152,9.0416,8.9577,8.8737,8.7925,8.719,8.6803,8.6648,8.661,8.661,8.6532,8.6184,8.5526,8.4985,8.4173,8.3012,8.2587,8.2122,8.1697,8.1658,8.162,8.1504,8.1504,8.1504,8.1504,8.1426,8.1426,8.131,8.1233,8.1039,8.0846,8.0382,7.9956,7.984,8.0034,8.0111,8.0072,7.9995,7.984,7.9801,8.0459,8.0885,8.0885,8.1001,8.1039,8.1194,8.1387,8.1504,8.1465,8.1465,8.1465,8.1504,8.1504,8.1504,8.1504,8.1504,8.1504,8.1504,8.1504,8.1504,8.1504,8.1504,8.1504,8.1504,8.1504,8.1504,9.7193,9.632,9.5466,9.4608,9.3762,9.2897,9.2773,9.3392,9.4511,9.5589,9.6628,9.7305,9.7539,9.7578,9.7578,9.7591,9.7604,9.7628,9.7639,9.7639,9.7667,9.7689,9.7701,9.7672,9.7691,9.7695,9.7695,9.7694,9.7672,9.7706,9.7906,9.8266,9.8699,9.8593,9.8227,9.8091,9.7845,9.7728,9.7513,9.7418,9.7387,9.7147,9.6799,9.602,9.5195,9.4404,9.341,9.2663,9.2122,9.1735,9.1011,9.0261,8.9526,8.8571,8.7758,8.719,8.6752,8.6713,8.6636,8.6687,8.6378,8.599,8.5552,8.4792,8.3786,8.3476,8.2819,8.2316,8.2006,8.1736,8.162,8.162,8.1504,8.1504,8.1504,8.1504,8.1504,8.1426,8.1387,8.1233,8.1117,8.0807,8.0614,8.0962,8.1155,8.1078,8.1001,8.0769,8.0575,8.1078,8.1504,8.1465,8.1465,8.1349,8.1349,8.1465,8.1504,8.1504,8.1504,8.1504,8.1504,8.1504,8.1504,8.1504,8.1504,8.1504,8.1504,8.1504,8.1504,8.1504,8.1504,8.1504,8.1504,8.1504,8.1504,9.7206,9.6354,9.5489,9.4762,9.3945,9.3181,9.356,9.4909,9.4987,9.599,9.7526,9.755,9.7577,9.7604,9.7604,9.7628,9.7611,9.7661,9.7671,9.7698,9.7676,9.7691,9.7694,9.7694,9.7691,9.7706,9.7695,9.7672,9.7675,9.7682,9.8072,9.8775,9.9094,9.8995,9.8858,9.8828,9.8418,9.7923,9.7572,9.7533,9.7526,9.7418,9.7021,9.6386,9.5846,9.5027,9.4091,9.3264,9.2712,9.2043,9.1229,9.0753,8.9991,8.8945,8.8313,8.7668,8.6997,8.679,8.6674,8.6761,8.6723,8.6451,8.5913,8.5475,8.5011,8.4417,8.3759,8.3101,8.2675,8.2186,8.1838,8.1683,8.1528,8.1528,8.1528,8.1528,8.1528,8.1528,8.1528,8.1451,8.1451,8.1296,8.1282,8.1528,8.1553,8.1451,8.1296,8.1271,8.1117,8.1194,8.1504,8.1504,8.1504,8.1504,8.1504,8.1504,8.1504,8.1504,8.1504,8.1504,8.1504,8.1504,8.1504,8.1504,8.1504,8.1504,8.1504,8.1504,8.1504,8.1542,8.1542,8.1504,8.1504,8.1504,8.1504,9.7558,9.7245,9.64,9.5865,9.5563,9.4724,9.4637,9.5052,9.5085,9.604,9.7589,9.76,9.7611,9.7589,9.7667,9.765,9.7695,9.7676,9.7684,9.7691,9.7695,9.7689,9.768,9.7676,9.7701,9.7689,9.7675,9.7675,9.7714,9.7714,9.8182,9.8885,9.9666,9.9548,9.9446,9.958,9.8787,9.8043,9.7672,9.765,9.7611,9.7533,9.7226,9.6979,9.6437,9.5686,9.5126,9.3861,9.3253,9.2804,9.1975,9.1345,9.0468,8.9499,8.866,8.7226,8.6839,8.6747,8.6785,8.6785,8.6809,8.6809,8.6451,8.6025,8.5599,8.5188,8.4684,8.4064,8.3483,8.2995,8.2491,8.2181,8.1949,8.1833,8.1755,8.16,8.16,8.16,8.16,8.16,8.16,8.16,8.16,8.1624,8.1624,8.16,8.1577,8.1553,8.1528,8.1504,8.1504,8.1504,8.1504,8.1504,8.1504,8.1504,8.1504,8.1504,8.1504,8.1504,8.1504,8.1504,8.1504,8.1581,8.1658,8.162,8.1504,8.1658,8.2084,8.1658,8.162,8.1542,8.1542,8.1581,8.1542,9.7675,9.7558,9.6777,9.623,9.5808,9.5319,9.5268,9.5543,9.5597,9.6393,9.755,9.7643,9.7656,9.7628,9.7662,9.7672,9.7691,9.7693,9.7687,9.7687,9.7687,9.7672,9.7689,9.7675,9.7682,9.7675,9.7675,9.7675,9.7753,9.8182,9.869,9.9548,10.0368,10.0134,9.9907,9.9836,9.9185,9.8273,9.7695,9.7689,9.7676,9.761,9.7581,9.7436,9.6875,9.6589,9.6078,9.4578,9.3901,9.3357,9.2537,9.1828,9.0951,9.0035,8.8864,8.7584,8.6987,8.6871,8.6854,8.6877,8.6877,8.6877,8.6877,8.6605,8.635,8.6017,8.5452,8.4886,8.4366,8.3862,8.3319,8.2815,8.2505,8.2273,8.2001,8.173,8.1691,8.1691,8.1691,8.1691,8.1691,8.1691,8.1691,8.1691,8.1691,8.1646,8.1624,8.16,8.1577,8.1528,8.1504,8.1504,8.1504,8.1504,8.1504,8.1504,8.1504,8.1504,8.1504,8.1504,8.1504,8.1581,8.1581,8.1736,8.189,8.1929,8.2122,8.2509,8.278,8.2432,8.2316,8.2587,8.2393,8.1852,8.1774,9.7675,9.7636,9.6816,9.6191,9.5371,9.5449,9.5847,9.6472,9.6478,9.6953,9.7613,9.7695,9.7693,9.7691,9.7694,9.7695,9.7689,9.7672,9.7695,9.7675,9.7689,9.7682,9.7682,9.7675,9.7675,9.7675,9.7675,9.7714,9.7948,9.8416,9.9236,10.029,10.0993,10.0876,10.0251,10.0212,9.9439,9.8007,9.768,9.7689,9.7694,9.7693,9.7672,9.7667,9.744,9.7153,9.6368,9.5445,9.4528,9.3717,9.2926,9.2365,9.1311,9.0508,8.9221,8.8251,8.7498,8.7131,8.6998,8.6941,8.6961,8.6961,8.6982,8.6923,8.6747,8.6627,8.6101,8.5751,8.5247,8.482,8.4277,8.3656,8.3268,8.3074,8.288,8.2492,8.2221,8.2065,8.1794,8.1794,8.1794,8.1755,8.1755,8.1755,8.1755,8.1713,8.1691,8.1669,8.1701,8.1654,8.1644,8.162,8.1504,8.1504,8.1504,8.1504,8.1504,8.1504,8.1581,8.1504,8.1504,8.1581,8.1697,8.22,8.2741,8.2819,8.3012,8.3322,8.3554,8.3554,8.3554,8.3863,8.3515,8.2703,8.2471,9.7675,9.7675,9.7479,9.7245,9.7089,9.7089,9.7167,9.7362,9.7376,9.7472,9.7672,9.7706,9.7701,9.7695,9.7701,9.7706,9.7701,9.7695,9.7682,9.7675,9.7675,9.7675,9.7675,9.7675,9.7675,9.7675,9.7675,9.7714,9.7909,9.8612,9.947,10.0329,10.111,10.1227,10.0368,10.029,9.947,9.7831,9.7689,9.7701,9.7706,9.7687,9.7695,9.7694,9.7567,9.7539,9.6925,9.6334,9.5498,9.4651,9.3733,9.2615,9.1238,9.0711,8.9698,8.8533,8.8067,8.7622,8.7233,8.7059,8.702,8.702,8.702,8.702,8.6982,8.6961,8.6786,8.6475,8.6125,8.5698,8.5232,8.4611,8.4067,8.3951,8.3796,8.3291,8.2786,8.2398,8.1971,8.1932,8.1893,8.1893,8.1932,8.1912,8.1834,8.1814,8.1755,8.1773,8.1924,8.1918,8.2026,8.194,8.1581,8.1504,8.1504,8.1697,8.1813,8.1813,8.1852,8.1736,8.1658,8.2084,8.2587,8.3244,8.3708,8.3747,8.3786,8.3902,8.4095,8.4405,8.4521,8.4675,8.4521,8.3863,8.367,9.7675,9.7675,9.7675,9.7675,9.7675,9.7675,9.7675,9.7675,9.7675,9.7675,9.7675,9.7675,9.7675,9.7675,9.7675,9.7675,9.7675,9.7675,9.7675,9.7675,9.7675,9.7675,9.7675,9.7675,9.7675,9.7675,9.7675,9.7753,9.7948,9.9002,9.9978,10.0485,10.1266,10.15,10.0563,10.0173,9.9431,9.7792,9.7714,9.7675,9.7675,9.7701,9.7672,9.7684,9.7694,9.7652,9.7364,9.6797,9.5933,9.4808,9.3652,9.2744,9.1663,9.1083,9.0441,8.9527,8.8828,8.8108,8.7642,8.7292,8.7098,8.7098,8.702,8.702,8.702,8.6961,8.6961,8.669,8.6651,8.6301,8.6068,8.5524,8.5097,8.4903,8.4437,8.3893,8.3466,8.3039,8.2728,8.2573,8.2573,8.2534,8.2689,8.3155,8.3116,8.3213,8.3019,8.2844,8.2764,8.251,8.2522,8.2437,8.2157,8.1708,8.1591,8.1877,8.2238,8.2238,8.2277,8.2664,8.2973,8.3167,8.3554,8.4057,8.4443,8.4598,8.4637,8.4753,8.514,8.5565,8.5488,8.541,8.514,8.5024,8.4985,9.7675,9.7675,9.7675,9.7675,9.7675,9.7675,9.7675,9.7675,9.7675,9.7675,9.7675,9.7675,9.7675,9.7675,9.7675,9.7675,9.7675,9.7675,9.7675,9.7675,9.7675,9.7675,9.7675,9.7675,9.7675,9.7675,9.7675,9.787,9.8065,9.9314,10.029,10.072,10.1344,10.1969,10.0798,10.0134,9.947,9.8143,9.7675,9.7675,9.7675,9.7675,9.7682,9.7695,9.7672,9.7689,9.7422,9.6986,9.6144,9.4762,9.347,9.2596,9.2048,9.1528,9.1082,9.0402,8.9586,8.8944,8.838,8.772,8.7448,8.7215,8.7098,8.702,8.702,8.6982,8.6982,8.6982,8.6943,8.6865,8.6632,8.6438,8.6049,8.57,8.5117,8.4651,8.4223,8.3796,8.3485,8.3291,8.3252,8.3252,8.3563,8.4068,8.4262,8.4418,8.4437,8.4378,8.4164,8.3737,8.3501,8.3303,8.3048,8.2538,8.2166,8.2429,8.296,8.3076,8.3231,8.3786,8.4211,8.425,8.4366,8.4714,8.5024,8.5333,8.5604,8.5759,8.6184,8.6377,8.6223,8.5952,8.6029,8.5952,8.6223,9.7675,9.7675,9.7675,9.7675,9.7675,9.7675,9.7675,9.7675,9.7675,9.7675,9.7675,9.7675,9.7675,9.7714,9.7675,9.7753,9.7909,9.7831,9.7714,9.7675,9.7714,9.7714,9.7675,9.7675,9.7675,9.7714,9.7831,9.8143,9.8612,9.9705,10.0642,10.1266,10.2125,10.2008,10.0642,10.0056,9.9548,9.8338,9.7714,9.7675,9.7675,9.7675,9.7675,9.7682,9.7682,9.7706,9.7609,9.7539,9.6517,9.5073,9.3504,9.2664,9.2176,9.1971,9.1585,9.1139,9.0324,8.9877,8.9275,8.8536,8.8187,8.7817,8.7584,8.7118,8.7079,8.7001,8.7001,8.7001,8.6962,8.7001,8.6846,8.6846,8.6574,8.638,8.5991,8.5641,8.5292,8.4709,8.4242,8.4165,8.4165,8.4165,8.4242,8.4553,8.467,8.4786,8.4825,8.4806,8.4884,8.469,8.4515,8.4319,8.4065,8.3906,8.3746,8.3599,8.39,8.4016,8.4185,8.4663,8.5011,8.5062,8.5256,8.5488,8.5836,8.6184,8.6455,8.6377,8.6455,8.6532,8.6571,8.6532,8.661,8.661,8.661]},{"header":{"parameterUnit":"m.s-1","parameterCategory":1,"la1":31.0,"la2":29.5877,"lo1":-88.7671,"lo2":-86.6584,"dy":0.0162,"dx":0.0185,"nx":115,"ny":88,"refTime":"2023-10-04T12:00:00:Z","depth":0,"parameterNumber":3,"parameterNumberName":"V-component_of_WINDS"},"data":[0.0,0.0,0.0,0.0,0.0,0.0,0.0,0.0,0.0,0.0,0.0,0.0,0.0,0.0,0.0,0.0,0.0,0.0,0.0,0.0,0.0,0.0,0.0,0.0,0.0,0.0,0.0,0.0,0.0,0.0,0.0,0.0,0.0,0.0,0.0,0.0,0.0,0.0,0.0,0.0,0.0,0.0,0.0,0.0,0.0,0.0,0.0,0.0,0.0,0.0,0.0,0.0,0.0,0.0,0.0,0.0,0.0,0.0,0.0,0.0,0.0,0.0,0.0,0.0,0.0,0.0,0.0,0.0,0.0,0.0,0.0,0.0,0.0,0.0,0.0,0.0,0.0,0.0,0.0,0.0,0.0,0.0,0.0,0.0,0.0,0.0,0.0,0.0,0.0,0.0,0.0,0.0,0.0,0.0,0.0,0.0,0.0,0.0,0.0,0.0,0.0,0.0,0.0,0.0,0.0,0.0,0.0,0.0,0.0,0.0,0.0,0.0,0.0,0.0,0.0,0.0,0.0,0.0,0.0,0.0,0.0,0.0,0.0,0.0,0.0,0.0,0.0,0.0,0.0,0.0,0.0,0.0,0.0,0.0,0.0,0.0,0.0,0.0,0.0,0.0,0.0,0.0,0.0,0.0,0.0,0.0,0.0,0.0,0.0,0.0,0.0,0.0,0.0,0.0,0.0,0.0,0.0,0.0,0.0,0.0,0.0,0.0,0.0,0.0,0.0,0.0,0.0,0.0,0.0,0.0,0.0,0.0,0.0,0.0,0.0,0.0,0.0,0.0,0.0,0.0,0.0,0.0,0.0,0.0,0.0,0.0,0.0,0.0,0.0,0.0,0.0,0.0,0.0,0.0,0.0,0.0,0.0,0.0,0.0,0.0,0.0,0.0,0.0,0.0,0.0,0.0,0.0,0.0,0.0,0.0,0.0,0.0,0.0,0.0,0.0,0.0,0.0,0.0,0.0,0.0,0.0,0.0,0.0,0.0,0.0,0.0,0.0,0.0,0.0,0.0,0.0,0.0,0.0,0.0,0.0,0.0,0.0,0.0,0.0,0.0,0.0,0.0,0.0,0.0,0.0,0.0,0.0,0.0,0.0,0.0,0.0,0.0,0.0,0.0,0.0,0.0,0.0,0.0,0.0,0.0,0.0,0.0,0.0,0.0,0.0,0.0,0.0,0.0,0.0,0.0,0.0,0.0,0.0,0.0,0.0,0.0,0.0,0.0,0.0,0.0,0.0,0.0,0.0,0.0,0.0,0.0,0.0,0.0,0.0,0.0,0.0,0.0,0.0,0.0,0.0,0.0,0.0,0.0,0.0,0.0,0.0,0.0,0.0,0.0,0.0,0.0,0.0,0.0,0.0,0.0,0.0,0.0,0.0,0.0,0.0,0.0,0.0,0.0,0.0,0.0,0.0,0.0,0.0,0.0,0.0,0.0,0.0,0.0,0.0,0.0,0.0,0.0,0.0,0.0,0.0,0.0,0.0,0.0,0.0,0.0,0.0,0.0,0.0,0.0,0.0,0.0,0.0,0.0,0.0,0.0,0.0,0.0,0.0,0.0,0.0,0.0,0.0,0.0,0.0,0.0,0.0,0.0,0.0,0.0,0.0,0.0,0.0,0.0,0.0,0.0,0.0,0.0,0.0,0.0,0.0,0.0,0.0,0.0,0.0,0.0,0.0,0.0,0.0,0.0,0.0,0.0,0.0,0.0,0.0,0.0,0.0,0.0,0.0,0.0,0.0,0.0,0.0,0.0,0.0,0.0,0.0,0.0,0.0,0.0,0.0,0.0,0.0,0.0,0.0,0.0,0.0,0.0,0.0,0.0,0.0,0.0,0.0,0.0,0.0,0.0,0.0,0.0,0.0,0.0,0.0,0.0,0.0,0.0,0.0,0.0,0.0,0.0,0.0,0.0,0.0,0.0,0.0,0.0,0.0,0.0,0.0,0.0,0.0,0.0,0.0,0.0,0.0,0.0,0.0,0.0,0.0,0.0,0.0,0.0,0.0,0.0,0.0,0.0,0.0,0.0,0.0,0.0,0.0,0.0,0.0,0.0,0.0,0.0,0.0,0.0,0.0,0.0,0.0,0.0,0.0,0.0,0.0,0.0,0.0,0.0,0.0,0.0,0.0,0.0,0.0,0.0,0.0,0.0,0.0,0.0,0.0,0.0,0.0,0.0,0.0,0.0,0.0,0.0,0.0,0.0,0.0,0.0,0.0,0.0,0.0,0.0,0.0,0.0,0.0,0.0,0.0,0.0,0.0,0.0,0.0,0.0,0.0,0.0,0.0,0.0,0.0,0.0,0.0,0.0,0.0,0.0,0.0,0.0,0.0,0.0,0.0,0.0,0.0,0.0,0.0,0.0,0.0,0.0,0.0,0.0,0.0,0.0,0.0,0.0,0.0,0.0,0.0,0.0,0.0,0.0,0.0,0.0,0.0,0.0,0.0,0.0,0.0,0.0,0.0,0.0,0.0,0.0,0.0,0.0,0.0,0.0,0.0,0.0,0.0,0.0,0.0,0.0,0.0,0.0,0.0,0.0,0.0,0.0,0.0,0.0,0.0,0.0,0.0,0.0,0.0,0.0,0.0,0.0,0.0,0.0,0.0,0.0,0.0,0.0,0.0,0.0,0.0,0.0,0.0,0.0,0.0,0.0,0.0,0.0,0.0,0.0,0.0,0.0,0.0,0.0,0.0,0.0,0.0,0.0,0.0,0.0,0.0,0.0,0.0,0.0,0.0,0.0,0.0,0.0,0.0,0.0,0.0,0.0,0.0,0.0,0.0,0.0,0.0,0.0,0.0,0.0,0.0,0.0,0.0,0.0,0.0,0.0,0.0,0.0,0.0,0.0,0.0,0.0,0.0,0.0,0.0,0.0,0.0,0.0,0.0,0.0,0.0,0.0,0.0,0.0,0.0,0.0,0.0,0.0,0.0,0.0,0.0,0.0,0.0,0.0,0.0,0.0,0.0,0.0,0.0,0.0,0.0,0.0,0.0,0.0,0.0,0.0,0.0,0.0,0.0,0.0,0.0,0.0,0.0,0.0,0.0,0.0,0.0,0.0,0.0,0.0,0.0,0.0,0.0,0.0,0.0,0.0,0.0,0.0,0.0,0.0,0.0,0.0,0.0,0.0,0.0,0.0,0.0,0.0,0.0,0.0,0.0,0.0,0.0,0.0,0.0,0.0,0.0,0.0,0.0,0.0,0.0,0.0,0.0,0.0,0.0,0.0,0.0,0.0,0.0,0.0,0.0,0.0,0.0,0.0,0.0,0.0,0.0,0.0,0.0,0.0,0.0,0.0,0.0,0.0,0.0,0.0,0.0,0.0,0.0,0.0,0.0,0.0,0.0,0.0,0.0,0.0,0.0,0.0,0.0,0.0,0.0,0.0,0.0,0.0,0.0,0.0,0.0,0.0,0.0,0.0,0.0,0.0,0.0,0.0,0.0,0.0,0.0,0.0,0.0,0.0,0.0,0.0,0.0,0.0,0.0,0.0,0.0,0.0,0.0,0.0,0.0,0.0,0.0,0.0,0.0,0.0,0.0,0.0,0.0,0.0,0.0,0.0,0.0,0.0,0.0,0.0,0.0,0.0,0.0,0.0,0.0,0.0,0.0,0.0,0.0,0.0,0.0,0.0,0.0,0.0,0.0,0.0,0.0,0.0,0.0,0.0,0.0,0.0,0.0,0.0,0.0,0.0,0.0,0.0,0.0,0.0,0.0,0.0,0.0,0.0,0.0,0.0,0.0,0.0,0.0,0.0,0.0,0.0,0.0,0.0,0.0,0.0,0.0,0.0,0.0,0.0,0.0,0.0,0.0,0.0,0.0,0.0,0.0,0.0,0.0,0.0,0.0,0.0,0.0,0.0,0.0,0.0,0.0,0.0,0.0,0.0,0.0,0.0,0.0,0.0,0.0,0.0,0.0,0.0,0.0,0.0,0.0,0.0,0.0,0.0,0.0,0.0,0.0,0.0,0.0,0.0,0.0,0.0,0.0,0.0,0.0,0.0,0.0,0.0,0.0,0.0,0.0,0.0,0.0,0.0,0.0,0.0,0.0,0.0,0.0,0.0,0.0,0.0,0.0,0.0,0.0,0.0,0.0,0.0,0.0,0.0,0.0,0.0,0.0,0.0,0.0,0.0,0.0,0.0,0.0,0.0,0.0,0.0,0.0,0.0,0.0,0.0,0.0,0.0,0.0,0.0,0.0,0.0,0.0,0.0,0.0,0.0,0.0,0.0,0.0,0.0,0.0,0.0,0.0,0.0,-1.2712,0.0,0.0,0.0,0.0,0.0,0.0,0.0,0.0,0.0,0.0,0.0,0.0,0.0,0.0,0.0,0.0,0.0,0.0,0.0,0.0,0.0,0.0,0.0,0.0,0.0,0.0,0.0,0.0,0.0,0.0,0.0,0.0,0.0,0.0,0.0,0.0,0.0,0.0,0.0,0.0,0.0,0.0,0.0,0.0,0.0,0.0,0.0,0.0,0.0,0.0,0.0,0.0,0.0,0.0,0.0,0.0,0.0,0.0,0.0,0.0,0.0,0.0,0.0,0.0,0.0,0.0,0.0,0.0,0.0,0.0,0.0,0.0,0.0,0.0,0.0,0.0,0.0,0.0,0.0,0.0,0.0,0.0,0.0,0.0,0.0,0.0,0.0,0.0,0.0,0.0,0.0,0.0,0.0,0.0,0.0,0.0,0.0,0.0,0.0,0.0,0.0,0.0,0.0,0.0,0.0,0.0,0.0,0.0,0.0,0.0,-1.337,-1.3295,-1.3214,-1.3071,-1.2861,0.0,0.0,0.0,0.0,0.0,0.0,0.0,0.0,0.0,0.0,0.0,0.0,0.0,0.0,0.0,0.0,0.0,0.0,0.0,0.0,0.0,0.0,0.0,0.0,0.0,0.0,0.0,0.0,0.0,0.0,0.0,0.0,0.0,0.0,0.0,0.0,0.0,0.0,0.0,0.0,0.0,0.0,0.0,0.0,0.0,0.0,0.0,0.0,0.0,0.0,0.0,0.0,0.0,0.0,0.0,0.0,0.0,0.0,0.0,0.0,0.0,0.0,0.0,0.0,0.0,0.0,0.0,0.0,0.0,0.0,0.0,0.0,0.0,0.0,0.0,0.0,0.0,0.0,0.0,0.0,0.0,0.0,0.0,0.0,0.0,0.0,0.0,0.0,0.0,0.0,0.0,0.0,0.0,0.0,0.0,0.0,0.0,0.0,0.0,0.0,0.0,0.0,0.0,0.0,0.0,0.0,0.0,0.0,0.0,0.0,0.0,0.0,-1.3288,-1.3139,-1.2963,0.0,0.0,0.0,0.0,0.0,0.0,0.0,0.0,0.0,0.0,0.0,0.0,0.0,0.0,0.0,0.0,0.0,0.0,0.0,0.0,0.0,0.0,0.0,0.0,0.0,0.0,0.0,0.0,0.0,0.0,0.0,0.0,0.0,0.0,0.0,0.0,0.0,0.0,0.0,0.0,0.0,0.0,0.0,0.0,0.0,0.0,0.0,0.0,0.0,0.0,0.0,0.0,0.0,0.0,0.0,0.0,0.0,0.0,0.0,0.0,0.0,0.0,0.0,0.0,0.0,0.0,0.0,0.0,0.0,0.0,0.0,0.0,0.0,0.0,0.0,0.0,0.0,0.0,0.0,0.0,0.0,0.0,0.0,0.0,0.0,0.0,0.0,0.0,0.0,0.0,0.0,0.0,0.0,0.0,0.0,0.0,0.0,0.0,0.0,0.0,0.0,0.0,0.0,0.0,0.0,0.0,0.0,0.0,0.0,0.0,-1.3397,-1.3397,-1.3383,0.0,-1.2963,0.0,0.0,0.0,0.0,0.0,0.0,0.0,0.0,0.0,0.0,0.0,0.0,0.0,0.0,0.0,0.0,0.0,0.0,0.0,0.0,0.0,0.0,0.0,0.0,0.0,0.0,0.0,0.0,0.0,0.0,0.0,0.0,0.0,0.0,0.0,0.0,0.0,0.0,0.0,0.0,0.0,0.0,0.0,0.0,0.0,0.0,0.0,0.0,0.0,0.0,0.0,0.0,0.0,0.0,0.0,0.0,0.0,0.0,0.0,0.0,0.0,0.0,0.0,0.0,0.0,0.0,0.0,0.0,0.0,0.0,0.0,0.0,0.0,0.0,0.0,0.0,0.0,0.0,0.0,0.0,0.0,0.0,0.0,0.0,0.0,0.0,0.0,0.0,0.0,0.0,0.0,0.0,0.0,0.0,0.0,0.0,0.0,0.0,0.0,0.0,0.0,0.0,0.0,0.0,0.0,0.0,0.0,0.0,0.0,0.0,-1.3397,-1.3397,-1.3234,-1.3085,0.0,0.0,0.0,0.0,0.0,0.0,0.0,0.0,0.0,0.0,0.0,0.0,0.0,0.0,0.0,0.0,0.0,0.0,0.0,0.0,0.0,0.0,0.0,0.0,0.0,0.0,0.0,0.0,0.0,0.0,0.0,0.0,0.0,0.0,0.0,0.0,0.0,0.0,0.0,0.0,0.0,0.0,0.0,0.0,0.0,0.0,0.0,0.0,0.0,0.0,0.0,0.0,0.0,0.0,0.0,0.0,0.0,0.0,0.0,0.0,0.0,0.0,0.0,0.0,0.0,0.0,0.0,0.0,0.0,0.0,0.0,0.0,0.0,0.0,0.0,0.0,0.0,0.0,0.0,0.0,0.0,0.0,0.0,0.0,0.0,0.0,0.0,0.0,0.0,0.0,0.0,0.0,0.0,0.0,0.0,0.0,0.0,0.0,0.0,0.0,0.0,0.0,0.0,0.0,0.0,0.0,0.0,0.0,0.0,0.0,-1.3281,-1.3356,-1.3383,-1.3112,-1.2963,-1.2963,0.0,0.0,0.0,0.0,0.0,0.0,0.0,0.0,0.0,0.0,0.0,0.0,0.0,0.0,0.0,0.0,0.0,0.0,0.0,0.0,0.0,0.0,0.0,0.0,0.0,0.0,0.0,0.0,0.0,0.0,0.0,0.0,0.0,0.0,0.0,0.0,0.0,0.0,0.0,0.0,0.0,0.0,0.0,0.0,0.0,0.0,0.0,0.0,0.0,0.0,0.0,0.0,0.0,0.0,0.0,0.0,0.0,0.0,0.0,0.0,0.0,0.0,0.0,0.0,0.0,0.0,0.0,0.0,0.0,0.0,0.0,0.0,0.0,0.0,0.0,0.0,0.0,0.0,0.0,0.0,0.0,0.0,0.0,0.0,0.0,0.0,0.0,0.0,0.0,0.0,0.0,0.0,0.0,0.0,0.0,0.0,0.0,0.0,0.0,0.0,0.0,0.0,0.0,0.0,0.0,0.0,0.0,0.0,-1.3159,-1.318,-1.3254,-1.339,-1.3112,-1.2963,0.0,0.0,0.0,0.0,0.0,0.0,0.0,0.0,0.0,0.0,0.0,0.0,0.0,0.0,0.0,0.0,0.0,0.0,0.0,0.0,0.0,0.0,0.0,0.0,0.0,0.0,0.0,0.0,0.0,0.0,0.0,0.0,0.0,0.0,0.0,0.0,0.0,0.0,0.0,0.0,0.0,0.0,0.0,0.0,0.0,0.0,0.0,0.0,0.0,0.0,0.0,0.0,0.0,0.0,0.0,0.0,0.0,0.0,0.0,0.0,0.0,0.0,0.0,0.0,0.0,0.0,0.0,0.0,0.0,0.0,0.0,0.0,0.0,0.0,0.0,0.0,0.0,0.0,0.0,0.0,0.0,0.0,0.0,0.0,0.0,0.0,0.0,0.0,0.0,0.0,0.0,0.0,0.0,0.0,0.0,0.0,0.0,0.0,0.0,0.0,0.0,0.0,0.0,0.0,0.0,0.0,0.0,0.0,0.0,-1.3037,-1.322,-1.3342,-1.339,-1.3119,-1.2963,0.0,0.0,0.0,0.0,0.0,0.0,0.0,0.0,0.0,0.0,0.0,0.0,0.0,0.0,0.0,0.0,0.0,0.0,0.0,0.0,0.0,0.0,0.0,0.0,0.0,0.0,0.0,0.0,0.0,0.0,0.0,0.0,0.0,0.0,0.0,0.0,0.0,0.0,0.0,0.0,0.0,0.0,0.0,0.0,0.0,0.0,0.0,0.0,0.0,0.0,0.0,0.0,0.0,0.0,0.0,0.0,0.0,0.0,0.0,0.0,0.0,0.0,0.0,0.0,0.0,0.0,0.0,0.0,0.0,0.0,0.0,0.0,0.0,0.0,0.0,0.0,0.0,0.0,0.0,0.0,0.0,0.0,0.0,0.0,0.0,0.0,0.0,0.0,0.0,0.0,0.0,0.0,0.0,0.0,0.0,0.0,0.0,0.0,0.0,0.0,0.0,0.0,0.0,0.0,0.0,0.0,0.0,0.0,0.0,-1.2956,0.0,-1.3349,-1.339,-1.3119,-1.2963,0.0,0.0,0.0,0.0,0.0,0.0,0.0,0.0,0.0,0.0,0.0,0.0,0.0,0.0,0.0,0.0,0.0,0.0,0.0,0.0,0.0,0.0,0.0,0.0,0.0,0.0,0.0,0.0,0.0,0.0,0.0,0.0,0.0,0.0,0.0,0.0,0.0,0.0,0.0,0.0,0.0,0.0,0.0,0.0,0.0,0.0,0.0,0.0,0.0,0.0,0.0,0.0,0.0,0.0,0.0,0.0,0.0,0.0,0.0,0.0,0.0,0.0,0.0,0.0,0.0,0.0,0.0,0.0,0.0,0.0,0.0,0.0,0.0,0.0,0.0,0.0,0.0,0.0,0.0,0.0,0.0,0.0,0.0,0.0,0.0,0.0,0.0,0.0,0.0,0.0,0.0,0.0,0.0,0.0,0.0,0.0,0.0,0.0,0.0,0.0,0.0,0.0,0.0,0.0,0.0,0.0,0.0,0.0,-1.2657,-1.2949,-1.3105,-1.3261,-1.339,-1.3119,-1.2963,0.0,0.0,0.0,0.0,0.0,0.0,0.0,0.0,0.0,0.0,0.0,0.0,0.0,0.0,0.0,0.0,0.0,0.0,0.0,0.0,0.0,0.0,0.0,0.0,0.0,0.0,0.0,0.0,0.0,0.0,0.0,0.0,0.0,0.0,0.0,0.0,0.0,0.0,0.0,0.0,0.0,0.0,0.0,0.0,0.0,0.0,0.0,0.0,0.0,0.0,0.0,0.0,0.0,0.0,0.0,0.0,0.0,0.0,0.0,0.0,0.0,0.0,0.0,0.0,0.0,0.0,0.0,0.0,0.0,0.0,0.0,0.0,0.0,0.0,0.0,0.0,0.0,0.0,0.0,0.0,0.0,0.0,0.0,0.0,0.0,0.0,0.0,0.0,0.0,0.0,0.0,0.0,0.0,0.0,0.0,0.0,0.0,0.0,0.0,0.0,0.0,0.0,0.0,0.0,0.0,0.0,0.0,0.0,0.0,-1.2956,-1.32,-1.3349,-1.339,-1.3119,-1.2963,0.0,0.0,0.0,0.0,0.0,0.0,0.0,0.0,0.0,0.0,0.0,0.0,0.0,0.0,0.0,0.0,0.0,0.0,0.0,0.0,0.0,0.0,0.0,0.0,0.0,0.0,0.0,0.0,0.0,0.0,0.0,0.0,0.0,0.0,0.0,0.0,0.0,0.0,0.0,0.0,0.0,0.0,0.0,0.0,0.0,0.0,0.0,0.0,0.0,0.0,0.0,0.0,0.0,0.0,0.0,0.0,0.0,0.0,0.0,0.0,0.0,0.0,0.0,0.0,0.0,0.0,0.0,0.0,0.0,0.0,0.0,0.0,0.0,0.0,0.0,0.0,0.0,0.0,0.0,0.0,0.0,0.0,0.0,0.0,0.0,0.0,0.0,0.0,0.0,0.0,0.0,0.0,0.0,0.0,0.0,0.0,0.0,0.0,0.0,0.0,0.0,0.0,0.0,0.0,0.0,0.0,0.0,0.0,0.0,-1.3119,-1.3247,-1.3342,-1.3397,-1.3166,-1.3017,-1.2956,0.0,0.0,0.0,0.0,0.0,0.0,0.0,0.0,0.0,0.0,0.0,0.0,0.0,0.0,0.0,0.0,0.0,0.0,0.0,0.0,0.0,0.0,0.0,0.0,0.0,0.0,0.0,0.0,0.0,0.0,0.0,0.0,0.0,0.0,0.0,0.0,0.0,0.0,0.0,0.0,0.0,0.0,0.0,0.0,0.0,0.0,0.0,0.0,0.0,0.0,0.0,0.0,0.0,0.0,0.0,0.0,0.0,0.0,0.0,0.0,0.0,0.0,0.0,0.0,0.0,0.0,0.0,0.0,0.0,0.0,0.0,0.0,0.0,0.0,0.0,0.0,0.0,0.0,0.0,0.0,0.0,0.0,0.0,0.0,0.0,0.0,0.0,0.0,0.0,0.0,0.0,0.0,0.0,0.0,0.0,0.0,0.0,0.0,0.0,0.0,0.0,0.0,0.0,0.0,0.0,0.0,0.0,0.0,-1.341,-1.3281,-1.3281,-1.341,-1.3268,-1.3112,0.0,0.0,0.0,0.0,0.0,0.0,0.0,0.0,0.0,0.0,0.0,0.0,0.0,0.0,0.0,0.0,0.0,0.0,0.0,0.0,0.0,0.0,0.0,0.0,0.0,0.0,0.0,0.0,0.0,0.0,0.0,0.0,0.0,0.0,0.0,0.0,0.0,0.0,0.0,0.0,0.0,0.0,0.0,0.0,0.0,0.0,0.0,0.0,0.0,0.0,0.0,0.0,0.0,0.0,0.0,0.0,0.0,0.0,0.0,0.0,0.0,0.0,0.0,0.0,0.0,0.0,0.0,0.0,0.0,0.0,0.0,0.0,0.0,0.0,0.0,0.0,0.0,0.0,0.0,0.0,0.0,0.0,0.0,0.0,0.0,0.0,0.0,0.0,0.0,0.0,0.0,0.0,0.0,0.0,0.0,0.0,0.0,0.0,0.0,0.0,0.0,0.0,0.0,0.0,0.0,0.0,0.0,0.0,0.0,-1.3559,-1.3634,-1.3634,-1.3566,-1.3424,-1.322,0.0,0.0,0.0,0.0,0.0,0.0,0.0,0.0,0.0,0.0,0.0,0.0,0.0,0.0,0.0,0.0,0.0,0.0,0.0,0.0,0.0,0.0,0.0,0.0,0.0,0.0,0.0,0.0,0.0,0.0,0.0,0.0,0.0,0.0,0.0,0.0,0.0,0.0,0.0,0.0,0.0,0.0,0.0,0.0,0.0,0.0,0.0,0.0,0.0,0.0,0.0,0.0,0.0,0.0,0.0,0.0,0.0,0.0,0.0,0.0,0.0,0.0,0.0,0.0,0.0,0.0,0.0,0.0,0.0,0.0,0.0,0.0,0.0,0.0,0.0,0.0,0.0,0.0,0.0,0.0,0.0,0.0,0.0,0.0,0.0,0.0,0.0,0.0,0.0,0.0,0.0,0.0,0.0,0.0,0.0,0.0,0.0,0.0,0.0,0.0,0.0,0.0,0.0,0.0,0.0,0.0,0.0,0.0,-1.3505,-1.3715,-1.3858,-1.3899,-1.3817,-1.3607,-1.3356,0.0,0.0,0.0,0.0,0.0,0.0,0.0,0.0,0.0,0.0,0.0,0.0,0.0,0.0,0.0,0.0,0.0,0.0,0.0,0.0,0.0,0.0,0.0,0.0,0.0,0.0,0.0,0.0,0.0,0.0,0.0,0.0,0.0,0.0,0.0,0.0,0.0,0.0,0.0,0.0,0.0,0.0,0.0,0.0,0.0,0.0,0.0,0.0,0.0,0.0,0.0,0.0,0.0,0.0,0.0,0.0,0.0,0.0,0.0,0.0,0.0,0.0,0.0,0.0,0.0,0.0,0.0,0.0,0.0,0.0,0.0,0.0,0.0,0.0,0.0,0.0,0.0,0.0,0.0,0.0,0.0,0.0,0.0,0.0,0.0,0.0,0.0,0.0,0.0,0.0,0.0,0.0,0.0,0.0,0.0,0.0,0.0,0.0,0.0,0.0,0.0,0.0,0.0,0.0,0.0,0.0,0.0,0.0,-1.3405,-1.3666,-1.3834,-1.3921,-1.4089,-1.381,-1.3505,0.0,0.0,0.0,0.0,0.0,0.0,0.0,0.0,0.0,0.0,0.0,0.0,0.0,0.0,0.0,0.0,0.0,0.0,0.0,0.0,0.0,0.0,0.0,0.0,0.0,0.0,0.0,0.0,0.0,0.0,0.0,0.0,0.0,0.0,0.0,0.0,0.0,0.0,0.0,0.0,0.0,0.0,0.0,0.0,0.0,0.0,0.0,0.0,0.0,0.0,0.0,0.0,0.0,0.0,0.0,0.0,0.0,0.0,0.0,0.0,0.0,0.0,0.0,0.0,0.0,0.0,0.0,0.0,0.0,0.0,0.0,0.0,0.0,0.0,0.0,0.0,0.0,0.0,0.0,0.0,0.0,0.0,0.0,0.0,0.0,0.0,0.0,0.0,0.0,0.0,0.0,0.0,0.0,0.0,0.0,0.0,0.0,0.0,0.0,0.0,0.0,0.0,0.0,0.0,0.0,0.0,0.0,0.0,-1.2746,-1.2809,-1.3054,-1.3362,-1.3716,-1.378,-1.3654,0.0,0.0,0.0,0.0,0.0,0.0,0.0,0.0,0.0,0.0,0.0,0.0,0.0,0.0,0.0,0.0,0.0,0.0,0.0,0.0,0.0,0.0,0.0,0.0,0.0,0.0,0.0,0.0,0.0,0.0,0.0,0.0,0.0,0.0,0.0,0.0,0.0,0.0,0.0,0.0,0.0,0.0,0.0,0.0,0.0,0.0,0.0,0.0,-1.2739,0.0,0.0,0.0,0.0,0.0,0.0,0.0,0.0,0.0,0.0,0.0,0.0,0.0,0.0,0.0,0.0,0.0,0.0,0.0,0.0,0.0,0.0,0.0,0.0,0.0,0.0,0.0,0.0,0.0,0.0,0.0,0.0,0.0,0.0,0.0,0.0,0.0,0.0,0.0,0.0,0.0,0.0,0.0,0.0,0.0,0.0,0.0,0.0,0.0,0.0,0.0,0.0,0.0,0.0,0.0,0.0,0.0,0.0,0.0,-1.2466,-1.2472,-1.2735,-1.3059,-1.3578,-1.348,-1.3566,0.0,0.0,0.0,0.0,0.0,0.0,0.0,0.0,0.0,0.0,0.0,0.0,0.0,0.0,0.0,0.0,0.0,0.0,0.0,0.0,0.0,0.0,0.0,0.0,0.0,0.0,0.0,0.0,0.0,0.0,0.0,0.0,0.0,0.0,0.0,0.0,0.0,0.0,0.0,0.0,0.0,0.0,0.0,0.0,0.0,0.0,0.0,0.0,0.0,0.0,0.0,0.0,0.0,0.0,0.0,0.0,0.0,0.0,0.0,0.0,0.0,0.0,0.0,0.0,0.0,0.0,0.0,0.0,0.0,0.0,0.0,0.0,0.0,0.0,0.0,0.0,0.0,0.0,0.0,0.0,0.0,0.0,0.0,0.0,0.0,0.0,0.0,0.0,0.0,0.0,0.0,0.0,0.0,0.0,0.0,0.0,0.0,0.0,0.0,0.0,0.0,0.0,0.0,0.0,0.0,0.0,0.0,-1.2029,-1.2294,-1.2306,-1.2559,-1.2881,-1.3407,-1.3133,-1.3101,-1.3485,0.0,0.0,0.0,0.0,0.0,0.0,0.0,0.0,0.0,0.0,0.0,0.0,0.0,0.0,0.0,0.0,0.0,0.0,0.0,0.0,0.0,0.0,0.0,0.0,0.0,0.0,0.0,0.0,0.0,0.0,0.0,0.0,0.0,0.0,0.0,0.0,0.0,0.0,-1.4838,-1.5228,0.0,0.0,0.0,0.0,0.0,0.0,0.0,0.0,-1.3057,0.0,0.0,0.0,0.0,0.0,0.0,0.0,0.0,0.0,0.0,0.0,0.0,0.0,0.0,0.0,0.0,0.0,0.0,0.0,0.0,0.0,0.0,0.0,0.0,0.0,0.0,0.0,0.0,0.0,0.0,0.0,0.0,0.0,0.0,0.0,0.0,0.0,0.0,0.0,0.0,0.0,0.0,0.0,0.0,0.0,0.0,0.0,0.0,0.0,0.0,0.0,0.0,0.0,0.0,0.0,0.0,-1.055,-1.1025,-1.1274,-1.1274,-1.1505,-1.1988,-1.2337,-1.2445,-1.2631,-1.3101,0.0,0.0,0.0,0.0,0.0,0.0,0.0,0.0,0.0,0.0,0.0,0.0,0.0,0.0,0.0,0.0,0.0,0.0,0.0,0.0,0.0,0.0,0.0,0.0,0.0,0.0,0.0,0.0,0.0,0.0,0.0,0.0,0.0,0.0,0.0,0.0,0.0,0.0,0.0,-1.5463,-1.5473,0.0,0.0,0.0,0.0,0.0,0.0,0.0,0.0,-1.2901,0.0,0.0,0.0,0.0,0.0,0.0,0.0,0.0,0.0,0.0,0.0,0.0,0.0,0.0,0.0,0.0,0.0,0.0,0.0,0.0,0.0,0.0,0.0,0.0,0.0,0.0,0.0,0.0,0.0,0.0,0.0,0.0,0.0,0.0,0.0,0.0,0.0,0.0,0.0,0.0,0.0,0.0,0.0,0.0,0.0,0.0,0.0,0.0,0.0,0.0,0.0,0.0,0.0,0.0,0.0,-1.0411,-1.0857,-1.1107,-1.1112,-1.133,-1.181,-1.216,-1.2097,-1.2472,0.0,0.0,0.0,0.0,0.0,0.0,0.0,0.0,0.0,0.0,0.0,0.0,0.0,0.0,0.0,0.0,0.0,0.0,0.0,0.0,0.0,0.0,0.0,0.0,0.0,0.0,0.0,0.0,0.0,0.0,0.0,0.0,0.0,0.0,0.0,0.0,0.0,0.0,0.0,0.0,-1.5353,-1.5321,-1.5005,0.0,0.0,0.0,0.0,0.0,0.0,-1.3166,-1.3044,0.0,0.0,0.0,0.0,0.0,0.0,0.0,0.0,0.0,0.0,0.0,0.0,0.0,0.0,0.0,0.0,0.0,0.0,0.0,0.0,0.0,0.0,0.0,0.0,0.0,0.0,0.0,0.0,0.0,0.0,0.0,0.0,0.0,0.0,0.0,0.0,0.0,0.0,0.0,0.0,0.0,0.0,0.0,0.0,0.0,0.0,0.0,0.0,0.0,0.0,0.0,0.0,0.0,0.0,0.0,-1.04,-1.0862,-1.1107,-1.1112,-1.1335,-1.1632,-1.1982,-1.1923,-1.2134,0.0,0.0,0.0,0.0,0.0,0.0,0.0,0.0,0.0,0.0,0.0,0.0,0.0,0.0,0.0,0.0,0.0,0.0,0.0,0.0,0.0,0.0,0.0,0.0,0.0,0.0,0.0,0.0,0.0,0.0,0.0,0.0,0.0,0.0,0.0,0.0,0.0,0.0,0.0,0.0,0.0,-1.5207,-1.4886,-1.4735,0.0,0.0,0.0,0.0,-1.3397,-1.3302,0.0,0.0,0.0,0.0,0.0,0.0,0.0,0.0,0.0,0.0,0.0,0.0,0.0,0.0,0.0,0.0,0.0,0.0,0.0,0.0,0.0,0.0,0.0,0.0,0.0,0.0,0.0,0.0,0.0,0.0,0.0,0.0,0.0,0.0,0.0,0.0,0.0,0.0,0.0,0.0,0.0,0.0,0.0,0.0,0.0,0.0,0.0,0.0,0.0,0.0,0.0,0.0,0.0,0.0,0.0,0.0,-1.04,-1.0862,-1.1107,-1.1112,-1.1335,-1.1455,-1.1627,-1.1749,-1.1962,0.0,0.0,0.0,0.0,0.0,0.0,0.0,0.0,0.0,0.0,0.0,0.0,0.0,0.0,0.0,0.0,0.0,0.0,0.0,0.0,0.0,0.0,0.0,0.0,0.0,0.0,0.0,0.0,0.0,0.0,0.0,0.0,0.0,0.0,0.0,0.0,0.0,0.0,0.0,0.0,0.0,-1.4898,-1.5401,-1.4651,-1.4116,0.0,0.0,-1.3397,-1.3397,-1.3383,0.0,0.0,0.0,0.0,0.0,0.0,0.0,0.0,0.0,0.0,0.0,0.0,0.0,0.0,0.0,0.0,0.0,0.0,0.0,0.0,0.0,0.0,0.0,0.0,0.0,0.0,0.0,0.0,0.0,0.0,0.0,0.0,0.0,0.0,0.0,0.0,0.0,0.0,0.0,0.0,0.0,0.0,0.0,0.0,0.0,0.0,0.0,0.0,0.0,0.0,0.0,0.0,0.0,0.0,0.0,-1.0384,-1.0405,-1.0857,-1.1107,-1.1112,-1.1335,-1.1455,-1.1455,-1.14,-1.179,0.0,0.0,0.0,0.0,0.0,0.0,0.0,0.0,0.0,0.0,0.0,0.0,0.0,0.0,0.0,0.0,0.0,0.0,0.0,0.0,0.0,0.0,0.0,0.0,0.0,0.0,0.0,0.0,0.0,0.0,0.0,0.0,0.0,0.0,0.0,0.0,0.0,0.0,0.0,0.0,0.0,0.0,-1.4769,-1.4484,0.0,0.0,0.0,-1.3627,-1.3539,0.0,0.0,0.0,0.0,0.0,0.0,0.0,0.0,0.0,0.0,0.0,0.0,0.0,0.0,0.0,0.0,0.0,0.0,0.0,0.0,0.0,0.0,0.0,0.0,0.0,0.0,0.0,0.0,0.0,0.0,0.0,0.0,0.0,0.0,0.0,0.0,0.0,0.0,0.0,0.0,0.0,0.0,0.0,0.0,0.0,0.0,0.0,0.0,0.0,0.0,0.0,0.0,0.0,0.0,0.0,0.0,0.0,-1.0394,-1.0857,-1.1107,-1.1112,-1.133,-1.1455,-1.1455,-1.1226,0.0,0.0,0.0,0.0,0.0,0.0,0.0,0.0,0.0,0.0,0.0,0.0,0.0,0.0,0.0,0.0,0.0,0.0,0.0,0.0,0.0,0.0,0.0,0.0,0.0,0.0,0.0,-1.1714,0.0,0.0,0.0,0.0,0.0,0.0,0.0,0.0,0.0,0.0,0.0,0.0,0.0,0.0,-1.434,-1.433,-1.4281,-1.4201,0.0,0.0,-1.379,-1.3654,-1.3627,-1.3573,0.0,0.0,0.0,0.0,0.0,0.0,0.0,0.0,0.0,0.0,0.0,0.0,0.0,0.0,0.0,0.0,0.0,0.0,0.0,0.0,0.0,0.0,0.0,0.0,0.0,0.0,0.0,0.0,0.0,0.0,0.0,0.0,0.0,0.0,0.0,0.0,0.0,0.0,0.0,0.0,0.0,0.0,0.0,0.0,0.0,0.0,0.0,0.0,0.0,0.0,0.0,0.0,0.0,0.0,0.0,-1.04,-1.0857,-1.1107,-1.1112,-1.1335,-1.1455,-1.1455,-1.1226,-1.1274,0.0,0.0,0.0,0.0,0.0,0.0,0.0,0.0,0.0,0.0,0.0,0.0,0.0,0.0,0.0,0.0,0.0,0.0,0.0,0.0,0.0,0.0,0.0,0.0,0.0,0.0,0.0,0.0,0.0,0.0,0.0,0.0,0.0,0.0,0.0,0.0,0.0,0.0,0.0,0.0,0.0,-1.383,-1.4323,-1.418,-1.3892,0.0,0.0,-1.379,-1.3654,-1.3634,-1.358,-1.3424,0.0,0.0,0.0,0.0,0.0,0.0,0.0,0.0,0.0,0.0,0.0,0.0,0.0,0.0,0.0,0.0,0.0,0.0,0.0,0.0,0.0,0.0,0.0,0.0,0.0,0.0,0.0,0.0,0.0,0.0,0.0,0.0,0.0,0.0,0.0,0.0,0.0,0.0,0.0,0.0,0.0,0.0,0.0,0.0,0.0,0.0,0.0,0.0,0.0,0.0,0.0,0.0,0.0,-1.0384,-1.0389,-1.0857,-1.1107,-1.1112,-1.1335,-1.1455,-1.1455,-1.1226,-1.1274,0.0,0.0,0.0,0.0,0.0,0.0,0.0,0.0,0.0,0.0,0.0,0.0,0.0,0.0,0.0,0.0,0.0,0.0,0.0,0.0,0.0,0.0,0.0,0.0,0.0,0.0,0.0,0.0,-1.1965,-1.2074,-1.2108,0.0,0.0,0.0,0.0,0.0,0.0,0.0,0.0,0.0,0.0,-1.3777,-1.4009,-1.418,0.0,0.0,-1.4163,-1.4068,-1.3926,-1.3824,-1.3709,-1.3566,-1.3336,0.0,0.0,0.0,0.0,0.0,0.0,0.0,0.0,0.0,0.0,0.0,0.0,0.0,0.0,0.0,0.0,0.0,0.0,0.0,0.0,0.0,0.0,0.0,0.0,0.0,0.0,0.0,0.0,0.0,0.0,0.0,0.0,0.0,0.0,0.0,0.0,0.0,0.0,0.0,0.0,0.0,0.0,0.0,0.0,0.0,0.0,0.0,0.0,0.0,0.0,0.0,0.0,-1.0405,-1.0438,-1.0878,-1.1118,-1.1156,-1.1351,-1.1455,-1.1449,-1.1259,-1.1312,0.0,0.0,0.0,0.0,0.0,0.0,0.0,0.0,0.0,0.0,0.0,0.0,0.0,0.0,0.0,0.0,0.0,0.0,0.0,0.0,0.0,0.0,0.0,0.0,0.0,0.0,0.0,0.0,-1.1952,-1.2054,-1.2203,0.0,0.0,0.0,0.0,0.0,0.0,0.0,0.0,0.0,0.0,-1.3666,-1.3673,-1.3928,-1.4299,-1.4299,-1.4299,-1.4245,-1.4095,-1.398,-1.3844,-1.3661,0.0,0.0,0.0,0.0,0.0,0.0,0.0,0.0,0.0,0.0,0.0,0.0,0.0,0.0,0.0,0.0,0.0,0.0,0.0,0.0,0.0,0.0,0.0,0.0,0.0,0.0,0.0,0.0,0.0,0.0,0.0,0.0,0.0,0.0,0.0,0.0,0.0,0.0,0.0,0.0,0.0,0.0,0.0,0.0,0.0,0.0,0.0,0.0,0.0,0.0,0.0,0.0,0.0,0.0,-1.0558,-1.0916,-1.1156,-1.1264,-1.1389,-1.1455,-1.1455,-1.1335,-1.1215,-1.1096,0.0,0.0,0.0,0.0,0.0,0.0,0.0,0.0,0.0,0.0,0.0,0.0,0.0,0.0,0.0,0.0,0.0,0.0,0.0,0.0,0.0,0.0,0.0,0.0,0.0,0.0,-1.2088,-1.1925,-1.1904,0.0,0.0,0.0,0.0,0.0,0.0,0.0,0.0,0.0,0.0,-1.2713,-1.3152,-1.3159,-1.3753,-1.4299,-1.4299,-1.4299,-1.4251,-1.4102,-1.4068,-1.3966,0.0,0.0,0.0,0.0,0.0,0.0,0.0,0.0,0.0,0.0,0.0,0.0,0.0,0.0,0.0,0.0,0.0,0.0,0.0,0.0,0.0,0.0,0.0,0.0,0.0,0.0,0.0,-1.0264,-1.0264,0.0,0.0,0.0,0.0,0.0,0.0,0.0,0.0,0.0,0.0,0.0,-1.0384,-1.0384,0.0,0.0,0.0,0.0,0.0,0.0,0.0,0.0,0.0,0.0,0.0,0.0,-1.0481,-1.0677,-1.096,-1.1161,-1.127,-1.1389,-1.1455,-1.1455,-1.1335,-1.1318,-1.1373,0.0,0.0,0.0,0.0,0.0,0.0,0.0,0.0,0.0,0.0,0.0,0.0,0.0,0.0,0.0,0.0,0.0,0.0,0.0,0.0,0.0,0.0,0.0,0.0,0.0,-1.1959,0.0,0.0,0.0,0.0,0.0,0.0,0.0,0.0,0.0,0.0,0.0,-1.195,-1.2093,-1.2495,-1.2841,-1.3288,-1.3637,-1.3945,0.0,0.0,0.0,0.0,0.0,0.0,0.0,0.0,0.0,0.0,0.0,0.0,0.0,0.0,-1.3587,-1.3492,-1.3686,-1.4037,-1.4091,0.0,0.0,0.0,0.0,0.0,0.0,0.0,0.0,0.0,0.0,0.0,0.0,0.0,0.0,0.0,0.0,-1.0384,0.0,0.0,0.0,0.0,0.0,0.0,0.0,0.0,-1.0443,-1.0492,-1.0568,-1.0574,-1.0574,0.0,-1.053,-1.0443,0.0,0.0,0.0,0.0,0.0,0.0,0.0,0.0,-1.0563,-1.0797,-1.0998,-1.1177,-1.133,-1.1411,-1.1455,-1.1455,-1.1335,-1.1318,-1.1548,-1.17,-1.1975,0.0,0.0,0.0,0.0,0.0,0.0,0.0,0.0,0.0,0.0,0.0,0.0,0.0,0.0,0.0,0.0,0.0,0.0,0.0,0.0,0.0,0.0,0.0,-1.1472,0.0,0.0,0.0,0.0,0.0,0.0,0.0,0.0,0.0,-1.1814,-1.1714,-1.1546,-1.1722,-1.2039,-1.2342,-1.283,0.0,0.0,0.0,0.0,0.0,0.0,0.0,-1.4136,-1.4082,-1.3987,-1.3919,-1.3919,-1.396,-1.4,-1.4,0.0,0.0,-1.3913,-1.4301,-1.4536,-1.4923,-1.5631,-1.6503,-1.6929,-1.7984,-1.8866,0.0,0.0,0.0,0.0,0.0,0.0,0.0,0.0,-1.0416,-1.0416,0.0,-1.0416,0.0,0.0,0.0,0.0,0.0,0.0,0.0,0.0,-1.0574,-1.0699,-1.0911,-1.0922,-1.0922,-1.0916,-1.0802,-1.0683,-1.0558,-1.0169,0.0,0.0,0.0,0.0,0.0,0.0,-1.0683,-1.0922,-1.1047,-1.1221,-1.1444,-1.1455,-1.1455,-1.1455,-1.1335,-1.1395,-1.1796,-1.1879,-1.2117,-1.234,-1.2503,0.0,0.0,0.0,0.0,0.0,0.0,0.0,0.0,0.0,0.0,0.0,0.0,0.0,0.0,0.0,0.0,0.0,0.0,0.0,0.0,-1.1225,0.0,0.0,0.0,0.0,0.0,0.0,0.0,0.0,0.0,0.0,-1.1022,-1.1143,-1.1146,-1.0895,0.0,0.0,0.0,0.0,-1.3591,-1.3591,-1.3945,-1.4299,-1.4299,-1.4299,-1.4251,-1.4109,0.0,0.0,-1.4075,-1.4197,-1.4292,-1.4299,-1.4285,-1.438,-1.4607,-1.4885,-1.5376,-1.5701,-1.6866,-1.7687,-1.768,-1.8613,-1.9735,-1.1161,0.0,0.0,0.0,0.0,-1.09,-1.09,-1.09,-1.09,-1.0851,-1.077,-1.077,0.0,0.0,0.0,0.0,0.0,0.0,-1.0699,-1.0819,-1.0905,-1.0982,-1.1052,-1.1047,-1.1052,-1.1047,-1.0838,-1.0763,-1.0813,-1.0661,-1.0498,-1.0335,0.0,0.0,0.0,0.0,-1.0802,-1.1041,-1.1166,-1.1297,-1.1449,-1.1455,-1.1455,-1.1455,-1.1335,-1.1434,-1.1395,-1.1845,-1.2136,-1.2123,-1.254,0.0,0.0,0.0,0.0,0.0,0.0,0.0,0.0,0.0,0.0,0.0,0.0,0.0,0.0,0.0,0.0,0.0,0.0,0.0,-1.0896,-1.0537,-1.028,0.0,0.0,0.0,0.0,0.0,0.0,0.0,0.0,0.0,-1.0655,-1.0777,-1.0942,0.0,0.0,-1.1614,-1.209,-1.2497,-1.2875,-1.3591,0.0,0.0,0.0,-1.4299,-1.4285,-1.4238,-1.4238,-1.4238,-1.4238,-1.4272,-1.4299,-1.4299,-1.4299,-1.4441,-1.4885,-1.5111,-1.5354,-1.5421,-1.6398,-1.7409,-1.7855,-1.8532,-1.9357,-1.1514,-1.1373,-1.1183,-1.1107,-1.1107,-1.1107,-1.1107,-1.1107,-1.1107,-1.1058,-1.0992,-1.0992,-1.0884,-1.0699,-1.0699,0.0,0.0,0.0,-1.0922,-1.0992,-1.1069,-1.1128,-1.1166,-1.1166,-1.1166,-1.1172,-1.0993,-1.0934,-1.0992,-1.0916,-1.0813,-1.0672,0.0,0.0,-1.0628,-1.0797,-1.0976,-1.1161,-1.1237,-1.133,-1.1455,-1.1455,-1.1455,-1.1455,-1.1384,-1.1324,-1.1275,-1.1779,-1.2095,-1.2075,-1.2631,-1.2895,0.0,0.0,0.0,0.0,0.0,0.0,0.0,0.0,0.0,0.0,0.0,-1.2192,-1.2037,0.0,0.0,0.0,-1.0993,-1.0521,-1.0287,-1.0103,0.0,0.0,0.0,0.0,0.0,0.0,0.0,-1.0264,-1.0378,-1.0498,-1.0612,-1.0775,-1.0938,-1.1085,-1.1199,-1.1489,-1.1793,0.0,-1.2343,-1.3053,-1.3413,-1.3768,-1.3945,-1.4122,-1.4299,-1.4299,-1.4299,-1.4299,-1.4299,-1.4299,-1.4299,-1.4299,-1.4299,-1.4299,-1.4646,-1.5089,-1.5526,-1.5602,-1.6615,-1.745,-1.7725,-1.8229,-1.8903,-1.183,-1.1781,-1.1346,-1.1156,-1.1145,-1.1145,-1.1139,-1.1128,-1.1134,-1.1123,-1.1118,-1.1118,-1.1047,-1.0933,-1.0933,0.0,0.0,-1.1058,-1.1118,-1.1118,-1.1123,-1.1183,-1.1286,-1.1286,-1.1286,-1.1286,-1.1461,-1.1406,-1.1118,-1.1118,-1.1112,-1.1096,-1.0889,-1.0775,-1.0775,-1.0998,-1.1166,-1.127,-1.1291,-1.1362,-1.1482,-1.1476,-1.1471,-1.1471,-1.146,-1.14,-1.1291,-1.1686,-1.1851,-1.1945,-1.2664,-1.2922,-1.2752,0.0,0.0,0.0,0.0,0.0,0.0,0.0,0.0,0.0,0.0,0.0,0.0,0.0,0.0,0.0,-1.0615,0.0,-0.984,-0.9949,0.0,0.0,0.0,-1.0036,-1.0036,-1.0144,-1.0264,-1.0384,0.0,0.0,0.0,0.0,-1.109,-1.1101,-1.121,-1.133,-1.1438,-1.181,-1.2165,-1.2165,-1.3059,-1.3591,-1.3591,-1.3945,-1.4299,-1.4299,-1.4299,-1.4299,-1.4299,-1.4299,-1.4299,-1.4299,-1.4299,-1.4299,-1.4299,-1.4999,-1.5881,-1.621,-1.7096,-1.7755,-1.756,-1.8049,-1.853,-1.19,-1.1808,-1.1694,-1.1596,-1.1509,-1.1509,-1.1455,-1.1373,-1.1373,-1.1319,-1.1232,-1.1406,-1.134,-1.1058,-1.1058,-1.1063,-1.124,-1.1177,-1.1232,-1.1237,-1.1324,-1.1384,-1.1411,-1.1411,-1.1411,-1.1411,-1.1411,-1.1351,-1.1237,-1.1232,-1.1188,-1.1107,-1.1128,-1.1101,-1.1025,-1.1161,-1.1248,-1.127,-1.1455,-1.1607,-1.1726,-1.1639,-1.159,-1.159,-1.1504,-1.1444,-1.1411,-1.1732,-1.1761,-1.1863,-1.2357,-1.2573,-1.2429,-1.2568,0.0,0.0,0.0,0.0,0.0,0.0,0.0,0.0,0.0,-1.1417,-1.1262,0.0,-1.0603,0.0,-1.0145,-0.984,-0.984,-0.9949,0.0,0.0,-1.0101,-1.0161,-1.0161,-1.0269,-1.0384,-1.0503,-1.0541,-1.0601,-1.0721,-1.0867,-1.0998,-1.109,-1.1281,-1.1422,-1.1455,-1.1632,-1.181,-1.2165,-1.2704,-1.323,-1.3591,-1.3945,-1.4299,-1.4299,-1.4299,-1.4299,-1.4299,-1.4299,-1.4299,-1.4299,-1.4299,-1.4299,-1.4299,-1.4999,-1.5704,-1.5881,-1.6585,-1.7405,-1.7396,-1.7554,-1.7535,-1.2036,-1.1976,-1.1976,-1.1906,-1.1792,-1.1737,-1.165,-1.1536,-1.1536,-1.1471,-1.1351,-1.1472,-1.1237,-1.1177,-1.1177,-1.1177,-1.1188,-1.1302,-1.1351,-1.1357,-1.1422,-1.1455,-1.1455,-1.1455,-1.1455,-1.1455,-1.1455,-1.1422,-1.1357,-1.1351,-1.1346,-1.134,-1.1406,-1.1427,-1.1422,-1.1433,-1.1433,-1.1438,-1.1618,-1.1748,-1.1813,-1.1699,-1.1634,-1.1634,-1.1514,-1.1455,-1.1455,-1.1575,-1.1618,-1.1779,-1.2081,-1.2293,-1.2321,-1.2496,-1.2467,0.0,0.0,0.0,0.0,0.0,0.0,0.0,0.0,0.0,0.0,0.0,-1.0224,0.0,-1.007,0.0,-0.9916,-0.9981,-1.0019,-1.0019,-1.0128,-1.0204,-1.0204,-1.0356,-1.0487,-1.0552,-1.0601,-1.0661,-1.0732,-1.0846,-1.0944,-1.1014,-1.1221,-1.1395,-1.1444,-1.1455,-1.1632,-1.181,-1.2343,-1.2881,-1.3413,-1.3945,-1.4299,-1.4299,-1.4299,-1.4299,-1.4299,-1.4299,-1.4299,-1.4299,-1.4299,-1.4299,-1.4299,-1.4822,-1.5352,-1.5521,-1.5988,-1.6609,-1.7033,-1.6812,-1.675,-1.2172,-1.2172,-1.2172,-1.2112,-1.2004,-1.1906,-1.1781,-1.1634,-1.1634,-1.1569,-1.1449,-1.134,-1.1297,-1.1291,-1.1297,-1.1297,-1.1302,-1.1406,-1.1455,-1.1455,-1.1455,-1.1455,-1.1455,-1.1455,-1.1455,-1.1455,-1.1471,-1.1476,-1.1476,-1.1498,-1.1552,-1.1656,-1.1661,-1.1716,-1.1813,-1.1726,-1.1677,-1.1683,-1.1786,-1.1846,-1.1862,-1.1743,-1.1672,-1.1656,-1.1542,-1.1471,-1.1449,-1.1226,-1.1274,-1.1607,-1.1766,-1.183,-1.2185,-1.2383,-1.2397,0.0,-1.1908,0.0,0.0,0.0,0.0,0.0,0.0,0.0,0.0,-1.0019,-1.0019,-1.0019,-1.0019,-1.0019,-1.0019,-1.0019,-1.0019,-1.0025,-1.0144,-1.0226,-1.0237,-1.0433,-1.0579,-1.0579,-1.0672,-1.0737,-1.0737,-1.0829,-1.0895,-1.0938,-1.109,-1.1264,-1.14,-1.1444,-1.1455,-1.1455,-1.181,-1.252,-1.3413,-1.3945,-1.4299,-1.4299,-1.4299,-1.4299,-1.4299,-1.4299,-1.4299,-1.4299,-1.4299,-1.4299,-1.4299,-1.4646,-1.4985,-1.4963,-1.5359,-1.5775,-1.6262,-1.605,-1.5821,-1.2172,-1.2172,-1.2172,-1.2156,-1.2134,-1.2112,-1.1928,-1.1634,-1.1634,-1.1569,-1.1455,-1.1433,-1.1422,-1.1417,-1.1422,-1.1422,-1.1422,-1.1444,-1.1455,-1.1455,-1.1455,-1.1455,-1.1455,-1.1455,-1.1455,-1.1465,-1.1558,-1.1601,-1.1601,-1.1699,-1.1759,-1.1786,-1.1786,-1.1797,-1.1824,0.0,0.0,0.0,-1.1944,-1.2004,-1.2096,-1.1987,-1.1879,-1.1786,-1.1667,0.0,-1.1455,-1.1226,-1.1101,-1.1268,-1.1351,0.0,0.0,0.0,0.0,0.0,0.0,0.0,0.0,0.0,0.0,0.0,-1.0175,-1.0019,-1.0019,-1.0019,-1.0019,-1.0019,-1.0019,-1.0019,-1.0019,-1.0019,-1.0019,-1.0025,-1.0221,-1.0351,-1.0362,-1.0558,-1.0699,-1.0704,-1.0721,-1.0737,-1.0737,-1.0759,-1.0808,-1.09,-1.096,-1.1074,-1.1281,-1.1389,-1.1455,-1.1455,-1.181,-1.252,-1.3413,-1.3591,-1.3945,-1.4122,-1.4299,-1.4299,-1.4299,-1.4299,-1.4299,-1.4299,-1.4299,-1.4299,-1.4299,-1.4646,-1.4949,-1.4835,-1.5031,-1.5265,-1.5428,-1.5278,-1.5097,-1.2172,0.0,-1.2172,-1.2172,0.0,-1.2172,-1.2036,-1.1808,-1.1808,-1.171,-1.1547,-1.1542,-1.1509,-1.1455,-1.1455,-1.1455,-1.1455,-1.1455,-1.1455,-1.1455,-1.1455,-1.1455,-1.146,-1.1514,-1.1547,-1.1547,-1.1667,-1.1726,-1.1732,-1.1792,-1.1846,-1.19,-1.19,-1.1933,-1.1993,-1.2047,-1.208,-1.208,-1.208,-1.2107,-1.2167,-1.2053,-1.1938,-1.1824,0.0,0.0,0.0,0.0,0.0,0.0,0.0,0.0,0.0,0.0,0.0,-1.1261,-1.1249,-1.106,-1.0521,-1.0459,-1.0269,-1.0112,-1.0057,-1.0019,-1.0019,-1.0019,-1.0019,-1.0019,-1.0019,-1.0019,-1.0019,-1.0019,-1.0019,-1.003,-1.0182,-1.0318,-1.0389,-1.0541,-1.0672,-1.0726,-1.0737,-1.0737,-1.0737,-1.0737,-1.0759,-1.0824,-1.0884,-1.0982,-1.1156,-1.1291,-1.1378,-1.1444,-1.181,-1.2343,-1.2875,-1.3053,-1.3407,-1.3768,-1.3945,-1.4122,-1.4299,-1.4299,-1.4299,-1.4299,-1.4299,-1.4299,-1.4292,-1.4414,-1.4507,-1.4242,-1.4064,-1.4089,-1.3899,-1.4126,-1.4659,-1.2205,-1.2199,-1.2183,-1.2172,-1.2172,-1.2172,-1.2112,-1.202,0.0,0.0,0.0,-1.1667,-1.1612,-1.152,-1.152,-1.152,-1.152,-1.152,-1.152,-1.152,-1.152,-1.152,-1.1525,-1.1623,-1.1667,-1.1672,-1.1792,-1.1846,-1.1851,-1.1868,-1.1928,-1.2015,-1.202,-1.2074,-1.2167,-1.2172,-1.2172,-1.2172,-1.2172,-1.2172,-1.2172,-1.2069,-1.1966,-1.1851,-1.1732,-1.1612,-1.1493,-1.1346,-1.1226,-1.1134,-1.1362,-1.1356,-1.1129,-1.1441,-1.1376,-1.0912,-1.0901,-1.0734,-1.0384,-1.0291,-1.0226,-1.0204,-1.0112,-1.0047,-1.0019,-1.0019,-1.0019,-1.0019,-1.0019,-1.0019,-1.0019,-1.0019,-1.0019,-1.0019,-1.0128,-1.0248,-1.0346,-1.0454,-1.0568,-1.0677,-1.0699,-1.0715,-1.0732,-1.0737,-1.0737,-1.0748,-1.0819,-1.0933,-1.1058,-1.1215,-1.1357,-1.1438,-1.181,-1.2165,-1.2165,-1.252,-1.2875,-1.3407,-1.3407,-1.3591,-1.3945,-1.4122,-1.4122,-1.3945,-1.4108,-1.3899,-1.4068,-1.3779,-1.368,-1.33,-1.2949,-1.2771,-1.2402,-1.2991,-1.3742,-1.233,-1.2319,-1.2216,-1.2172,-1.2172,-1.2172,-1.2161,-1.2129,-1.1933,-1.1824,-1.1609,-1.1792,-1.1786,-1.177,-1.177,-1.177,-1.177,-1.177,-1.1764,0.0,-1.177,-1.177,-1.177,-1.1786,-1.1792,-1.1803,-1.1911,-1.1966,-1.1976,-1.2069,-1.2129,-1.214,-1.2145,-1.2156,-1.2172,-1.2172,-1.2172,-1.2172,-1.2172,-1.2172,-1.2172,-1.2156,-1.2091,-1.1966,-1.1851,-1.1732,-1.1612,-1.1395,-1.1264,-1.1248,-1.1139,-1.1014,-1.0878,-1.1036,-1.0937,-1.0721,-1.0694,-1.0492,-1.0394,-1.0373,-1.0313,-1.0215,-1.0188,-1.0134,-1.003,-1.0019,-1.0019,-1.0019,-1.0019,-1.0019,-1.0019,-1.0019,-1.0019,-1.0025,-1.0128,-1.021,-1.0237,-1.0335,-1.0454,-1.0563,-1.0579,-1.0628,-1.071,-1.0732,-1.0737,-1.0737,-1.078,-1.0819,-1.0971,-1.1226,-1.1417,-1.1455,-1.1632,-1.181,-1.1976,-1.2165,-1.2509,-1.2875,-1.304,-1.3022,-1.3198,-1.3198,-1.3198,-1.3046,-1.3123,-1.306,-1.3048,-1.2761,-1.265,-1.2551,-1.2464,-1.2234,-1.2142,-1.2253,-1.2401,-1.2455,-1.2439,-1.2324,-1.227,-1.2265,-1.2199,-1.2172,-1.2161,-1.2058,-1.1971,-1.1911,-1.1911,-1.1879,-1.1824,-1.1819,-1.1819,-1.1819,-1.1819,-1.1819,-1.1819,-1.1819,-1.1819,-1.1824,-1.1884,-1.1911,-1.1922,-1.2031,-1.2085,-1.2096,-1.2145,-1.2172,-1.2172,-1.2172,-1.2205,-1.227,-1.227,-1.2303,-1.2362,-1.2237,-1.2172,-1.2172,-1.2172,-1.2112,-1.1993,-1.1938,-1.1824,-1.1645,-1.1531,-1.1411,-1.1275,-1.1221,-1.1139,-1.1031,-1.102,-1.0938,-1.077,-1.0753,-1.0699,-1.0585,-1.0514,-1.0427,-1.0313,-1.0242,-1.0182,-0.9965,-1.0057,-1.0019,-1.0019,-1.0019,-1.0019,-1.0019,-1.0019,-1.0019,-1.0019,-1.0074,-1.0128,-1.0199,-1.0248,-1.0329,-1.0443,-1.052,-1.0579,-1.0634,-1.0693,-1.0737,-1.0742,-1.0786,-1.0857,-1.0916,-1.1112,-1.1286,-1.1346,-1.1406,-1.1599,-1.172,-1.1709,-1.1857,-1.2155,-1.2312,-1.2487,-1.2655,-1.2655,-1.2655,-1.2649,-1.2594,-1.2564,-1.2558,-1.2454,-1.235,-1.1956,-1.1867,-1.1801,-1.1415,-1.1403,-1.157,-1.2574,-1.2564,-1.2444,-1.2395,-1.2384,-1.2265,-1.2216,-1.221,-1.2183,-1.2118,-1.2036,-1.2025,-1.1982,-1.1906,-1.19,-1.19,-1.19,-1.19,-1.19,-1.19,-1.19,-1.19,-1.1906,-1.1993,-1.2025,-1.2042,-1.2129,-1.2172,-1.2172,-1.2172,-1.2172,-1.2178,-1.2199,-1.2259,-1.2352,-1.2384,-1.2444,-1.2515,-1.2352,-1.2254,-1.2254,-1.2227,-1.2167,-1.2074,-1.2015,-1.19,-1.1726,-1.1667,-1.1547,-1.1368,-1.133,-1.1259,-1.115,-1.1139,-1.1085,-1.0976,-1.0933,-1.0867,-1.0748,-1.065,-1.0547,-1.0433,-1.0313,-1.0231,-1.0035,-0.9933,-1.0019,-1.0019,-1.0019,-1.0019,-1.0019,-1.0019,-1.0019,-1.0019,-1.0019,-1.0057,-1.0144,-1.0161,-1.021,-1.0329,-1.0422,-1.0487,-1.0558,-1.0639,-1.0699,-1.0742,-1.0824,-1.0873,-1.0889,-1.0987,-1.1096,-1.1183,-1.1291,-1.1324,-1.1248,-1.1237,-1.1373,-1.1629,-1.1629,-1.1813,-1.1974,-1.2134,-1.2128,-1.214,-1.2104,-1.2081,-1.2069,-1.1974,-1.1734,-1.1368,-1.1305,-1.1081,-1.0904,-1.0737,-1.0904,-1.2689,-1.2672,-1.2564,-1.252,-1.2498,-1.239,-1.2341,-1.2324,-1.2221,-1.2167,-1.2156,-1.2156,-1.2145,-1.214,-1.2134,-1.2129,-1.2129,-1.214,-1.2129,-1.2129,-1.214,-1.214,-1.2129,-1.2145,-1.2156,-1.2156,-1.2167,-1.2172,-1.2172,-1.2172,-1.2172,-1.2183,-1.2281,-1.2341,-1.2368,-1.2466,-1.2526,-1.2536,-1.2515,-1.2504,-1.2498,-1.2395,-1.2335,-1.2319,-1.2102,-1.1976,-1.1938,-1.1754,-1.1629,-1.1596,-1.1493,-1.1384,-1.1275,-1.1259,-1.1204,-1.109,-1.0982,-1.0867,-1.0753,-1.0726,-1.0666,-1.0547,-1.0433,-1.0324,-1.0056,-0.9939,-1.0019,-1.0019,-1.0019,-1.0019,-1.0019,-1.0019,-1.0019,-1.0019,-1.0019,-1.0025,-1.0041,-1.0036,-1.0085,-1.0204,-1.0248,-1.0318,-1.0503,-1.0579,-1.0628,-1.0726,-1.0759,-1.0775,-1.078,-1.0862,-1.0938,-1.0971,-1.1058,-1.1123,-1.1112,-1.1118,-1.1101,-1.1262,-1.1096,-1.1246,-1.1401,-1.1412,-1.1268,-1.1362,-1.1163,-1.1278,-1.1075,-1.1009,-1.0931,-1.0948,-1.092,-1.0737,-1.0737,-1.0737,-1.0904,-1.2814,-1.2803,-1.2683,-1.2596,-1.2531,-1.2482,-1.246,-1.2449,-1.2335,-1.2281,-1.227,-1.2205,-1.2172,-1.2172,-1.2172,-1.2172,-1.2172,-1.2172,-1.2172,-1.2172,-1.2172,-1.2172,-1.2172,-1.2172,-1.2172,-1.2172,-1.2172,-1.2172,-1.2172,-1.2172,-1.221,-1.2275,-1.233,-1.2422,-1.2553,-1.2613,-1.2667,-1.2743,-1.2743,-1.2743,-1.2721,-1.2558,-1.2428,-1.2352,-1.2254,-1.2129,-1.1998,-1.1889,-1.1781,-1.165,-1.1585,-1.1509,-1.1384,-1.1378,-1.1324,-1.1204,-1.1025,-1.0867,-1.0742,-1.0737,-1.0715,-1.0666,-1.0552,-1.0438,-1.0158,-1.0199,-1.0101,-1.003,-1.0019,-1.0019,-1.0019,-1.0019,-1.0019,-1.0019,-1.0019,-1.0019,-1.0019,-1.0019,-1.0047,-1.0095,-1.0161,-1.0264,-1.0433,-1.0579,-1.0672,-1.0726,-1.0737,-1.0737,-1.0742,-1.078,-1.0808,-1.0813,-1.0857,-1.0916,-1.0971,-1.0992,-1.0965,-1.0911,-1.0889,-1.0884,-1.0895,-1.0889,-1.0884,-1.0889,-1.0857,-1.0824,-1.0808,-1.0786,-1.0737,-1.0737,-1.0737,-1.0737,-1.0737,-1.0737,-1.0737,-1.289,-1.2873,-1.2792,-1.2705,-1.2629,-1.2596,-1.2585,-1.2569,-1.2455,-1.2384,-1.2346,-1.2259,-1.2199,-1.2178,-1.2172,-1.2172,-1.2172,-1.2172,-1.2172,-1.2172,-1.2172,-1.2172,-1.2172,-1.2172,-1.2172,-1.2172,-1.2172,-1.2172,-1.2178,-1.221,-1.227,-1.2352,-1.2417,-1.2536,-1.2689,-1.2732,-1.2797,-1.2879,-1.289,-1.289,-1.2863,-1.2721,-1.2558,-1.2422,-1.2368,-1.2254,-1.2053,-1.2009,-1.1911,-1.1743,-1.1672,-1.1596,-1.1509,-1.1471,-1.14,-1.1275,-1.1085,-1.0916,-1.0797,-1.0753,-1.0737,-1.0726,-1.0623,-1.052,-1.0433,-1.0324,-1.0204,-1.009,-1.0068,-1.0068,-1.0025,-1.0019,-1.0019,-1.0019,-1.0019,-1.0019,-1.0019,-1.0019,-1.0019,-1.003,-1.0095,-1.0215,-1.0373,-1.0552,-1.0683,-1.0726,-1.0737,-1.0737,-1.0737,-1.0737,-1.0742,-1.0737,-1.0737,-1.0775,-1.0851,-1.0867,-1.0819,-1.078,-1.0753,-1.0759,-1.0737,-1.0737,-1.0742,-1.0808,-1.0753,-1.0737,-1.0759,-1.0742,-1.0737,-1.0737,-1.0737,-1.0737,-1.0737,-1.0737,-1.0737,-1.289,-1.289,-1.2884,-1.2868,-1.2863,-1.2748,-1.27,-1.2689,-1.258,-1.2466,-1.2379,-1.2346,-1.2281,-1.2178,-1.2178,-1.2172,-1.2172,-1.2172,-1.2172,-1.2172,-1.2172,-1.2172,-1.2172,-1.2172,-1.2172,-1.2172,-1.2172,-1.2178,-1.2188,-1.2286,-1.2352,-1.2368,-1.2569,-1.2689,-1.2727,-1.2819,-1.2879,-1.289,-1.289,-1.289,-1.289,-1.2873,-1.2748,-1.2542,-1.2417,-1.2297,-1.2167,-1.2053,-1.1982,-1.1966,-1.1759,-1.1634,-1.1618,-1.152,-1.14,-1.1275,-1.1156,-1.1036,-1.0911,-1.0802,-1.0737,-1.0721,-1.0634,-1.0552,-1.053,-1.0438,-1.0329,-1.021,-1.0193,-1.015,-1.0063,-1.0047,-1.0036,-1.003,-1.0025,-1.003,-1.0019,-1.0019,-1.0019,-1.0019,-1.0047,-1.0161,-1.0362,-1.0487,-1.0617,-1.0704,-1.0737,-1.0737,-1.0737,-1.0737,-1.0737,-1.0737,-1.0737,-1.0737,-1.0748,-1.0775,-1.0764,-1.0742,-1.0737,-1.0737,-1.0737,-1.0737,-1.0737,-1.0737,-1.0737,-1.0737,-1.0737,-1.0737,-1.0737,-1.0737,-1.0737,-1.0737,-1.0737,-1.0737,-1.0737,-1.289,-1.289,-1.289,-1.289,-1.2884,-1.2841,-1.2825,-1.2814,-1.2694,-1.2623,-1.2558,-1.2422,-1.233,-1.2286,-1.2205,-1.2172,-1.2172,-1.2172,-1.2172,-1.2172,-1.2172,-1.2172,-1.2172,-1.2172,-1.2172,-1.2172,-1.2172,-1.2216,-1.2286,-1.2335,-1.2433,-1.2569,-1.2656,-1.2743,-1.2814,-1.2863,-1.289,-1.289,-1.289,-1.289,-1.289,-1.289,-1.2808,-1.2651,-1.2531,-1.2373,-1.2178,-1.2129,-1.2069,-1.1993,-1.1835,-1.1716,-1.1634,-1.1525,-1.14,-1.1281,-1.1166,-1.1047,-1.0927,-1.0808,-1.0737,-1.0732,-1.0699,-1.0634,-1.0568,-1.0514,-1.0443,-1.0351,-1.0318,-1.0291,-1.0253,-1.0188,-1.0134,-1.0139,-1.0134,-1.0101,-1.0041,-1.0019,-1.0019,-1.003,-1.0085,-1.021,-1.0351,-1.0487,-1.0601,-1.071,-1.0737,-1.0737,-1.0737,-1.0737,-1.0737,-1.0737,-1.0737,-1.0737,-1.0737,-1.0737,-1.0737,-1.0737,-1.0737,-1.0737,-1.0737,-1.0737,-1.0737,-1.0737,-1.0737,-1.0737,-1.0737,-1.0737,-1.0737,-1.0737,-1.0737,-1.0737,-1.0737,-1.0737,-1.0737,-1.289,-1.289,-1.289,-1.289,-1.289,-1.289,-1.289,-1.2879,-1.2803,-1.2743,-1.2672,-1.2498,-1.2395,-1.2341,-1.2227,-1.2172,-1.2172,-1.2172,-1.2172,-1.2172,-1.2172,-1.2172,-1.2172,-1.2172,-1.2172,-1.2183,-1.2216,-1.2275,-1.2357,-1.2433,-1.2553,-1.2694,-1.2743,-1.2803,-1.2879,-1.289,-1.289,-1.289,-1.289,-1.289,-1.289,-1.289,-1.283,-1.271,-1.2596,-1.2439,-1.2237,-1.2194,-1.214,-1.2047,-1.1938,-1.1803,-1.1645,-1.152,-1.1417,-1.133,-1.1226,-1.1107,-1.0987,-1.0867,-1.078,-1.0737,-1.0732,-1.0693,-1.0623,-1.0612,-1.0558,-1.0471,-1.0438,-1.0443,-1.0427,-1.0367,-1.0302,-1.0264,-1.0226,-1.0172,-1.009,-1.0047,-1.0025,-1.003,-1.0079,-1.0204,-1.0356,-1.0443,-1.0568,-1.071,-1.0737,-1.0737,-1.0737,-1.0737,-1.0737,-1.0737,-1.0737,-1.0737,-1.0737,-1.0737,-1.0737,-1.0737,-1.0737,-1.0737,-1.0737,-1.0737,-1.0737,-1.0737,-1.0737,-1.0737,-1.0737,-1.0737,-1.0737,-1.0737,-1.0737,-1.0737,-1.0737,-1.0737,-1.0737,-1.289,-1.289,-1.289,-1.289,-1.289,-1.289,-1.289,-1.2884,-1.2879,-1.2814,-1.2716,-1.2585,-1.2482,-1.2368,-1.2254,-1.2183,-1.2188,-1.2178,-1.2172,-1.2172,-1.2172,-1.2172,-1.2172,-1.2172,-1.2183,-1.2199,-1.2303,-1.2357,-1.2395,-1.2574,-1.2689,-1.2732,-1.2825,-1.2873,-1.289,-1.289,-1.289,-1.289,-1.289,-1.289,-1.289,-1.289,-1.2835,-1.2721,-1.2602,-1.2482,-1.2357,-1.2237,-1.2167,-1.215,-1.2042,-1.1879,-1.1661,-1.152,-1.1455,-1.1427,-1.133,-1.1215,-1.1101,-1.0976,-1.0851,-1.0759,-1.0737,-1.0732,-1.0715,-1.0715,-1.0672,-1.0579,-1.0558,-1.0558,-1.0558,-1.0547,-1.0498,-1.04,-1.0307,-1.0242,-1.0177,-1.009,-1.0019,-1.0019,-1.0036,-1.0128,-1.0302,-1.0394,-1.0492,-1.0655,-1.0726,-1.0737,-1.0737,-1.0737,-1.0737,-1.0737,-1.0737,-1.0737,-1.0737,-1.0737,-1.0737,-1.0737,-1.0737,-1.0737,-1.0737,-1.0737,-1.0737,-1.0737,-1.0737,-1.0737,-1.0737,-1.0737,-1.0737,-1.0737,-1.0737,-1.0737,-1.0737,-1.0737,-1.0737,-1.289,-1.289,-1.289,-1.289,-1.289,-1.289,-1.289,-1.289,-1.289,-1.2863,-1.2814,-1.2705,-1.2629,-1.2558,-1.2395,-1.2297,-1.2292,-1.2216,-1.2172,-1.2178,-1.2178,-1.2178,-1.2178,-1.2178,-1.2216,-1.2308,-1.2417,-1.252,-1.2591,-1.2672,-1.2743,-1.2825,-1.2868,-1.289,-1.289,-1.289,-1.289,-1.289,-1.289,-1.289,-1.289,-1.289,-1.2868,-1.2814,-1.264,-1.2515,-1.2471,-1.2281,-1.2178,-1.2172,-1.2053,-1.1879,-1.1667,-1.152,-1.146,-1.1444,-1.134,-1.1221,-1.1107,-1.0992,-1.0873,-1.077,-1.0737,-1.0737,-1.0737,-1.0737,-1.0721,-1.0677,-1.0677,-1.0683,-1.0677,-1.0683,-1.0623,-1.0514,-1.0465,-1.0367,-1.0215,-1.0095,-1.003,-1.0019,-1.0019,-1.0095,-1.0231,-1.0318,-1.0449,-1.059,-1.0683,-1.0737,-1.0737,-1.0737,-1.0737,-1.0737,-1.0737,-1.0737,-1.0737,-1.0737,-1.0737,-1.0737,-1.0737,-1.0737,-1.0737,-1.0737,-1.0737,-1.0737,-1.0737,-1.0737,-1.0737,-1.0737,-1.0737,-1.0737,-1.0737,-1.0737,-1.0737,-1.0737,-1.0737,-1.302,-1.3015,-1.302,-1.3015,-1.3015,-1.2977,-1.2955,-1.295,-1.2906,-1.289,-1.2863,-1.2759,-1.2705,-1.2667,-1.2504,-1.2422,-1.2411,-1.2341,-1.2308,-1.2286,-1.2194,-1.2194,-1.2243,-1.2292,-1.2341,-1.2428,-1.2542,-1.2634,-1.27,-1.2754,-1.2814,-1.2879,-1.289,-1.289,-1.289,-1.289,-1.2901,-1.2944,-1.2955,-1.2955,-1.2955,-1.2955,-1.2933,-1.2868,-1.27,-1.2585,-1.2526,-1.2341,-1.2216,-1.2156,-1.202,-1.1851,-1.1705,-1.1552,-1.1455,-1.1438,-1.1384,-1.1291,-1.1172,-1.1063,-1.0933,-1.0829,-1.0764,-1.0737,-1.0737,-1.0737,-1.0737,-1.0737,-1.0732,-1.0737,-1.0732,-1.0732,-1.0699,-1.0634,-1.0574,-1.0454,-1.0242,-1.0095,-1.003,-1.0019,-1.0019,-1.0085,-1.0188,-1.0313,-1.0427,-1.0541,-1.0661,-1.0737,-1.0737,-1.0737,-1.0737,-1.0737,-1.0737,-1.0737,-1.0737,-1.0737,-1.0737,-1.0737,-1.0737,-1.0737,-1.0737,-1.0737,-1.0737,-1.0737,-1.0737,-1.0737,-1.0737,-1.0737,-1.0737,-1.0737,-1.0737,-1.0737,-1.0737,-1.0737,-1.0737,-1.3032,-1.3238,-1.3032,-1.3016,-1.3205,-1.3118,-1.308,-1.3058,-1.2955,-1.2711,-1.2679,-1.2588,-1.2529,-1.2497,-1.2401,-1.2347,-1.2342,-1.2315,-1.2299,-1.2251,-1.2138,-1.2085,-1.2368,-1.2471,-1.2526,-1.2558,-1.2661,-1.2716,-1.2743,-1.2825,-1.289,-1.289,-1.289,-1.289,-1.2895,-1.2895,-1.296,-1.3042,-1.3069,-1.308,-1.3075,-1.3064,-1.3015,-1.2906,-1.277,-1.2645,-1.2531,-1.2384,-1.227,-1.2161,-1.1971,-1.1846,-1.1775,-1.159,-1.1476,-1.146,-1.1455,-1.1378,-1.1275,-1.1172,-1.1047,-1.0911,-1.0819,-1.0742,-1.0742,-1.0737,-1.0737,-1.0737,-1.0737,-1.0737,-1.0737,-1.0737,-1.0732,-1.0721,-1.0623,-1.0465,-1.0264,-1.0128,-1.0063,-1.0041,-1.0036,-1.0057,-1.0172,-1.0291,-1.0422,-1.052,-1.0645,-1.0721,-1.0737,-1.0737,-1.0737,-1.0737,-1.0737,-1.0737,-1.0737,-1.0737,-1.0737,-1.0737,-1.0737,-1.0737,-1.0737,-1.0737,-1.0737,-1.0737,-1.0737,-1.0737,-1.0737,-1.0737,-1.0737,-1.0737,-1.0737,-1.0737,-1.0737,-1.0737,-1.0737,-1.2215,-1.2621,-1.242,-1.2626,-1.3238,-1.3205,-1.2989,-1.2564,-1.246,-1.2211,-1.1984,-1.1693,-1.1639,-1.1629,-1.1525,-1.1481,-1.1466,-1.1402,-1.1358,-1.1348,-1.1309,-1.1676,-1.231,-1.2602,-1.2661,-1.2678,-1.277,-1.2841,-1.2841,-1.2873,-1.289,-1.289,-1.289,-1.289,-1.2895,-1.2977,-1.3037,-1.308,-1.3162,-1.3194,-1.3183,-1.3118,-1.3058,-1.3015,-1.2825,-1.2661,-1.2531,-1.233,-1.221,-1.2167,-1.2031,-1.19,-1.1813,-1.1667,-1.1542,-1.1471,-1.1455,-1.1406,-1.1297,-1.1243,-1.1128,-1.0949,-1.0889,-1.0829,-1.0742,-1.0737,-1.0737,-1.0737,-1.0737,-1.0737,-1.0737,-1.0737,-1.0737,-1.0721,-1.0634,-1.0536,-1.0438,-1.0286,-1.0155,-1.015,-1.0074,-1.0052,-1.0101,-1.0253,-1.0394,-1.046,-1.0596,-1.0737,-1.0737,-1.0737,-1.0737,-1.0737,-1.0737,-1.0737,-1.0737,-1.0737,-1.0737,-1.0737,-1.0737,-1.0737,-1.0737,-1.0737,-1.0737,-1.0737,-1.0737,-1.0737,-1.0737,-1.0737,-1.0737,-1.0737,-1.0737,-1.0737,-1.0737,-1.0737,-1.0737,-1.1938,-1.2142,-1.1938,-1.2147,-1.2553,-1.2714,-1.2487,-1.2053,-1.1964,-1.1686,-1.144,-1.1382,-1.1325,-1.1278,-1.1216,-1.1192,-1.1182,-1.1125,-1.1102,-1.1102,-1.1102,-1.1471,-1.1865,-1.2129,-1.2384,-1.2588,-1.2852,-1.2884,-1.2884,-1.289,-1.289,-1.289,-1.289,-1.2912,-1.2971,-1.3031,-1.3129,-1.3211,-1.3287,-1.3314,-1.3308,-1.3254,-1.3156,-1.3086,-1.2917,-1.2776,-1.2553,-1.2352,-1.2227,-1.2161,-1.2053,-1.1938,-1.1824,-1.1699,-1.158,-1.1465,-1.1455,-1.1422,-1.1357,-1.1308,-1.121,-1.1079,-1.0992,-1.0895,-1.0819,-1.077,-1.0737,-1.0737,-1.0737,-1.0737,-1.0737,-1.0737,-1.0737,-1.0726,-1.0672,-1.0612,-1.0563,-1.034,-1.0226,-1.0177,-1.0101,-1.0019,-1.0025,-1.0237,-1.0351,-1.0433,-1.0596,-1.0688,-1.0737,-1.0737,-1.0737,-1.0737,-1.0737,-1.0737,-1.0737,-1.0737,-1.0737,-1.0737,-1.0737,-1.0737,-1.0737,-1.0737,-1.0737,-1.0737,-1.0737,-1.0737,-1.0737,-1.0737,-1.0737,-1.0737,-1.0737,-1.0737,-1.0742,-1.0764,-1.0759,-1.1699,-1.1911,-1.1699,-1.1699,-1.1887,-1.1806,-1.1763,-1.154,-1.1658,-1.1358,-1.1274,-1.1246,-1.0969,-1.1087,-1.0868,-1.1077,-1.1077,-1.0854,-1.1063,-1.1059,-1.0849,-1.1016,-1.096,-1.1619,-1.2063,-1.2069,-1.2684,-1.289,-1.289,-1.289,-1.289,-1.2901,-1.2901,-1.2966,-1.3047,-1.3102,-1.3227,-1.3363,-1.3423,-1.3439,-1.3433,-1.3395,-1.3287,-1.3124,-1.2988,-1.2814,-1.258,-1.2406,-1.2297,-1.2172,-1.2063,-1.1966,-1.1851,-1.1721,-1.1607,-1.1504,-1.1471,-1.1455,-1.1438,-1.1351,-1.1286,-1.1226,-1.1063,-1.0949,-1.0922,-1.0846,-1.0775,-1.078,-1.0748,-1.0737,-1.0737,-1.0737,-1.0737,-1.0732,-1.0732,-1.0683,-1.0568,-1.0373,-1.0237,-1.0215,-1.0117,-1.0052,-1.0085,-1.0215,-1.0384,-1.0405,-1.0574,-1.0699,-1.0737,-1.0737,-1.0737,-1.0737,-1.0737,-1.0737,-1.0737,-1.0737,-1.0737,-1.0737,-1.0737,-1.0737,-1.0737,-1.0737,-1.0737,-1.0737,-1.0737,-1.0737,-1.0737,-1.0737,-1.0737,-1.0737,-1.0737,-1.0748,-1.0764,-1.0797,-1.0808,-1.0852,-1.1276,-1.0843,-1.1059,-1.1694,-1.146,-1.1235,-1.1231,-1.1136,-1.0834,-1.0334,-1.0262,-1.0176,-1.0083,-1.0083,-1.0083,-1.0079,-1.0083,-1.0083,-1.0079,-1.0083,-1.0074,-1.0249,-1.1077,-1.1483,-1.1683,-1.2495,-1.2695,-1.2489,-1.2695,-1.289,-1.2906,-1.2993,-1.3047,-1.3096,-1.3249,-1.3357,-1.3433,-1.351,-1.3553,-1.3531,-1.3466,-1.3357,-1.3189,-1.295,-1.2721,-1.2558,-1.2417,-1.2297,-1.2199,-1.214,-1.2063,-1.1944,-1.1835,-1.1716,-1.1596,-1.1504,-1.146,-1.1449,-1.1422,-1.1368,-1.1286,-1.1215,-1.1161,-1.1063,-1.0949,-1.0889,-1.0862,-1.0797,-1.0753,-1.0737,-1.0737,-1.0737,-1.0737,-1.0737,-1.0726,-1.0683,-1.0563,-1.0438,-1.0346,-1.0242,-1.0134,-1.0057,-1.0259,-1.0378,-1.0416,-1.0541,-1.0704,-1.0737,-1.0737,-1.0737,-1.0737,-1.0737,-1.0737,-1.0737,-1.0737,-1.0737,-1.0737,-1.0737,-1.0737,-1.0737,-1.0737,-1.0737,-1.0737,-1.0737,-1.0737,-1.0737,-1.0737,-1.0737,-1.0737,-1.0753,-1.0802,-1.084,-1.0857,-1.0884,-1.0216,-1.064,-1.0212,-1.0636,-1.1064,-1.0848,-1.0636,-1.0632,-1.0589,-1.0303,-1.0008,-0.9922,-0.9828,-0.9742,-0.9702,-0.9681,-0.9681,-0.9681,-0.9681,-0.9681,-0.9681,-0.9681,-0.9681,-1.0279,-1.0685,-1.1087,-1.1688,-1.1889,-1.1899,-1.2547,-1.2988,-1.2781,-1.2888,-1.3183,-1.3227,-1.3363,-1.3444,-1.351,-1.3564,-1.3607,-1.3586,-1.3542,-1.3406,-1.3227,-1.295,-1.2716,-1.2547,-1.2482,-1.2346,-1.2221,-1.2172,-1.2118,-1.2009,-1.1928,-1.1819,-1.1656,-1.1585,-1.1504,-1.1476,-1.1455,-1.1427,-1.1362,-1.1308,-1.1248,-1.1172,-1.1074,-1.0982,-1.0922,-1.0862,-1.0808,-1.0748,-1.0737,-1.0737,-1.0737,-1.0737,-1.0737,-1.0715,-1.0628,-1.0541,-1.046,-1.0362,-1.028,-1.028,-1.0362,-1.0427,-1.0492,-1.059,-1.0737,-1.0737,-1.0737,-1.0737,-1.0737,-1.0737,-1.0737,-1.0737,-1.0737,-1.0737,-1.0737,-1.0737,-1.0737,-1.0737,-1.0737,-1.0737,-1.0737,-1.0737,-1.0737,-1.0737,-1.0737,-1.077,-1.0819,-1.0857,-1.09,-1.0944,-1.0987,-1.1014,-0.958,-1.0004,-1.0216,-1.0216,-1.0216,-1.0216,-1.0216,-1.0216,-1.0216,-1.0143,-1.0061,-0.9983,-0.9881,-0.9791,-0.9714,-0.9685,-0.9702,-0.971,-0.9722,-0.9751,-0.9755,-0.9755,-0.9751,-0.9949,-1.0151,-1.0529,-1.0923,-1.0918,-1.1349,-1.2024,-1.2278,-1.2298,-1.28,-1.3091,-1.339,-1.3444,-1.3499,-1.358,-1.3597,-1.3607,-1.3607,-1.3586,-1.3471,-1.3238,-1.3004,-1.2781,-1.2613,-1.2531,-1.2428,-1.2216,-1.2183,-1.2118,-1.2047,-1.2168,-1.2102,-1.1705,-1.1683,-1.1612,-1.1531,-1.1493,-1.1482,-1.146,-1.1368,-1.1313,-1.1275,-1.1199,-1.1101,-1.1014,-1.0944,-1.0857,-1.0753,-1.0737,-1.0737,-1.0737,-1.0737,-1.0737,-1.0715,-1.0639,-1.0596,-1.0536,-1.0465,-1.0394,-1.0394,-1.0443,-1.0509,-1.0574,-1.0672,-1.0737,-1.0737,-1.0737,-1.0737,-1.0737,-1.0737,-1.0737,-1.0737,-1.0737,-1.0737,-1.0737,-1.0737,-1.0737,-1.0737,-1.0737,-1.0737,-1.0737,-1.0737,-1.0737,-1.0759,-1.0786,-1.0829,-1.09,-1.096,-1.1003,-1.1058,-1.1118,-1.1145,-0.9367,-0.9583,-1.0004,-1.0216,-1.0216,-1.0216,-1.0216,-1.0216,-1.0216,-1.0122,-0.9991,-0.9959,-0.9865,-0.9742,-0.9693,-0.9722,-0.9767,-0.9791,-0.9828,-0.9877,-0.9885,-0.9881,-0.9877,-0.9873,-0.9889,-0.9885,-1.004,-1.041,-1.0626,-1.0688,-1.1358,-1.2204,-1.2709,-1.3,-1.3246,-1.3515,-1.3564,-1.3597,-1.3607,-1.3607,-1.3607,-1.3564,-1.3471,-1.3238,-1.3009,-1.2825,-1.2689,-1.258,-1.2471,-1.2335,-1.2227,-1.2167,-1.2118,-1.2234,-1.2157,-1.19,-1.1824,-1.1732,-1.1629,-1.1596,-1.1547,-1.1482,-1.1427,-1.1422,-1.1389,-1.1319,-1.1226,-1.115,-1.1014,-1.0867,-1.0748,-1.0742,-1.0737,-1.0737,-1.0737,-1.0737,-1.0732,-1.0704,-1.0655,-1.059,-1.0541,-1.0514,-1.052,-1.053,-1.0574,-1.0617,-1.0677,-1.0726,-1.0737,-1.0737,-1.0737,-1.0737,-1.0737,-1.0737,-1.0737,-1.0737,-1.0737,-1.0737,-1.0737,-1.0737,-1.0737,-1.0737,-1.0737,-1.0737,-1.0742,-1.0748,-1.0775,-1.0824,-1.09,-1.0982,-1.1041,-1.1107,-1.1183,-1.1253,-1.1291,-0.873,-0.8946,-0.958,-0.9792,-0.9792,-1.0004,-1.0216,-1.0216,-1.0212,-1.0143,-1.0036,-0.9971,-0.9881,-0.9767,-0.9693,-0.973,-0.9808,-0.9873,-0.991,-0.9951,-0.9951,-0.9951,-0.9959,-0.9959,-0.9951,-0.9951,-0.9938,-0.9918,-1.0308,-1.0174,-1.0626,-1.1489,-1.2201,-1.2885,-1.3101,-1.3359,-1.3602,-1.3607,-1.3607,-1.3607,-1.3586,-1.3504,-1.3341,-1.3221,-1.302,-1.2835,-1.271,-1.2596,-1.2477,-1.2357,-1.2237,-1.2188,-1.2156,-1.2118,-1.2053,-1.1993,-1.1938,-1.1857,-1.1737,-1.1683,-1.1601,-1.1558,-1.1498,-1.146,-1.1444,-1.1395,-1.1335,-1.1237,-1.1069,-1.09,-1.084,-1.0775,-1.0742,-1.0737,-1.0737,-1.0737,-1.0737,-1.0737,-1.0693,-1.0645,-1.0639,-1.0628,-1.0623,-1.0634,-1.0645,-1.0672,-1.0704,-1.0721,-1.0732,-1.0737,-1.0737,-1.0737,-1.0737,-1.0737,-1.0737,-1.0737,-1.0737,-1.0737,-1.0737,-1.0737,-1.0742,-1.0748,-1.0742,-1.0737,-1.0742,-1.0791,-1.0829,-1.0889,-1.0976,-1.1063,-1.1145,-1.1226,-1.1313,-1.1378,-1.14,-0.7881,-0.8306,-0.8943,-0.9159,-0.9371,-0.958,-0.9792,-0.9792,-0.9792,-0.9729,-0.9635,-0.9565,-0.949,-0.9412,-0.9576,-0.9588,-0.9668,-0.9748,-0.9784,-0.9812,-0.9608,-0.9596,-0.9596,-0.9592,-0.9608,-0.9419,-0.9864,-0.9856,-1.0008,-1.0061,-1.0517,-1.1167,-1.2088,-1.2545,-1.2752,-1.3174,-1.3391,-1.3391,-1.3602,-1.3607,-1.3548,-1.3379,-1.3238,-1.3216,-1.3015,-1.2841,-1.2754,-1.2607,-1.2504,-1.2384,-1.227,-1.2172,-1.2172,-1.2172,-1.2123,-1.2042,-1.2025,-1.196,-1.1862,-1.1781,-1.171,-1.1623,-1.1542,-1.1493,-1.1455,-1.1438,-1.1395,-1.1264,-1.1134,-1.0971,-1.0911,-1.0829,-1.077,-1.0737,-1.0737,-1.0737,-1.0737,-1.0737,-1.0737,-1.0715,-1.0737,-1.0721,-1.0688,-1.0688,-1.0693,-1.0693,-1.0721,-1.0726,-1.0737,-1.0737,-1.0737,-1.0737,-1.0737,-1.0737,-1.0737,-1.0737,-1.0737,-1.0737,-1.0737,-1.0737,-1.0753,-1.077,-1.0775,-1.0802,-1.0857,-1.0905,-1.0933,-1.0976,-1.1085,-1.1183,-1.1264,-1.133,-1.1389,-1.1417,-1.1433,-0.7243,-0.7878,-0.8306,-0.8521,-0.8734,-0.8734,-0.8734,-0.873,-0.8727,-0.8647,-0.8721,-0.8504,-0.8458,-0.8621,-0.9072,-0.9132,-0.9188,-0.9221,-0.9263,-0.93,-0.9104,-0.8893,-0.8696,-0.8706,-0.8893,-0.8889,-0.9553,-1.0155,-0.9896,-0.994,-1.0399,-1.1042,-1.1258,-1.1487,-1.2122,-1.2545,-1.2968,-1.2968,-1.3391,-1.3607,-1.3564,-1.3363,-1.3259,-1.3178,-1.3026,-1.2879,-1.2819,-1.2667,-1.2536,-1.2487,-1.2292,-1.2183,-1.2172,-1.2172,-1.2172,-1.2156,-1.2134,-1.2096,-1.1993,-1.1922,-1.1824,-1.1699,-1.1612,-1.1552,-1.1487,-1.1449,-1.1406,-1.1286,-1.1226,-1.1134,-1.0998,-1.0916,-1.0846,-1.0797,-1.0775,-1.0759,-1.0748,-1.0737,-1.0737,-1.0737,-1.0737,-1.0737,-1.0721,-1.0726,-1.0732,-1.0732,-1.0737,-1.0737,-1.0737,-1.0737,-1.0737,-1.0737,-1.0737,-1.0737,-1.0737,-1.0737,-1.0764,-1.0759,-1.0764,-1.077,-1.0829,-1.0873,-1.0884,-1.0922,-1.0976,-1.1009,-1.102,-1.1085,-1.1204,-1.1286,-1.1346,-1.1395,-1.1444,-1.1455,-1.1455,-0.5967,-0.6818,-0.7668,-0.8093,-0.8093,-0.8309,-0.8494,-0.8464,-0.8453,-0.8372,-0.8259,-0.828,-0.8273,-0.8057,-0.8528,-0.858,-0.8622,-0.8657,-0.8907,-0.8936,-0.8521,-0.8521,-0.8518,-0.8521,-0.8521,-0.8525,-0.895,-0.9148,-0.9334,-0.9764,-1.022,-1.0216,-1.064,-1.1276,-1.1487,-1.1911,-1.2545,-1.2757,-1.3391,-1.3607,-1.3542,-1.3379,-1.3238,-1.3232,-1.3009,-1.2912,-1.2846,-1.2732,-1.2596,-1.2531,-1.2357,-1.2243,-1.2194,-1.2172,-1.2172,-1.2172,-1.2172,-1.2145,-1.2096,-1.2031,-1.1906,-1.177,-1.1672,-1.158,-1.1493,-1.1455,-1.1438,-1.1384,-1.1308,-1.1215,-1.1123,-1.1058,-1.1009,-1.0949,-1.0867,-1.0846,-1.0819,-1.0748,-1.0737,-1.0737,-1.0737,-1.0737,-1.0737,-1.0737,-1.0737,-1.0737,-1.0737,-1.0737,-1.0737,-1.0737,-1.0737,-1.0737,-1.0737,-1.0737,-1.0737,-1.0737,-1.0813,-1.0829,-1.0862,-1.0884,-1.0954,-1.0998,-1.1014,-1.1052,-1.1118,-1.1128,-1.1118,-1.1177,-1.1275,-1.1351,-1.1417,-1.1438,-1.1455,-1.1455,-1.1455,-0.4689,-0.5756,-0.703,-0.7456,-0.7453,-0.7865,-0.8038,-0.799,-0.7967,-0.7899,-0.7844,-0.7873,-0.7701,-0.7714,-0.7974,-0.8226,-0.8019,-0.8282,-0.8302,-0.8309,-0.8096,-0.8096,-0.7884,-0.7884,-0.7884,-0.7884,-0.7887,-0.7881,-0.7878,-0.8306,-0.873,-0.9155,-0.9792,-1.0428,-1.0852,-1.1276,-1.1699,-1.2545,-1.2968,-1.3391,-1.3348,-1.3363,-1.3265,-1.3172,-1.3037,-1.289,-1.2868,-1.2765,-1.2651,-1.2536,-1.2417,-1.2286,-1.2194,-1.2172,-1.2172,-1.2172,-1.2172,-1.2172,-1.214,-1.2085,-1.1982,-1.1857,-1.171,-1.1585,-1.1482,-1.1455,-1.1455,-1.1438,-1.1384,-1.1319,-1.1259,-1.1183,-1.1123,-1.1063,-1.1009,-1.0987,-1.0949,-1.0867,-1.0808,-1.0802,-1.0786,-1.0737,-1.0737,-1.0737,-1.0737,-1.0737,-1.0737,-1.0737,-1.0748,-1.0753,-1.0753,-1.0759,-1.0802,-1.0808,-1.0808,-1.0819,-1.0873,-1.0916,-1.0949,-1.0987,-1.1052,-1.1107,-1.1139,-1.1188,-1.1243,-1.1275,-1.1281,-1.1313,-1.134,-1.1395,-1.1438,-1.1449,-1.1455,-1.1455,-1.1455,-0.3839,-0.4693,-0.6179,-0.6815,-0.6809,-0.6755,-0.694,-0.6915,-0.687,-0.6845,-0.6836,-0.6898,-0.6924,-0.6943,-0.7405,-0.765,-0.7656,-0.7665,-0.7668,-0.7456,-0.7243,-0.703,-0.6818,-0.6608,-0.6395,-0.6395,-0.6608,-0.6395,-0.5754,-0.5962,-0.7027,-0.8309,-0.873,-0.9155,-0.958,-1.0216,-1.1064,-1.1911,-1.2545,-1.2757,-1.2911,-1.2979,-1.3054,-1.3194,-1.3031,-1.289,-1.2879,-1.2781,-1.2672,-1.2564,-1.2449,-1.2324,-1.2232,-1.2183,-1.2172,-1.2172,-1.2172,-1.2172,-1.2156,-1.2145,-1.2085,-1.1949,-1.1775,-1.1585,-1.1471,-1.146,-1.1455,-1.1455,-1.1417,-1.1378,-1.1319,-1.1259,-1.1226,-1.1183,-1.1139,-1.1101,-1.1052,-1.0971,-1.0916,-1.0889,-1.0851,-1.0808,-1.0797,-1.0813,-1.0753,-1.0742,-1.0786,-1.0797,-1.0797,-1.0802,-1.0791,-1.0808,-1.0878,-1.0905,-1.0922,-1.0954,-1.1003,-1.1047,-1.1079,-1.1096,-1.1128,-1.1183,-1.1259,-1.1286,-1.1335,-1.1395,-1.1433,-1.1411,-1.1406,-1.1438,-1.1455,-1.1455,-1.1455,-1.1455,-1.1455,-0.2975,-0.4018,-0.4861,-0.5705,-0.6338,-0.6489,-0.6651,-0.6619,-0.6594,-0.6605,-0.664,-0.67,-0.6749,-0.6779,-0.7011,-0.7243,-0.7243,-0.7243,-0.7243,-0.703,-0.6605,-0.6395,-0.6182,-0.5756,-0.5543,-0.5756,-0.5756,-0.5756,-0.5115,-0.4473,-0.4685,-0.5964,-0.7243,-0.8306,-0.8943,-0.958,-1.0216,-1.0852,-1.1699,-1.2122,-1.2299,-1.2614,-1.2699,-1.2616,-1.3102,-1.296,-1.2895,-1.2846,-1.2748,-1.264,-1.2526,-1.2401,-1.2275,-1.2216,-1.2178,-1.2172,-1.2172,-1.2172,-1.2172,-1.2161,-1.2085,-1.1895,-1.1726,-1.159,-1.1487,-1.146,-1.1455,-1.1455,-1.1455,-1.1417,-1.1406,-1.1384,-1.1362,-1.1313,-1.1264,-1.1226,-1.1166,-1.109,-1.1036,-1.1014,-1.096,-1.0905,-1.09,-1.0905,-1.0824,-1.0759,-1.0808,-1.0851,-1.0867,-1.0884,-1.0895,-1.0911,-1.0982,-1.102,-1.1036,-1.1085,-1.1134,-1.1172,-1.121,-1.1226,-1.1253,-1.1324,-1.1389,-1.1411,-1.1406,-1.1433,-1.1449,-1.1455,-1.1455,-1.1455,-1.1455,-1.1455,-1.1455,-1.1455,-1.1455,-0.1696,-0.2525,-0.3565,-0.4818,-0.5859,-0.6221,-0.6383,-0.6556,-0.6553,-0.6597,-0.6665,-0.6728,-0.6777,-0.6809,-0.6818,-0.6818,-0.6818,-0.6608,-0.6605,-0.6395,-0.5969,-0.5756,-0.5543,-0.533,-0.5117,-0.533,-0.4902,-0.4476,-0.3835,-0.3623,-0.3835,-0.4687,-0.5539,-0.6602,-0.7878,-0.873,-0.9367,-0.9792,-1.064,-1.1276,-1.1474,-1.2011,-1.232,-1.222,-1.2507,-1.26,-1.2716,-1.2668,-1.2814,-1.27,-1.2585,-1.2471,-1.2357,-1.2254,-1.2188,-1.2172,-1.2172,-1.2172,-1.2172,-1.2156,-1.208,-1.1917,-1.1781,-1.165,-1.1542,-1.1482,-1.1455,-1.1455,-1.1455,-1.1455,-1.1455,-1.1438,-1.1433,-1.1384,-1.1362,-1.1324,-1.1286,-1.1226,-1.1183,-1.1145,-1.1074,-1.1003,-1.1003,-1.1009,-1.0982,-1.0916,-1.0938,-1.0976,-1.0982,-1.1009,-1.1036,-1.1063,-1.1107,-1.1134,-1.1156,-1.1221,-1.1281,-1.1302,-1.1335,-1.1357,-1.1395,-1.1449,-1.1455,-1.1438,-1.1438,-1.1455,-1.1455,-1.1455,-1.1455,-1.1455,-1.1455,-1.1455,-1.1455,-1.1455,-1.1455,-0.0,-0.042,-0.2293,-0.4154,-0.5597,-0.5757,-0.5935,-0.6341,-0.6556,-0.6619,-0.6717,-0.6779,-0.6809,-0.6818,-0.6818,-0.6605,-0.6605,-0.6182,-0.5969,-0.5969,-0.5543,-0.533,-0.5117,-0.4904,-0.4052,-0.4693,-0.4052,-0.3198,-0.1705,-0.2131,-0.2772,-0.2987,-0.3414,-0.448,-0.5964,-0.724,-0.7665,-0.809,-0.9364,-1.0004,-1.0407,-1.0975,-1.1517,-1.162,-1.193,-1.2232,-1.215,-1.2495,-1.2636,-1.2545,-1.2629,-1.2509,-1.239,-1.2265,-1.2199,-1.2172,-1.2172,-1.2172,-1.2172,-1.2172,-1.2096,-1.1982,-1.1851,-1.1748,-1.1634,-1.1542,-1.1465,-1.1465,-1.1455,-1.1455,-1.1455,-1.1455,-1.1455,-1.1449,-1.1427,-1.1406,-1.1368,-1.1346,-1.1297,-1.1253,-1.1172,-1.1101,-1.1107,-1.1107,-1.1118,-1.1107,-1.1101,-1.1101,-1.1101,-1.115,-1.1194,-1.121,-1.1248,-1.1253,-1.1286,-1.1373,-1.1427,-1.1444,-1.1438,-1.1438,-1.1438,-1.1449,-1.1455,-1.1455,-1.1455,-1.1455,-1.1455,-1.1455,-1.1455,-1.1455,-1.1455,-1.1455,-1.1455,-1.1455,-1.1455,0.1484,0.0,-0.0833,-0.2274,-0.411,-0.4888,-0.5478,-0.5895,-0.6367,-0.6654,-0.6728,-0.679,-0.6818,-0.6818,-0.6395,-0.6182,-0.6182,-0.5754,-0.5541,-0.5756,-0.4904,-0.5119,-0.4693,-0.3624,-0.2345,-0.2132,-0.2131,-0.1492,0.0639,-0.0213,-0.0213,-0.0427,-0.1071,-0.2785,-0.4695,-0.5751,-0.5747,-0.66,-0.7665,-0.8515,-0.8724,-0.9753,-1.0538,-1.0652,-1.1175,-1.1696,-1.1585,-1.2135,-1.2269,-1.2405,-1.2305,-1.239,-1.2471,-1.2357,-1.2254,-1.2199,-1.2178,-1.2172,-1.2172,-1.2161,-1.2112,-1.202,-1.1944,-1.183,-1.1667,-1.1607,-1.1542,-1.1482,-1.1476,-1.1471,-1.1455,-1.1455,-1.1455,-1.1455,-1.1444,-1.1444,-1.1427,-1.1417,-1.1389,-1.1362,-1.1297,-1.1237,-1.1221,-1.1248,-1.1259,-1.1253,-1.1243,-1.1221,-1.1215,-1.1308,-1.1368,-1.1368,-1.1384,-1.1389,-1.1411,-1.1438,-1.1455,-1.1449,-1.1449,-1.1449,-1.1455,-1.1455,-1.1455,-1.1455,-1.1455,-1.1455,-1.1455,-1.1455,-1.1455,-1.1455,-1.1455,-1.1455,-1.1455,-1.1455,-1.1455,0.2545,0.1261,0.0625,-0.0413,-0.2251,-0.365,-0.4659,-0.5508,-0.5781,-0.6056,-0.6333,-0.6165,-0.6179,-0.6182,-0.6182,-0.5969,-0.5756,-0.533,-0.5117,-0.5117,-0.3624,-0.2985,-0.2558,-0.2131,-0.0853,0.0,0.0213,0.0426,0.2131,0.2345,0.2136,0.1715,0.1507,0.0215,-0.1715,-0.2569,-0.4058,-0.4908,-0.5964,-0.6812,-0.7237,-0.8286,-0.9108,-0.9457,-1.0215,-1.0965,-1.1056,-1.1378,-1.1924,-1.1874,-1.1982,-1.2284,-1.2184,-1.2251,-1.2138,-1.2254,-1.1999,-1.1994,-1.1983,-1.1605,-1.1564,-1.1512,-1.1833,-1.1917,-1.1775,-1.1732,-1.1639,-1.1569,-1.1525,-1.1487,-1.1471,-1.1471,-1.1455,-1.1455,-1.1455,-1.1455,-1.1455,-1.1444,-1.1438,-1.1417,-1.14,-1.1357,-1.133,-1.1378,-1.1406,-1.1395,-1.1384,-1.1351,-1.1324,-1.1395,-1.1455,-1.1449,-1.1449,-1.1433,-1.1433,-1.1449,-1.1455,-1.1455,-1.1455,-1.1455,-1.1455,-1.1455,-1.1455,-1.1455,-1.1455,-1.1455,-1.1455,-1.1455,-1.1455,-1.1455,-1.1455,-1.1455,-1.1455,-1.1455,-1.1455,0.3395,0.3154,0.1875,0.0827,-0.0205,-0.2033,-0.3676,-0.4974,-0.4978,-0.5241,-0.5751,-0.5326,-0.5541,-0.5756,-0.5756,-0.533,-0.4902,-0.4691,-0.4478,-0.3839,-0.1918,-0.0853,-0.0426,-0.0426,0.0853,0.2345,0.2772,0.2131,0.3411,0.3198,0.3211,0.3234,0.3028,0.2376,0.1294,-0.0,-0.1933,-0.2992,-0.4047,-0.4898,-0.5751,-0.6812,-0.7423,-0.8009,-0.8807,-0.9569,-0.9889,-1.0626,-1.0973,-1.1301,-1.1201,-1.1545,-1.1648,-1.1513,-1.1823,-1.1931,-1.1647,-1.1426,-1.1411,-1.1037,-1.1033,-1.0998,-1.1501,-1.1823,-1.1758,-1.1489,-1.1399,-1.131,-1.1252,-1.1368,-1.132,-1.1298,-1.1277,-1.1277,-1.1277,-1.1277,-1.1277,-1.1277,-1.1277,-1.1266,-1.1266,-1.1245,-1.1062,-1.1277,-1.1099,-1.1266,-1.1245,-1.1422,-1.14,-1.1411,-1.1455,-1.1455,-1.1455,-1.1455,-1.1455,-1.1455,-1.1455,-1.1455,-1.1455,-1.1455,-1.1455,-1.1455,-1.1455,-1.1455,-1.1455,-1.1455,-1.1455,-1.1455,-1.1455,-1.146,-1.146,-1.1455,-1.1455,-1.1455,-1.1455,0.3407,0.3396,0.2945,0.251,0.2085,0.062,-0.1445,-0.3527,-0.4567,-0.5033,-0.5328,-0.5115,-0.4902,-0.5328,-0.5332,-0.405,-0.2772,-0.1918,-0.1492,-0.0853,-0.0213,0.1066,0.1705,0.1918,0.2558,0.2985,0.3411,0.3411,0.3412,0.3412,0.3429,0.3453,0.348,0.3476,0.3038,0.239,0.0647,-0.0856,-0.2131,-0.2983,-0.4048,-0.4898,-0.5521,-0.6356,-0.7378,-0.7951,-0.8532,-0.9451,-1.0007,-1.0164,-1.0886,-1.1216,-1.1308,-1.1187,-1.1279,-1.1097,-1.1047,-1.0843,-1.0848,-1.0848,-1.0659,-1.0659,-1.0998,-1.0944,-1.089,-1.1026,-1.0961,-1.0881,-1.0806,-1.0926,-1.086,-1.0819,-1.0789,-1.0773,-1.0763,-1.0743,-1.0743,-1.0743,-1.0743,-1.0743,-1.0743,-1.0743,-1.0743,-1.0565,-1.0565,-1.0743,-1.0921,-1.1099,-1.1277,-1.1455,-1.1455,-1.1455,-1.1455,-1.1455,-1.1455,-1.1455,-1.1455,-1.1455,-1.1455,-1.1455,-1.1455,-1.1455,-1.1455,-1.1465,-1.1476,-1.1471,-1.1455,-1.1476,-1.1536,-1.1476,-1.1471,-1.146,-1.146,-1.1465,-1.146,0.3411,0.3407,0.338,0.336,0.3136,0.2496,0.1039,-0.0834,-0.2295,-0.3156,-0.362,-0.3196,-0.277,-0.2343,-0.2557,-0.2131,-0.0853,0.0639,0.1279,0.1279,0.1279,0.2131,0.2985,0.3411,0.3198,0.3411,0.3411,0.3411,0.3414,0.3429,0.3446,0.3476,0.3505,0.3497,0.3271,0.305,0.2597,0.1286,-0.0,-0.1066,-0.1918,-0.2982,-0.3834,-0.4467,-0.5501,-0.6331,-0.6929,-0.8067,-0.8628,-0.8989,-0.9726,-1.0462,-1.0564,-1.0656,-1.0911,-1.0754,-1.0488,-1.0474,-1.028,-1.009,-1.009,-1.009,-1.009,-1.0059,-1.022,-1.0371,-1.0492,-1.0611,-1.0359,-1.0297,-1.023,-1.0168,-1.013,-1.0102,-1.0068,-1.0035,-1.003,-1.003,-1.003,-1.003,-1.003,-1.003,-1.003,-1.003,-1.003,-1.0387,-1.0565,-1.0743,-1.0921,-1.1277,-1.1455,-1.1455,-1.1455,-1.1455,-1.1455,-1.1455,-1.1455,-1.1455,-1.1455,-1.1455,-1.1455,-1.1465,-1.1465,-1.1487,-1.1509,-1.1514,-1.1542,-1.1596,-1.1634,-1.1585,-1.1569,-1.1607,-1.158,-1.1504,-1.1493,0.3411,0.341,0.3381,0.3359,0.333,0.3333,0.3138,0.3158,0.1052,-0.0212,-0.0852,-0.0213,0.0639,0.0853,0.0426,0.0,0.1066,0.2131,0.2772,0.3411,0.2985,0.3198,0.3198,0.3411,0.3411,0.3411,0.3411,0.3412,0.342,0.3437,0.3465,0.3502,0.3527,0.3523,0.3501,0.3499,0.3255,0.278,0.1705,0.1066,0.0426,-0.0639,-0.2131,-0.2344,-0.3403,-0.4667,-0.5472,-0.6465,-0.7232,-0.7581,-0.813,-0.9097,-0.9799,-1.0312,-1.056,-1.0445,-1.0163,-0.9927,-0.972,-0.9522,-0.9332,-0.9332,-0.9142,-0.9328,-0.95,-0.987,-1.0,-0.996,-0.9901,-0.9852,-0.9788,-0.9716,-0.9671,-0.9649,-0.9626,-0.9581,-0.955,-0.9532,-0.95,-0.95,-0.95,-0.9496,-0.9496,-0.9496,-0.9496,-0.9852,-1.003,-1.0209,-1.0575,-1.0931,-1.1293,-1.1471,-1.1455,-1.1455,-1.1455,-1.1455,-1.1455,-1.1455,-1.1465,-1.1455,-1.1455,-1.1465,-1.1482,-1.1552,-1.1629,-1.1639,-1.1667,-1.171,-1.1743,-1.1743,-1.1743,-1.1786,-1.1737,-1.1623,-1.159,0.3411,0.3411,0.3404,0.3396,0.339,0.339,0.3393,0.34,0.2975,0.234,0.2131,0.2345,0.2558,0.2772,0.2558,0.2345,0.2558,0.2772,0.3198,0.3411,0.3411,0.3411,0.3411,0.3411,0.3411,0.3411,0.3411,0.3412,0.3419,0.3444,0.3474,0.3504,0.3531,0.3535,0.3505,0.3502,0.3474,0.3416,0.2985,0.2558,0.2345,0.1279,0.0213,-0.0426,-0.149,-0.2767,-0.3596,-0.4627,-0.5632,-0.6619,-0.7377,-0.8103,-0.8986,-0.9534,-0.9824,-0.9696,-0.9645,-0.9403,-0.9361,-0.915,-0.9146,-0.9146,-0.9146,-0.9146,-0.9142,-0.9332,-0.9505,-0.9471,-0.9432,-0.9385,-0.9334,-0.9266,-0.9207,-0.9194,-0.9177,-0.9122,-0.9067,-0.9024,-0.8977,-0.8973,-0.8969,-0.8969,-0.8973,-0.9152,-0.9143,-0.9322,-0.9496,-0.9678,-1.0059,-1.0421,-1.0799,-1.1152,-1.1465,-1.1455,-1.1455,-1.1482,-1.1498,-1.1498,-1.1504,-1.1487,-1.1476,-1.1536,-1.1607,-1.1699,-1.1764,-1.177,-1.1775,-1.1792,-1.1819,-1.1862,-1.1879,-1.19,-1.1879,-1.1786,-1.1759,0.3411,0.3411,0.3411,0.3411,0.3411,0.3411,0.3411,0.3411,0.3411,0.3411,0.3411,0.3411,0.3411,0.3411,0.3411,0.3411,0.3411,0.3411,0.3411,0.3411,0.3411,0.3411,0.3411,0.3411,0.3411,0.3411,0.3411,0.3414,0.342,0.3457,0.3491,0.3509,0.3536,0.3544,0.3512,0.3498,0.3472,0.3415,0.3412,0.3411,0.3411,0.2558,0.2131,0.1492,0.0426,-0.0852,-0.1912,-0.2746,-0.3979,-0.5384,-0.6344,-0.7503,-0.8221,-0.8971,-0.9107,-0.9212,-0.914,-0.9261,-0.9212,-0.9175,-0.9154,-0.9154,-0.9146,-0.9146,-0.9146,-0.9332,-0.9332,-0.9303,-0.9299,-0.9261,-0.9236,-0.9178,-0.9132,-0.9111,-0.9061,-0.9003,-0.8957,-0.8911,-0.8878,-0.8861,-0.8861,-0.8857,-0.8873,-0.8923,-0.8919,-0.9113,-0.9092,-0.9256,-0.9613,-0.9766,-1.0315,-1.067,-1.0999,-1.112,-1.1104,-1.1325,-1.1558,-1.1558,-1.1563,-1.1618,-1.1661,-1.1688,-1.1743,-1.1813,-1.1868,-1.1889,-1.1895,-1.1911,-1.1966,-1.2025,-1.2015,-1.2004,-1.1966,-1.1949,-1.1944,0.3411,0.3411,0.3411,0.3411,0.3411,0.3411,0.3411,0.3411,0.3411,0.3411,0.3411,0.3411,0.3411,0.3411,0.3411,0.3411,0.3411,0.3411,0.3411,0.3411,0.3411,0.3411,0.3411,0.3411,0.3411,0.3411,0.3411,0.3418,0.3425,0.3468,0.3502,0.3517,0.3539,0.3561,0.352,0.3497,0.3474,0.3427,0.3411,0.3411,0.3411,0.3411,0.3198,0.2772,0.2131,0.1066,-0.0,-0.1058,-0.2308,-0.393,-0.5512,-0.6881,-0.7851,-0.841,-0.857,-0.8705,-0.9021,-0.9152,-0.9289,-0.922,-0.9191,-0.9167,-0.9154,-0.9146,-0.9146,-0.9142,-0.9142,-0.9142,-0.9138,-0.913,-0.9105,-0.9085,-0.9044,-0.9007,-0.8946,-0.8897,-0.8852,-0.8807,-0.8775,-0.8754,-0.875,-0.875,-0.8783,-0.8836,-0.8856,-0.8873,-0.9061,-0.9241,-0.9403,-0.9356,-0.9698,-1.0044,-1.0197,-1.05,-1.0635,-1.1035,-1.1475,-1.1491,-1.1512,-1.1775,-1.1835,-1.1841,-1.1857,-1.1906,-1.1949,-1.1993,-1.2031,-1.2053,-1.2112,-1.214,-1.2118,-1.208,-1.2091,-1.208,-1.2118,0.3411,0.3411,0.3411,0.3411,0.3411,0.3411,0.3411,0.3411,0.3411,0.3411,0.3411,0.3411,0.3411,0.3412,0.3411,0.3414,0.3419,0.3416,0.3412,0.3411,0.3412,0.3412,0.3411,0.3411,0.3411,0.3412,0.3416,0.3427,0.3444,0.3482,0.3514,0.3536,0.3566,0.3562,0.3514,0.3494,0.3476,0.3434,0.3412,0.3411,0.3411,0.3411,0.3411,0.3198,0.3198,0.2345,0.1278,0.0213,-0.1053,-0.2905,-0.49,-0.648,-0.7254,-0.7844,-0.8214,-0.8375,-0.8697,-0.8852,-0.899,-0.8915,-0.888,-0.9036,-0.9012,-0.8964,-0.896,-0.8952,-0.8952,-0.8952,-0.8948,-0.8952,-0.8936,-0.8936,-0.8908,-0.8888,-0.8848,-0.8812,-0.8776,-0.8716,-0.8668,-0.866,-0.866,-0.866,-0.8668,-0.87,-0.8712,-0.8724,-0.8728,-0.8913,-0.8922,-0.8901,-0.9069,-0.9421,-0.9578,-0.9931,-1.0283,-1.0821,-1.1232,-1.1247,-1.1457,-1.171,-1.1758,-1.1955,-1.1982,-1.2015,-1.2063,-1.2112,-1.215,-1.214,-1.215,-1.2161,-1.2167,-1.2161,-1.2172,-1.2172,-1.2172]}]]